<?xml version="1.0" encoding="UTF-8" standalone="no" ?>
<gpx xmlns="http://www.topografix.com/GPX/1/1" xmlns:xsi="http://www.w3.org/2001/XMLSchema-instance" xsi:schemaLocation="http://www.topografix.com/GPX/1/1 http://www.topografix.com/GPX/1/1/gpx.xsd" version="1.1" creator="VisuGPX - https://www.visugpx.com">
  <metadata>
    <name>marche givry la Madone, la Chaume </name>
    <desc><![CDATA[Les hauts de Givry en passant par la Madone, la chaume et le moulin de Russilly ]]></desc>
  </metadata>
  <wpt lat="46.78546" lon="4.75388">
    <ele>213.4</ele>
    <name><![CDATA[Pause à 08/05/2014 à 17:20]]></name>
    <desc><![CDATA[Pause de 6min 58s]]></desc>
  </wpt>
  <trk>
    <name><![CDATA[sortie du 8 mai 2014
]]></name>
    <trkseg>
      <trkpt lat="46.78541" lon="4.75387">
        <ele>215</ele>
        <time>2014-05-08T15:18:41Z</time>
      </trkpt>
      <trkpt lat="46.78546" lon="4.75388">
        <ele>215</ele>
        <time>2014-05-08T15:18:45Z</time>
      </trkpt>
      <trkpt lat="46.785" lon="4.75382">
        <ele>220</ele>
        <time>2014-05-08T15:25:47Z</time>
      </trkpt>
      <trkpt lat="46.78495" lon="4.75379">
        <ele>219</ele>
        <time>2014-05-08T15:25:51Z</time>
      </trkpt>
      <trkpt lat="46.7849" lon="4.75377">
        <ele>219</ele>
        <time>2014-05-08T15:25:55Z</time>
      </trkpt>
      <trkpt lat="46.78485" lon="4.75375">
        <ele>220</ele>
        <time>2014-05-08T15:25:58Z</time>
      </trkpt>
      <trkpt lat="46.78481" lon="4.75372">
        <ele>220</ele>
        <time>2014-05-08T15:26:02Z</time>
      </trkpt>
      <trkpt lat="46.78476" lon="4.75369">
        <ele>220</ele>
        <time>2014-05-08T15:26:06Z</time>
      </trkpt>
      <trkpt lat="46.78471" lon="4.75365">
        <ele>220</ele>
        <time>2014-05-08T15:26:11Z</time>
      </trkpt>
      <trkpt lat="46.78466" lon="4.75364">
        <ele>220</ele>
        <time>2014-05-08T15:26:14Z</time>
      </trkpt>
      <trkpt lat="46.78461" lon="4.7536">
        <ele>220</ele>
        <time>2014-05-08T15:26:18Z</time>
      </trkpt>
      <trkpt lat="46.78456" lon="4.75358">
        <ele>220</ele>
        <time>2014-05-08T15:26:21Z</time>
      </trkpt>
      <trkpt lat="46.78452" lon="4.75355">
        <ele>220</ele>
        <time>2014-05-08T15:26:24Z</time>
      </trkpt>
      <trkpt lat="46.78447" lon="4.75351">
        <ele>220</ele>
        <time>2014-05-08T15:26:28Z</time>
      </trkpt>
      <trkpt lat="46.78441" lon="4.75348">
        <ele>220</ele>
        <time>2014-05-08T15:26:33Z</time>
      </trkpt>
      <trkpt lat="46.78437" lon="4.75344">
        <ele>220</ele>
        <time>2014-05-08T15:26:37Z</time>
      </trkpt>
      <trkpt lat="46.78433" lon="4.75342">
        <ele>220</ele>
        <time>2014-05-08T15:26:40Z</time>
      </trkpt>
      <trkpt lat="46.78428" lon="4.7534">
        <ele>221</ele>
        <time>2014-05-08T15:26:43Z</time>
      </trkpt>
      <trkpt lat="46.78425" lon="4.75335">
        <ele>220</ele>
        <time>2014-05-08T15:26:47Z</time>
      </trkpt>
      <trkpt lat="46.78426" lon="4.75326">
        <ele>221</ele>
        <time>2014-05-08T15:26:51Z</time>
      </trkpt>
      <trkpt lat="46.78431" lon="4.7532">
        <ele>220</ele>
        <time>2014-05-08T15:26:54Z</time>
      </trkpt>
      <trkpt lat="46.78434" lon="4.75313">
        <ele>219</ele>
        <time>2014-05-08T15:26:57Z</time>
      </trkpt>
      <trkpt lat="46.78437" lon="4.75306">
        <ele>218</ele>
        <time>2014-05-08T15:27:00Z</time>
      </trkpt>
      <trkpt lat="46.78441" lon="4.753">
        <ele>218</ele>
        <time>2014-05-08T15:27:03Z</time>
      </trkpt>
      <trkpt lat="46.78444" lon="4.75295">
        <ele>217</ele>
        <time>2014-05-08T15:27:06Z</time>
      </trkpt>
      <trkpt lat="46.78447" lon="4.7529">
        <ele>217</ele>
        <time>2014-05-08T15:27:09Z</time>
      </trkpt>
      <trkpt lat="46.7845" lon="4.75283">
        <ele>216</ele>
        <time>2014-05-08T15:27:13Z</time>
      </trkpt>
      <trkpt lat="46.78453" lon="4.75276">
        <ele>216</ele>
        <time>2014-05-08T15:27:17Z</time>
      </trkpt>
      <trkpt lat="46.78456" lon="4.75269">
        <ele>215</ele>
        <time>2014-05-08T15:27:21Z</time>
      </trkpt>
      <trkpt lat="46.78459" lon="4.75263">
        <ele>215</ele>
        <time>2014-05-08T15:27:24Z</time>
      </trkpt>
      <trkpt lat="46.78463" lon="4.75258">
        <ele>214</ele>
        <time>2014-05-08T15:27:28Z</time>
      </trkpt>
      <trkpt lat="46.78466" lon="4.7525">
        <ele>214</ele>
        <time>2014-05-08T15:27:32Z</time>
      </trkpt>
      <trkpt lat="46.78468" lon="4.75243">
        <ele>214</ele>
        <time>2014-05-08T15:27:36Z</time>
      </trkpt>
      <trkpt lat="46.78471" lon="4.75235">
        <ele>214</ele>
        <time>2014-05-08T15:27:40Z</time>
      </trkpt>
      <trkpt lat="46.78474" lon="4.7523">
        <ele>214</ele>
        <time>2014-05-08T15:27:43Z</time>
      </trkpt>
      <trkpt lat="46.78476" lon="4.75223">
        <ele>214</ele>
        <time>2014-05-08T15:27:47Z</time>
      </trkpt>
      <trkpt lat="46.78478" lon="4.75216">
        <ele>214</ele>
        <time>2014-05-08T15:27:51Z</time>
      </trkpt>
      <trkpt lat="46.78481" lon="4.75209">
        <ele>214</ele>
        <time>2014-05-08T15:27:55Z</time>
      </trkpt>
      <trkpt lat="46.78484" lon="4.75202">
        <ele>214</ele>
        <time>2014-05-08T15:27:59Z</time>
      </trkpt>
      <trkpt lat="46.78487" lon="4.75195">
        <ele>214</ele>
        <time>2014-05-08T15:28:03Z</time>
      </trkpt>
      <trkpt lat="46.78489" lon="4.75188">
        <ele>214</ele>
        <time>2014-05-08T15:28:07Z</time>
      </trkpt>
      <trkpt lat="46.78492" lon="4.75181">
        <ele>215</ele>
        <time>2014-05-08T15:28:11Z</time>
      </trkpt>
      <trkpt lat="46.78495" lon="4.75174">
        <ele>215</ele>
        <time>2014-05-08T15:28:15Z</time>
      </trkpt>
      <trkpt lat="46.78499" lon="4.75168">
        <ele>215</ele>
        <time>2014-05-08T15:28:19Z</time>
      </trkpt>
      <trkpt lat="46.78501" lon="4.75162">
        <ele>215</ele>
        <time>2014-05-08T15:28:22Z</time>
      </trkpt>
      <trkpt lat="46.78504" lon="4.75156">
        <ele>215</ele>
        <time>2014-05-08T15:28:25Z</time>
      </trkpt>
      <trkpt lat="46.78507" lon="4.75149">
        <ele>216</ele>
        <time>2014-05-08T15:28:29Z</time>
      </trkpt>
      <trkpt lat="46.78509" lon="4.75143">
        <ele>216</ele>
        <time>2014-05-08T15:28:32Z</time>
      </trkpt>
      <trkpt lat="46.78511" lon="4.75137">
        <ele>216</ele>
        <time>2014-05-08T15:28:35Z</time>
      </trkpt>
      <trkpt lat="46.78516" lon="4.75131">
        <ele>217</ele>
        <time>2014-05-08T15:28:39Z</time>
      </trkpt>
      <trkpt lat="46.78519" lon="4.75125">
        <ele>217</ele>
        <time>2014-05-08T15:28:43Z</time>
      </trkpt>
      <trkpt lat="46.7852" lon="4.75118">
        <ele>218</ele>
        <time>2014-05-08T15:28:48Z</time>
      </trkpt>
      <trkpt lat="46.78524" lon="4.75113">
        <ele>219</ele>
        <time>2014-05-08T15:28:52Z</time>
      </trkpt>
      <trkpt lat="46.78529" lon="4.75114">
        <ele>219</ele>
        <time>2014-05-08T15:28:57Z</time>
      </trkpt>
      <trkpt lat="46.78533" lon="4.75117">
        <ele>220</ele>
        <time>2014-05-08T15:29:01Z</time>
      </trkpt>
      <trkpt lat="46.78537" lon="4.75122">
        <ele>220</ele>
        <time>2014-05-08T15:29:05Z</time>
      </trkpt>
      <trkpt lat="46.78542" lon="4.75126">
        <ele>221</ele>
        <time>2014-05-08T15:29:09Z</time>
      </trkpt>
      <trkpt lat="46.78547" lon="4.7513">
        <ele>222</ele>
        <time>2014-05-08T15:29:13Z</time>
      </trkpt>
      <trkpt lat="46.78551" lon="4.75134">
        <ele>223</ele>
        <time>2014-05-08T15:29:21Z</time>
      </trkpt>
      <trkpt lat="46.78556" lon="4.75139">
        <ele>223</ele>
        <time>2014-05-08T15:29:25Z</time>
      </trkpt>
      <trkpt lat="46.78561" lon="4.75142">
        <ele>223</ele>
        <time>2014-05-08T15:29:28Z</time>
      </trkpt>
      <trkpt lat="46.78565" lon="4.75147">
        <ele>223</ele>
        <time>2014-05-08T15:29:32Z</time>
      </trkpt>
      <trkpt lat="46.78569" lon="4.7515">
        <ele>223</ele>
        <time>2014-05-08T15:29:35Z</time>
      </trkpt>
      <trkpt lat="46.78574" lon="4.75154">
        <ele>223</ele>
        <time>2014-05-08T15:29:39Z</time>
      </trkpt>
      <trkpt lat="46.78578" lon="4.75158">
        <ele>224</ele>
        <time>2014-05-08T15:29:42Z</time>
      </trkpt>
      <trkpt lat="46.78582" lon="4.75162">
        <ele>224</ele>
        <time>2014-05-08T15:29:45Z</time>
      </trkpt>
      <trkpt lat="46.78586" lon="4.75166">
        <ele>224</ele>
        <time>2014-05-08T15:29:48Z</time>
      </trkpt>
      <trkpt lat="46.78591" lon="4.75171">
        <ele>225</ele>
        <time>2014-05-08T15:29:52Z</time>
      </trkpt>
      <trkpt lat="46.78594" lon="4.75175">
        <ele>225</ele>
        <time>2014-05-08T15:29:55Z</time>
      </trkpt>
      <trkpt lat="46.78598" lon="4.75179">
        <ele>225</ele>
        <time>2014-05-08T15:29:58Z</time>
      </trkpt>
      <trkpt lat="46.78603" lon="4.75183">
        <ele>225</ele>
        <time>2014-05-08T15:30:02Z</time>
      </trkpt>
      <trkpt lat="46.78608" lon="4.75186">
        <ele>226</ele>
        <time>2014-05-08T15:30:06Z</time>
      </trkpt>
      <trkpt lat="46.78612" lon="4.75189">
        <ele>226</ele>
        <time>2014-05-08T15:30:09Z</time>
      </trkpt>
      <trkpt lat="46.78617" lon="4.75192">
        <ele>227</ele>
        <time>2014-05-08T15:30:12Z</time>
      </trkpt>
      <trkpt lat="46.78621" lon="4.75195">
        <ele>227</ele>
        <time>2014-05-08T15:30:15Z</time>
      </trkpt>
      <trkpt lat="46.78626" lon="4.75198">
        <ele>227</ele>
        <time>2014-05-08T15:30:18Z</time>
      </trkpt>
      <trkpt lat="46.7863" lon="4.75202">
        <ele>227</ele>
        <time>2014-05-08T15:30:21Z</time>
      </trkpt>
      <trkpt lat="46.78634" lon="4.75205">
        <ele>227</ele>
        <time>2014-05-08T15:30:24Z</time>
      </trkpt>
      <trkpt lat="46.78638" lon="4.75208">
        <ele>227</ele>
        <time>2014-05-08T15:30:27Z</time>
      </trkpt>
      <trkpt lat="46.78642" lon="4.75211">
        <ele>227</ele>
        <time>2014-05-08T15:30:30Z</time>
      </trkpt>
      <trkpt lat="46.78647" lon="4.75215">
        <ele>228</ele>
        <time>2014-05-08T15:30:34Z</time>
      </trkpt>
      <trkpt lat="46.78652" lon="4.75218">
        <ele>228</ele>
        <time>2014-05-08T15:30:38Z</time>
      </trkpt>
      <trkpt lat="46.78657" lon="4.75222">
        <ele>229</ele>
        <time>2014-05-08T15:30:42Z</time>
      </trkpt>
      <trkpt lat="46.78662" lon="4.75227">
        <ele>229</ele>
        <time>2014-05-08T15:30:46Z</time>
      </trkpt>
      <trkpt lat="46.78666" lon="4.7523">
        <ele>229</ele>
        <time>2014-05-08T15:30:49Z</time>
      </trkpt>
      <trkpt lat="46.78671" lon="4.75233">
        <ele>229</ele>
        <time>2014-05-08T15:30:52Z</time>
      </trkpt>
      <trkpt lat="46.78675" lon="4.75236">
        <ele>229</ele>
        <time>2014-05-08T15:30:55Z</time>
      </trkpt>
      <trkpt lat="46.7868" lon="4.75233">
        <ele>229</ele>
        <time>2014-05-08T15:30:59Z</time>
      </trkpt>
      <trkpt lat="46.78683" lon="4.75227">
        <ele>229</ele>
        <time>2014-05-08T15:31:02Z</time>
      </trkpt>
      <trkpt lat="46.78685" lon="4.75221">
        <ele>230</ele>
        <time>2014-05-08T15:31:05Z</time>
      </trkpt>
      <trkpt lat="46.78686" lon="4.75214">
        <ele>230</ele>
        <time>2014-05-08T15:31:08Z</time>
      </trkpt>
      <trkpt lat="46.78687" lon="4.75207">
        <ele>230</ele>
        <time>2014-05-08T15:31:11Z</time>
      </trkpt>
      <trkpt lat="46.78689" lon="4.752">
        <ele>230</ele>
        <time>2014-05-08T15:31:14Z</time>
      </trkpt>
      <trkpt lat="46.78691" lon="4.75192">
        <ele>230</ele>
        <time>2014-05-08T15:31:18Z</time>
      </trkpt>
      <trkpt lat="46.78692" lon="4.75185">
        <ele>230</ele>
        <time>2014-05-08T15:31:21Z</time>
      </trkpt>
      <trkpt lat="46.78693" lon="4.75178">
        <ele>231</ele>
        <time>2014-05-08T15:31:24Z</time>
      </trkpt>
      <trkpt lat="46.78693" lon="4.75172">
        <ele>231</ele>
        <time>2014-05-08T15:31:27Z</time>
      </trkpt>
      <trkpt lat="46.78692" lon="4.75163">
        <ele>230</ele>
        <time>2014-05-08T15:31:31Z</time>
      </trkpt>
      <trkpt lat="46.7869" lon="4.75157">
        <ele>230</ele>
        <time>2014-05-08T15:31:34Z</time>
      </trkpt>
      <trkpt lat="46.78687" lon="4.75151">
        <ele>230</ele>
        <time>2014-05-08T15:31:37Z</time>
      </trkpt>
      <trkpt lat="46.78684" lon="4.75144">
        <ele>229</ele>
        <time>2014-05-08T15:31:41Z</time>
      </trkpt>
      <trkpt lat="46.78681" lon="4.75137">
        <ele>229</ele>
        <time>2014-05-08T15:31:45Z</time>
      </trkpt>
      <trkpt lat="46.78679" lon="4.7513">
        <ele>229</ele>
        <time>2014-05-08T15:31:49Z</time>
      </trkpt>
      <trkpt lat="46.78679" lon="4.75123">
        <ele>230</ele>
        <time>2014-05-08T15:31:52Z</time>
      </trkpt>
      <trkpt lat="46.78679" lon="4.75115">
        <ele>231</ele>
        <time>2014-05-08T15:31:56Z</time>
      </trkpt>
      <trkpt lat="46.78679" lon="4.75106">
        <ele>231</ele>
        <time>2014-05-08T15:32:00Z</time>
      </trkpt>
      <trkpt lat="46.78679" lon="4.75097">
        <ele>231</ele>
        <time>2014-05-08T15:32:04Z</time>
      </trkpt>
      <trkpt lat="46.78679" lon="4.7509">
        <ele>231</ele>
        <time>2014-05-08T15:32:07Z</time>
      </trkpt>
      <trkpt lat="46.78679" lon="4.75083">
        <ele>231</ele>
        <time>2014-05-08T15:32:10Z</time>
      </trkpt>
      <trkpt lat="46.7868" lon="4.75076">
        <ele>231</ele>
        <time>2014-05-08T15:32:13Z</time>
      </trkpt>
      <trkpt lat="46.7868" lon="4.75068">
        <ele>231</ele>
        <time>2014-05-08T15:32:17Z</time>
      </trkpt>
      <trkpt lat="46.7868" lon="4.75061">
        <ele>232</ele>
        <time>2014-05-08T15:32:20Z</time>
      </trkpt>
      <trkpt lat="46.7868" lon="4.75053">
        <ele>232</ele>
        <time>2014-05-08T15:32:24Z</time>
      </trkpt>
      <trkpt lat="46.7868" lon="4.75047">
        <ele>231</ele>
        <time>2014-05-08T15:32:27Z</time>
      </trkpt>
      <trkpt lat="46.78679" lon="4.75038">
        <ele>231</ele>
        <time>2014-05-08T15:32:31Z</time>
      </trkpt>
      <trkpt lat="46.78679" lon="4.7503">
        <ele>230</ele>
        <time>2014-05-08T15:32:35Z</time>
      </trkpt>
      <trkpt lat="46.7868" lon="4.75022">
        <ele>230</ele>
        <time>2014-05-08T15:32:39Z</time>
      </trkpt>
      <trkpt lat="46.78682" lon="4.75014">
        <ele>230</ele>
        <time>2014-05-08T15:32:43Z</time>
      </trkpt>
      <trkpt lat="46.78684" lon="4.75007">
        <ele>229</ele>
        <time>2014-05-08T15:32:46Z</time>
      </trkpt>
      <trkpt lat="46.78685" lon="4.75002">
        <ele>229</ele>
        <time>2014-05-08T15:32:49Z</time>
      </trkpt>
      <trkpt lat="46.78688" lon="4.74996">
        <ele>229</ele>
        <time>2014-05-08T15:32:52Z</time>
      </trkpt>
      <trkpt lat="46.78691" lon="4.74989">
        <ele>229</ele>
        <time>2014-05-08T15:32:56Z</time>
      </trkpt>
      <trkpt lat="46.78693" lon="4.74982">
        <ele>229</ele>
        <time>2014-05-08T15:33:00Z</time>
      </trkpt>
      <trkpt lat="46.78695" lon="4.74975">
        <ele>229</ele>
        <time>2014-05-08T15:33:04Z</time>
      </trkpt>
      <trkpt lat="46.78697" lon="4.74968">
        <ele>230</ele>
        <time>2014-05-08T15:33:08Z</time>
      </trkpt>
      <trkpt lat="46.78699" lon="4.74961">
        <ele>230</ele>
        <time>2014-05-08T15:33:12Z</time>
      </trkpt>
      <trkpt lat="46.78701" lon="4.74954">
        <ele>230</ele>
        <time>2014-05-08T15:33:16Z</time>
      </trkpt>
      <trkpt lat="46.78703" lon="4.74947">
        <ele>231</ele>
        <time>2014-05-08T15:33:20Z</time>
      </trkpt>
      <trkpt lat="46.78705" lon="4.74939">
        <ele>231</ele>
        <time>2014-05-08T15:33:24Z</time>
      </trkpt>
      <trkpt lat="46.78705" lon="4.74932">
        <ele>231</ele>
        <time>2014-05-08T15:33:27Z</time>
      </trkpt>
      <trkpt lat="46.78705" lon="4.74926">
        <ele>231</ele>
        <time>2014-05-08T15:33:30Z</time>
      </trkpt>
      <trkpt lat="46.78702" lon="4.74918">
        <ele>231</ele>
        <time>2014-05-08T15:33:34Z</time>
      </trkpt>
      <trkpt lat="46.78699" lon="4.74913">
        <ele>231</ele>
        <time>2014-05-08T15:33:37Z</time>
      </trkpt>
      <trkpt lat="46.78694" lon="4.74907">
        <ele>231</ele>
        <time>2014-05-08T15:33:41Z</time>
      </trkpt>
      <trkpt lat="46.7869" lon="4.74902">
        <ele>231</ele>
        <time>2014-05-08T15:33:45Z</time>
      </trkpt>
      <trkpt lat="46.78686" lon="4.74897">
        <ele>231</ele>
        <time>2014-05-08T15:33:49Z</time>
      </trkpt>
      <trkpt lat="46.78682" lon="4.74891">
        <ele>230</ele>
        <time>2014-05-08T15:33:53Z</time>
      </trkpt>
      <trkpt lat="46.78679" lon="4.74886">
        <ele>230</ele>
        <time>2014-05-08T15:33:56Z</time>
      </trkpt>
      <trkpt lat="46.78675" lon="4.74881">
        <ele>230</ele>
        <time>2014-05-08T15:33:59Z</time>
      </trkpt>
      <trkpt lat="46.78671" lon="4.74877">
        <ele>230</ele>
        <time>2014-05-08T15:34:02Z</time>
      </trkpt>
      <trkpt lat="46.78666" lon="4.74872">
        <ele>230</ele>
        <time>2014-05-08T15:34:06Z</time>
      </trkpt>
      <trkpt lat="46.78662" lon="4.74868">
        <ele>230</ele>
        <time>2014-05-08T15:34:09Z</time>
      </trkpt>
      <trkpt lat="46.78658" lon="4.74863">
        <ele>229</ele>
        <time>2014-05-08T15:34:12Z</time>
      </trkpt>
      <trkpt lat="46.78653" lon="4.74859">
        <ele>229</ele>
        <time>2014-05-08T15:34:15Z</time>
      </trkpt>
      <trkpt lat="46.78649" lon="4.74855">
        <ele>229</ele>
        <time>2014-05-08T15:34:18Z</time>
      </trkpt>
      <trkpt lat="46.78645" lon="4.74851">
        <ele>229</ele>
        <time>2014-05-08T15:34:21Z</time>
      </trkpt>
      <trkpt lat="46.78641" lon="4.74846">
        <ele>229</ele>
        <time>2014-05-08T15:34:24Z</time>
      </trkpt>
      <trkpt lat="46.78638" lon="4.74841">
        <ele>229</ele>
        <time>2014-05-08T15:34:27Z</time>
      </trkpt>
      <trkpt lat="46.78635" lon="4.74835">
        <ele>229</ele>
        <time>2014-05-08T15:34:30Z</time>
      </trkpt>
      <trkpt lat="46.78631" lon="4.74829">
        <ele>229</ele>
        <time>2014-05-08T15:34:34Z</time>
      </trkpt>
      <trkpt lat="46.78628" lon="4.74824">
        <ele>229</ele>
        <time>2014-05-08T15:34:37Z</time>
      </trkpt>
      <trkpt lat="46.78625" lon="4.74819">
        <ele>229</ele>
        <time>2014-05-08T15:34:40Z</time>
      </trkpt>
      <trkpt lat="46.78621" lon="4.74815">
        <ele>230</ele>
        <time>2014-05-08T15:34:43Z</time>
      </trkpt>
      <trkpt lat="46.78617" lon="4.74812">
        <ele>230</ele>
        <time>2014-05-08T15:34:46Z</time>
      </trkpt>
      <trkpt lat="46.78612" lon="4.74809">
        <ele>229</ele>
        <time>2014-05-08T15:34:49Z</time>
      </trkpt>
      <trkpt lat="46.78608" lon="4.74807">
        <ele>229</ele>
        <time>2014-05-08T15:34:52Z</time>
      </trkpt>
      <trkpt lat="46.78603" lon="4.74804">
        <ele>228</ele>
        <time>2014-05-08T15:34:55Z</time>
      </trkpt>
      <trkpt lat="46.78599" lon="4.748">
        <ele>228</ele>
        <time>2014-05-08T15:34:58Z</time>
      </trkpt>
      <trkpt lat="46.78594" lon="4.74796">
        <ele>227</ele>
        <time>2014-05-08T15:35:02Z</time>
      </trkpt>
      <trkpt lat="46.78589" lon="4.74792">
        <ele>227</ele>
        <time>2014-05-08T15:35:06Z</time>
      </trkpt>
      <trkpt lat="46.78585" lon="4.74787">
        <ele>227</ele>
        <time>2014-05-08T15:35:10Z</time>
      </trkpt>
      <trkpt lat="46.78582" lon="4.7478">
        <ele>227</ele>
        <time>2014-05-08T15:35:14Z</time>
      </trkpt>
      <trkpt lat="46.78581" lon="4.74772">
        <ele>227</ele>
        <time>2014-05-08T15:35:18Z</time>
      </trkpt>
      <trkpt lat="46.7858" lon="4.74764">
        <ele>227</ele>
        <time>2014-05-08T15:35:22Z</time>
      </trkpt>
      <trkpt lat="46.7858" lon="4.74756">
        <ele>227</ele>
        <time>2014-05-08T15:35:26Z</time>
      </trkpt>
      <trkpt lat="46.78579" lon="4.74747">
        <ele>228</ele>
        <time>2014-05-08T15:35:30Z</time>
      </trkpt>
      <trkpt lat="46.78578" lon="4.7474">
        <ele>228</ele>
        <time>2014-05-08T15:35:33Z</time>
      </trkpt>
      <trkpt lat="46.78577" lon="4.74734">
        <ele>228</ele>
        <time>2014-05-08T15:35:36Z</time>
      </trkpt>
      <trkpt lat="46.78576" lon="4.74727">
        <ele>227</ele>
        <time>2014-05-08T15:35:39Z</time>
      </trkpt>
      <trkpt lat="46.78574" lon="4.7472">
        <ele>226</ele>
        <time>2014-05-08T15:35:43Z</time>
      </trkpt>
      <trkpt lat="46.78573" lon="4.74712">
        <ele>226</ele>
        <time>2014-05-08T15:35:47Z</time>
      </trkpt>
      <trkpt lat="46.78571" lon="4.74705">
        <ele>226</ele>
        <time>2014-05-08T15:35:51Z</time>
      </trkpt>
      <trkpt lat="46.78567" lon="4.74695">
        <ele>225</ele>
        <time>2014-05-08T15:36:09Z</time>
      </trkpt>
      <trkpt lat="46.78565" lon="4.74688">
        <ele>225</ele>
        <time>2014-05-08T15:36:13Z</time>
      </trkpt>
      <trkpt lat="46.78563" lon="4.7468">
        <ele>225</ele>
        <time>2014-05-08T15:36:17Z</time>
      </trkpt>
      <trkpt lat="46.78561" lon="4.74673">
        <ele>225</ele>
        <time>2014-05-08T15:36:21Z</time>
      </trkpt>
      <trkpt lat="46.7856" lon="4.74665">
        <ele>226</ele>
        <time>2014-05-08T15:36:25Z</time>
      </trkpt>
      <trkpt lat="46.7856" lon="4.74656">
        <ele>226</ele>
        <time>2014-05-08T15:36:29Z</time>
      </trkpt>
      <trkpt lat="46.78559" lon="4.74648">
        <ele>227</ele>
        <time>2014-05-08T15:36:33Z</time>
      </trkpt>
      <trkpt lat="46.78559" lon="4.74641">
        <ele>227</ele>
        <time>2014-05-08T15:36:36Z</time>
      </trkpt>
      <trkpt lat="46.78559" lon="4.74635">
        <ele>227</ele>
        <time>2014-05-08T15:36:39Z</time>
      </trkpt>
      <trkpt lat="46.78559" lon="4.74626">
        <ele>227</ele>
        <time>2014-05-08T15:36:43Z</time>
      </trkpt>
      <trkpt lat="46.78558" lon="4.74618">
        <ele>228</ele>
        <time>2014-05-08T15:36:47Z</time>
      </trkpt>
      <trkpt lat="46.78556" lon="4.74609">
        <ele>228</ele>
        <time>2014-05-08T15:36:51Z</time>
      </trkpt>
      <trkpt lat="46.78555" lon="4.74603">
        <ele>229</ele>
        <time>2014-05-08T15:36:54Z</time>
      </trkpt>
      <trkpt lat="46.78553" lon="4.74596">
        <ele>229</ele>
        <time>2014-05-08T15:36:57Z</time>
      </trkpt>
      <trkpt lat="46.78551" lon="4.7459">
        <ele>229</ele>
        <time>2014-05-08T15:37:00Z</time>
      </trkpt>
      <trkpt lat="46.7855" lon="4.74583">
        <ele>229</ele>
        <time>2014-05-08T15:37:03Z</time>
      </trkpt>
      <trkpt lat="46.7855" lon="4.74575">
        <ele>229</ele>
        <time>2014-05-08T15:37:07Z</time>
      </trkpt>
      <trkpt lat="46.7855" lon="4.74567">
        <ele>230</ele>
        <time>2014-05-08T15:37:11Z</time>
      </trkpt>
      <trkpt lat="46.78553" lon="4.74559">
        <ele>230</ele>
        <time>2014-05-08T15:37:15Z</time>
      </trkpt>
      <trkpt lat="46.78556" lon="4.74551">
        <ele>231</ele>
        <time>2014-05-08T15:37:19Z</time>
      </trkpt>
      <trkpt lat="46.78558" lon="4.74544">
        <ele>231</ele>
        <time>2014-05-08T15:37:23Z</time>
      </trkpt>
      <trkpt lat="46.78561" lon="4.74536">
        <ele>232</ele>
        <time>2014-05-08T15:37:27Z</time>
      </trkpt>
      <trkpt lat="46.78563" lon="4.74529">
        <ele>232</ele>
        <time>2014-05-08T15:37:31Z</time>
      </trkpt>
      <trkpt lat="46.78566" lon="4.74522">
        <ele>232</ele>
        <time>2014-05-08T15:37:35Z</time>
      </trkpt>
      <trkpt lat="46.78568" lon="4.74516">
        <ele>232</ele>
        <time>2014-05-08T15:37:38Z</time>
      </trkpt>
      <trkpt lat="46.7857" lon="4.7451">
        <ele>232</ele>
        <time>2014-05-08T15:37:41Z</time>
      </trkpt>
      <trkpt lat="46.78573" lon="4.74504">
        <ele>231</ele>
        <time>2014-05-08T15:37:44Z</time>
      </trkpt>
      <trkpt lat="46.78576" lon="4.74498">
        <ele>230</ele>
        <time>2014-05-08T15:37:47Z</time>
      </trkpt>
      <trkpt lat="46.78579" lon="4.74491">
        <ele>230</ele>
        <time>2014-05-08T15:37:51Z</time>
      </trkpt>
      <trkpt lat="46.78582" lon="4.74483">
        <ele>230</ele>
        <time>2014-05-08T15:37:55Z</time>
      </trkpt>
      <trkpt lat="46.78584" lon="4.74477">
        <ele>229</ele>
        <time>2014-05-08T15:37:58Z</time>
      </trkpt>
      <trkpt lat="46.78586" lon="4.74471">
        <ele>229</ele>
        <time>2014-05-08T15:38:01Z</time>
      </trkpt>
      <trkpt lat="46.78589" lon="4.74465">
        <ele>229</ele>
        <time>2014-05-08T15:38:04Z</time>
      </trkpt>
      <trkpt lat="46.78591" lon="4.74459">
        <ele>229</ele>
        <time>2014-05-08T15:38:07Z</time>
      </trkpt>
      <trkpt lat="46.78593" lon="4.74453">
        <ele>229</ele>
        <time>2014-05-08T15:38:10Z</time>
      </trkpt>
      <trkpt lat="46.78596" lon="4.74447">
        <ele>229</ele>
        <time>2014-05-08T15:38:13Z</time>
      </trkpt>
      <trkpt lat="46.78598" lon="4.74441">
        <ele>229</ele>
        <time>2014-05-08T15:38:16Z</time>
      </trkpt>
      <trkpt lat="46.78599" lon="4.74435">
        <ele>229</ele>
        <time>2014-05-08T15:38:19Z</time>
      </trkpt>
      <trkpt lat="46.78602" lon="4.74429">
        <ele>229</ele>
        <time>2014-05-08T15:38:22Z</time>
      </trkpt>
      <trkpt lat="46.78604" lon="4.74421">
        <ele>229</ele>
        <time>2014-05-08T15:38:26Z</time>
      </trkpt>
      <trkpt lat="46.78606" lon="4.74414">
        <ele>229</ele>
        <time>2014-05-08T15:38:30Z</time>
      </trkpt>
      <trkpt lat="46.78608" lon="4.74406">
        <ele>229</ele>
        <time>2014-05-08T15:38:34Z</time>
      </trkpt>
      <trkpt lat="46.7861" lon="4.74398">
        <ele>229</ele>
        <time>2014-05-08T15:38:38Z</time>
      </trkpt>
      <trkpt lat="46.78612" lon="4.7439">
        <ele>229</ele>
        <time>2014-05-08T15:38:42Z</time>
      </trkpt>
      <trkpt lat="46.78613" lon="4.74384">
        <ele>230</ele>
        <time>2014-05-08T15:38:45Z</time>
      </trkpt>
      <trkpt lat="46.78615" lon="4.74376">
        <ele>230</ele>
        <time>2014-05-08T15:38:49Z</time>
      </trkpt>
      <trkpt lat="46.78617" lon="4.74368">
        <ele>230</ele>
        <time>2014-05-08T15:38:53Z</time>
      </trkpt>
      <trkpt lat="46.78618" lon="4.7436">
        <ele>231</ele>
        <time>2014-05-08T15:38:57Z</time>
      </trkpt>
      <trkpt lat="46.78619" lon="4.74352">
        <ele>231</ele>
        <time>2014-05-08T15:39:01Z</time>
      </trkpt>
      <trkpt lat="46.78621" lon="4.74344">
        <ele>232</ele>
        <time>2014-05-08T15:39:05Z</time>
      </trkpt>
      <trkpt lat="46.78623" lon="4.74336">
        <ele>232</ele>
        <time>2014-05-08T15:39:09Z</time>
      </trkpt>
      <trkpt lat="46.78624" lon="4.74329">
        <ele>232</ele>
        <time>2014-05-08T15:39:13Z</time>
      </trkpt>
      <trkpt lat="46.78626" lon="4.74322">
        <ele>231</ele>
        <time>2014-05-08T15:39:17Z</time>
      </trkpt>
      <trkpt lat="46.78628" lon="4.74315">
        <ele>232</ele>
        <time>2014-05-08T15:39:21Z</time>
      </trkpt>
      <trkpt lat="46.7863" lon="4.74308">
        <ele>233</ele>
        <time>2014-05-08T15:39:25Z</time>
      </trkpt>
      <trkpt lat="46.78632" lon="4.74301">
        <ele>233</ele>
        <time>2014-05-08T15:39:29Z</time>
      </trkpt>
      <trkpt lat="46.78634" lon="4.74294">
        <ele>234</ele>
        <time>2014-05-08T15:39:33Z</time>
      </trkpt>
      <trkpt lat="46.78635" lon="4.74286">
        <ele>234</ele>
        <time>2014-05-08T15:39:37Z</time>
      </trkpt>
      <trkpt lat="46.78637" lon="4.74279">
        <ele>234</ele>
        <time>2014-05-08T15:39:41Z</time>
      </trkpt>
      <trkpt lat="46.7864" lon="4.74272">
        <ele>234</ele>
        <time>2014-05-08T15:39:45Z</time>
      </trkpt>
      <trkpt lat="46.78642" lon="4.74265">
        <ele>234</ele>
        <time>2014-05-08T15:39:49Z</time>
      </trkpt>
      <trkpt lat="46.78645" lon="4.74259">
        <ele>234</ele>
        <time>2014-05-08T15:39:53Z</time>
      </trkpt>
      <trkpt lat="46.78648" lon="4.74252">
        <ele>234</ele>
        <time>2014-05-08T15:39:57Z</time>
      </trkpt>
      <trkpt lat="46.7865" lon="4.74246">
        <ele>233</ele>
        <time>2014-05-08T15:40:00Z</time>
      </trkpt>
      <trkpt lat="46.78653" lon="4.74239">
        <ele>233</ele>
        <time>2014-05-08T15:40:04Z</time>
      </trkpt>
      <trkpt lat="46.78655" lon="4.74231">
        <ele>233</ele>
        <time>2014-05-08T15:40:08Z</time>
      </trkpt>
      <trkpt lat="46.78658" lon="4.74223">
        <ele>233</ele>
        <time>2014-05-08T15:40:12Z</time>
      </trkpt>
      <trkpt lat="46.78661" lon="4.74216">
        <ele>234</ele>
        <time>2014-05-08T15:40:16Z</time>
      </trkpt>
      <trkpt lat="46.78664" lon="4.74209">
        <ele>233</ele>
        <time>2014-05-08T15:40:20Z</time>
      </trkpt>
      <trkpt lat="46.78667" lon="4.74203">
        <ele>234</ele>
        <time>2014-05-08T15:40:23Z</time>
      </trkpt>
      <trkpt lat="46.78671" lon="4.74197">
        <ele>234</ele>
        <time>2014-05-08T15:40:27Z</time>
      </trkpt>
      <trkpt lat="46.78674" lon="4.7419">
        <ele>235</ele>
        <time>2014-05-08T15:40:31Z</time>
      </trkpt>
      <trkpt lat="46.78678" lon="4.74184">
        <ele>235</ele>
        <time>2014-05-08T15:40:35Z</time>
      </trkpt>
      <trkpt lat="46.78682" lon="4.74178">
        <ele>235</ele>
        <time>2014-05-08T15:40:39Z</time>
      </trkpt>
      <trkpt lat="46.78685" lon="4.74172">
        <ele>236</ele>
        <time>2014-05-08T15:40:43Z</time>
      </trkpt>
      <trkpt lat="46.78688" lon="4.74165">
        <ele>236</ele>
        <time>2014-05-08T15:40:47Z</time>
      </trkpt>
      <trkpt lat="46.78692" lon="4.74158">
        <ele>236</ele>
        <time>2014-05-08T15:40:51Z</time>
      </trkpt>
      <trkpt lat="46.78695" lon="4.74151">
        <ele>236</ele>
        <time>2014-05-08T15:40:55Z</time>
      </trkpt>
      <trkpt lat="46.78698" lon="4.74145">
        <ele>237</ele>
        <time>2014-05-08T15:40:59Z</time>
      </trkpt>
      <trkpt lat="46.78701" lon="4.74138">
        <ele>238</ele>
        <time>2014-05-08T15:41:03Z</time>
      </trkpt>
      <trkpt lat="46.78703" lon="4.74132">
        <ele>238</ele>
        <time>2014-05-08T15:41:07Z</time>
      </trkpt>
      <trkpt lat="46.78706" lon="4.74125">
        <ele>238</ele>
        <time>2014-05-08T15:41:11Z</time>
      </trkpt>
      <trkpt lat="46.78709" lon="4.74118">
        <ele>238</ele>
        <time>2014-05-08T15:41:15Z</time>
      </trkpt>
      <trkpt lat="46.78713" lon="4.74113">
        <ele>239</ele>
        <time>2014-05-08T15:41:19Z</time>
      </trkpt>
      <trkpt lat="46.78715" lon="4.74106">
        <ele>239</ele>
        <time>2014-05-08T15:41:23Z</time>
      </trkpt>
      <trkpt lat="46.78718" lon="4.741">
        <ele>239</ele>
        <time>2014-05-08T15:41:27Z</time>
      </trkpt>
      <trkpt lat="46.78721" lon="4.74093">
        <ele>239</ele>
        <time>2014-05-08T15:41:31Z</time>
      </trkpt>
      <trkpt lat="46.78723" lon="4.74086">
        <ele>239</ele>
        <time>2014-05-08T15:41:35Z</time>
      </trkpt>
      <trkpt lat="46.78725" lon="4.74079">
        <ele>239</ele>
        <time>2014-05-08T15:41:39Z</time>
      </trkpt>
      <trkpt lat="46.78729" lon="4.74073">
        <ele>240</ele>
        <time>2014-05-08T15:41:43Z</time>
      </trkpt>
      <trkpt lat="46.78731" lon="4.74065">
        <ele>241</ele>
        <time>2014-05-08T15:41:47Z</time>
      </trkpt>
      <trkpt lat="46.78734" lon="4.74058">
        <ele>241</ele>
        <time>2014-05-08T15:41:51Z</time>
      </trkpt>
      <trkpt lat="46.78737" lon="4.74051">
        <ele>241</ele>
        <time>2014-05-08T15:41:55Z</time>
      </trkpt>
      <trkpt lat="46.7874" lon="4.74044">
        <ele>240</ele>
        <time>2014-05-08T15:41:59Z</time>
      </trkpt>
      <trkpt lat="46.78742" lon="4.74039">
        <ele>240</ele>
        <time>2014-05-08T15:42:02Z</time>
      </trkpt>
      <trkpt lat="46.78746" lon="4.74032">
        <ele>240</ele>
        <time>2014-05-08T15:42:06Z</time>
      </trkpt>
      <trkpt lat="46.78749" lon="4.74026">
        <ele>240</ele>
        <time>2014-05-08T15:42:10Z</time>
      </trkpt>
      <trkpt lat="46.78753" lon="4.7402">
        <ele>240</ele>
        <time>2014-05-08T15:42:14Z</time>
      </trkpt>
      <trkpt lat="46.78756" lon="4.74015">
        <ele>240</ele>
        <time>2014-05-08T15:42:18Z</time>
      </trkpt>
      <trkpt lat="46.7876" lon="4.74009">
        <ele>240</ele>
        <time>2014-05-08T15:42:22Z</time>
      </trkpt>
      <trkpt lat="46.78763" lon="4.74003">
        <ele>240</ele>
        <time>2014-05-08T15:42:26Z</time>
      </trkpt>
      <trkpt lat="46.78767" lon="4.73997">
        <ele>240</ele>
        <time>2014-05-08T15:42:30Z</time>
      </trkpt>
      <trkpt lat="46.7877" lon="4.7399">
        <ele>240</ele>
        <time>2014-05-08T15:42:34Z</time>
      </trkpt>
      <trkpt lat="46.78774" lon="4.73985">
        <ele>240</ele>
        <time>2014-05-08T15:42:38Z</time>
      </trkpt>
      <trkpt lat="46.78777" lon="4.73979">
        <ele>241</ele>
        <time>2014-05-08T15:42:42Z</time>
      </trkpt>
      <trkpt lat="46.7878" lon="4.73973">
        <ele>241</ele>
        <time>2014-05-08T15:42:46Z</time>
      </trkpt>
      <trkpt lat="46.78784" lon="4.73967">
        <ele>241</ele>
        <time>2014-05-08T15:42:50Z</time>
      </trkpt>
      <trkpt lat="46.78787" lon="4.7396">
        <ele>241</ele>
        <time>2014-05-08T15:42:54Z</time>
      </trkpt>
      <trkpt lat="46.7879" lon="4.73953">
        <ele>241</ele>
        <time>2014-05-08T15:42:58Z</time>
      </trkpt>
      <trkpt lat="46.78792" lon="4.73946">
        <ele>241</ele>
        <time>2014-05-08T15:43:02Z</time>
      </trkpt>
      <trkpt lat="46.78793" lon="4.73939">
        <ele>241</ele>
        <time>2014-05-08T15:43:06Z</time>
      </trkpt>
      <trkpt lat="46.78795" lon="4.73932">
        <ele>241</ele>
        <time>2014-05-08T15:43:10Z</time>
      </trkpt>
      <trkpt lat="46.78797" lon="4.73926">
        <ele>242</ele>
        <time>2014-05-08T15:43:14Z</time>
      </trkpt>
      <trkpt lat="46.78799" lon="4.73919">
        <ele>242</ele>
        <time>2014-05-08T15:43:18Z</time>
      </trkpt>
      <trkpt lat="46.78801" lon="4.73912">
        <ele>242</ele>
        <time>2014-05-08T15:43:22Z</time>
      </trkpt>
      <trkpt lat="46.78804" lon="4.73906">
        <ele>242</ele>
        <time>2014-05-08T15:43:26Z</time>
      </trkpt>
      <trkpt lat="46.78807" lon="4.739">
        <ele>242</ele>
        <time>2014-05-08T15:43:30Z</time>
      </trkpt>
      <trkpt lat="46.78809" lon="4.73894">
        <ele>242</ele>
        <time>2014-05-08T15:43:34Z</time>
      </trkpt>
      <trkpt lat="46.78812" lon="4.73888">
        <ele>242</ele>
        <time>2014-05-08T15:43:38Z</time>
      </trkpt>
      <trkpt lat="46.78816" lon="4.73884">
        <ele>242</ele>
        <time>2014-05-08T15:43:42Z</time>
      </trkpt>
      <trkpt lat="46.7882" lon="4.73881">
        <ele>242</ele>
        <time>2014-05-08T15:43:46Z</time>
      </trkpt>
      <trkpt lat="46.78825" lon="4.73877">
        <ele>243</ele>
        <time>2014-05-08T15:43:50Z</time>
      </trkpt>
      <trkpt lat="46.78828" lon="4.73872">
        <ele>243</ele>
        <time>2014-05-08T15:43:54Z</time>
      </trkpt>
      <trkpt lat="46.78832" lon="4.73867">
        <ele>244</ele>
        <time>2014-05-08T15:43:58Z</time>
      </trkpt>
      <trkpt lat="46.78835" lon="4.73862">
        <ele>245</ele>
        <time>2014-05-08T15:44:02Z</time>
      </trkpt>
      <trkpt lat="46.78839" lon="4.73857">
        <ele>245</ele>
        <time>2014-05-08T15:44:06Z</time>
      </trkpt>
      <trkpt lat="46.78843" lon="4.73852">
        <ele>246</ele>
        <time>2014-05-08T15:44:10Z</time>
      </trkpt>
      <trkpt lat="46.78847" lon="4.73847">
        <ele>246</ele>
        <time>2014-05-08T15:44:14Z</time>
      </trkpt>
      <trkpt lat="46.78851" lon="4.73842">
        <ele>247</ele>
        <time>2014-05-08T15:44:18Z</time>
      </trkpt>
      <trkpt lat="46.78855" lon="4.73837">
        <ele>247</ele>
        <time>2014-05-08T15:44:22Z</time>
      </trkpt>
      <trkpt lat="46.78859" lon="4.73831">
        <ele>248</ele>
        <time>2014-05-08T15:44:26Z</time>
      </trkpt>
      <trkpt lat="46.78862" lon="4.73825">
        <ele>248</ele>
        <time>2014-05-08T15:44:30Z</time>
      </trkpt>
      <trkpt lat="46.78866" lon="4.7382">
        <ele>249</ele>
        <time>2014-05-08T15:44:34Z</time>
      </trkpt>
      <trkpt lat="46.78869" lon="4.73814">
        <ele>249</ele>
        <time>2014-05-08T15:44:38Z</time>
      </trkpt>
      <trkpt lat="46.78872" lon="4.73808">
        <ele>249</ele>
        <time>2014-05-08T15:44:42Z</time>
      </trkpt>
      <trkpt lat="46.78875" lon="4.73801">
        <ele>249</ele>
        <time>2014-05-08T15:44:46Z</time>
      </trkpt>
      <trkpt lat="46.78878" lon="4.73796">
        <ele>249</ele>
        <time>2014-05-08T15:44:50Z</time>
      </trkpt>
      <trkpt lat="46.78881" lon="4.7379">
        <ele>250</ele>
        <time>2014-05-08T15:44:54Z</time>
      </trkpt>
      <trkpt lat="46.78884" lon="4.73783">
        <ele>250</ele>
        <time>2014-05-08T15:44:58Z</time>
      </trkpt>
      <trkpt lat="46.78888" lon="4.73777">
        <ele>250</ele>
        <time>2014-05-08T15:45:02Z</time>
      </trkpt>
      <trkpt lat="46.78891" lon="4.73771">
        <ele>251</ele>
        <time>2014-05-08T15:45:06Z</time>
      </trkpt>
      <trkpt lat="46.78894" lon="4.73766">
        <ele>251</ele>
        <time>2014-05-08T15:45:10Z</time>
      </trkpt>
      <trkpt lat="46.78897" lon="4.7376">
        <ele>252</ele>
        <time>2014-05-08T15:45:14Z</time>
      </trkpt>
      <trkpt lat="46.78901" lon="4.73754">
        <ele>252</ele>
        <time>2014-05-08T15:45:18Z</time>
      </trkpt>
      <trkpt lat="46.78904" lon="4.73748">
        <ele>253</ele>
        <time>2014-05-08T15:45:22Z</time>
      </trkpt>
      <trkpt lat="46.78907" lon="4.73742">
        <ele>253</ele>
        <time>2014-05-08T15:45:26Z</time>
      </trkpt>
      <trkpt lat="46.7891" lon="4.73735">
        <ele>253</ele>
        <time>2014-05-08T15:45:30Z</time>
      </trkpt>
      <trkpt lat="46.78913" lon="4.7373">
        <ele>253</ele>
        <time>2014-05-08T15:45:34Z</time>
      </trkpt>
      <trkpt lat="46.78916" lon="4.73723">
        <ele>254</ele>
        <time>2014-05-08T15:45:38Z</time>
      </trkpt>
      <trkpt lat="46.78916" lon="4.73715">
        <ele>254</ele>
        <time>2014-05-08T15:45:42Z</time>
      </trkpt>
      <trkpt lat="46.78914" lon="4.7371">
        <ele>254</ele>
        <time>2014-05-08T15:45:45Z</time>
      </trkpt>
      <trkpt lat="46.7891" lon="4.73703">
        <ele>254</ele>
        <time>2014-05-08T15:45:49Z</time>
      </trkpt>
      <trkpt lat="46.78905" lon="4.73698">
        <ele>254</ele>
        <time>2014-05-08T15:45:53Z</time>
      </trkpt>
      <trkpt lat="46.78901" lon="4.73694">
        <ele>254</ele>
        <time>2014-05-08T15:45:57Z</time>
      </trkpt>
      <trkpt lat="46.78896" lon="4.73689">
        <ele>253</ele>
        <time>2014-05-08T15:46:01Z</time>
      </trkpt>
      <trkpt lat="46.78893" lon="4.73683">
        <ele>253</ele>
        <time>2014-05-08T15:46:05Z</time>
      </trkpt>
      <trkpt lat="46.78892" lon="4.73676">
        <ele>254</ele>
        <time>2014-05-08T15:46:09Z</time>
      </trkpt>
      <trkpt lat="46.78894" lon="4.73669">
        <ele>254</ele>
        <time>2014-05-08T15:46:13Z</time>
      </trkpt>
      <trkpt lat="46.78896" lon="4.73662">
        <ele>254</ele>
        <time>2014-05-08T15:46:17Z</time>
      </trkpt>
      <trkpt lat="46.78893" lon="4.73657">
        <ele>255</ele>
        <time>2014-05-08T15:46:23Z</time>
      </trkpt>
      <trkpt lat="46.78888" lon="4.73653">
        <ele>255</ele>
        <time>2014-05-08T15:46:27Z</time>
      </trkpt>
      <trkpt lat="46.78884" lon="4.7365">
        <ele>256</ele>
        <time>2014-05-08T15:46:30Z</time>
      </trkpt>
      <trkpt lat="46.78879" lon="4.73647">
        <ele>256</ele>
        <time>2014-05-08T15:46:34Z</time>
      </trkpt>
      <trkpt lat="46.78874" lon="4.73643">
        <ele>256</ele>
        <time>2014-05-08T15:46:38Z</time>
      </trkpt>
      <trkpt lat="46.7887" lon="4.73641">
        <ele>256</ele>
        <time>2014-05-08T15:46:41Z</time>
      </trkpt>
      <trkpt lat="46.78865" lon="4.73638">
        <ele>256</ele>
        <time>2014-05-08T15:46:45Z</time>
      </trkpt>
      <trkpt lat="46.7886" lon="4.73634">
        <ele>256</ele>
        <time>2014-05-08T15:46:49Z</time>
      </trkpt>
      <trkpt lat="46.78855" lon="4.73631">
        <ele>257</ele>
        <time>2014-05-08T15:46:53Z</time>
      </trkpt>
      <trkpt lat="46.78849" lon="4.73628">
        <ele>257</ele>
        <time>2014-05-08T15:46:57Z</time>
      </trkpt>
      <trkpt lat="46.78845" lon="4.73625">
        <ele>257</ele>
        <time>2014-05-08T15:47:01Z</time>
      </trkpt>
      <trkpt lat="46.7884" lon="4.73621">
        <ele>257</ele>
        <time>2014-05-08T15:47:05Z</time>
      </trkpt>
      <trkpt lat="46.78836" lon="4.73619">
        <ele>257</ele>
        <time>2014-05-08T15:47:08Z</time>
      </trkpt>
      <trkpt lat="46.78831" lon="4.73615">
        <ele>257</ele>
        <time>2014-05-08T15:47:12Z</time>
      </trkpt>
      <trkpt lat="46.78827" lon="4.73612">
        <ele>257</ele>
        <time>2014-05-08T15:47:15Z</time>
      </trkpt>
      <trkpt lat="46.78823" lon="4.73609">
        <ele>256</ele>
        <time>2014-05-08T15:47:18Z</time>
      </trkpt>
      <trkpt lat="46.78819" lon="4.73606">
        <ele>256</ele>
        <time>2014-05-08T15:47:21Z</time>
      </trkpt>
      <trkpt lat="46.78814" lon="4.73603">
        <ele>257</ele>
        <time>2014-05-08T15:47:24Z</time>
      </trkpt>
      <trkpt lat="46.78809" lon="4.736">
        <ele>257</ele>
        <time>2014-05-08T15:47:28Z</time>
      </trkpt>
      <trkpt lat="46.78803" lon="4.73598">
        <ele>257</ele>
        <time>2014-05-08T15:47:32Z</time>
      </trkpt>
      <trkpt lat="46.78798" lon="4.73597">
        <ele>257</ele>
        <time>2014-05-08T15:47:36Z</time>
      </trkpt>
      <trkpt lat="46.78793" lon="4.73596">
        <ele>256</ele>
        <time>2014-05-08T15:47:39Z</time>
      </trkpt>
      <trkpt lat="46.78789" lon="4.73596">
        <ele>256</ele>
        <time>2014-05-08T15:47:42Z</time>
      </trkpt>
      <trkpt lat="46.78783" lon="4.73594">
        <ele>257</ele>
        <time>2014-05-08T15:47:47Z</time>
      </trkpt>
      <trkpt lat="46.78779" lon="4.73592">
        <ele>257</ele>
        <time>2014-05-08T15:47:51Z</time>
      </trkpt>
      <trkpt lat="46.78774" lon="4.7359">
        <ele>257</ele>
        <time>2014-05-08T15:47:55Z</time>
      </trkpt>
      <trkpt lat="46.78769" lon="4.73588">
        <ele>257</ele>
        <time>2014-05-08T15:47:58Z</time>
      </trkpt>
      <trkpt lat="46.78765" lon="4.73587">
        <ele>257</ele>
        <time>2014-05-08T15:48:01Z</time>
      </trkpt>
      <trkpt lat="46.7876" lon="4.73586">
        <ele>257</ele>
        <time>2014-05-08T15:48:04Z</time>
      </trkpt>
      <trkpt lat="46.78756" lon="4.73585">
        <ele>256</ele>
        <time>2014-05-08T15:48:07Z</time>
      </trkpt>
      <trkpt lat="46.7875" lon="4.73584">
        <ele>256</ele>
        <time>2014-05-08T15:48:11Z</time>
      </trkpt>
      <trkpt lat="46.78746" lon="4.73583">
        <ele>256</ele>
        <time>2014-05-08T15:48:15Z</time>
      </trkpt>
      <trkpt lat="46.78741" lon="4.73582">
        <ele>255</ele>
        <time>2014-05-08T15:48:19Z</time>
      </trkpt>
      <trkpt lat="46.78739" lon="4.73584">
        <ele>255</ele>
        <time>2014-05-08T15:48:47Z</time>
      </trkpt>
      <trkpt lat="46.78735" lon="4.73581">
        <ele>255</ele>
        <time>2014-05-08T15:48:54Z</time>
      </trkpt>
      <trkpt lat="46.7873" lon="4.7358">
        <ele>255</ele>
        <time>2014-05-08T15:48:57Z</time>
      </trkpt>
      <trkpt lat="46.78725" lon="4.73579">
        <ele>255</ele>
        <time>2014-05-08T15:49:00Z</time>
      </trkpt>
      <trkpt lat="46.78721" lon="4.73578">
        <ele>255</ele>
        <time>2014-05-08T15:49:03Z</time>
      </trkpt>
      <trkpt lat="46.78716" lon="4.73576">
        <ele>254</ele>
        <time>2014-05-08T15:49:07Z</time>
      </trkpt>
      <trkpt lat="46.78711" lon="4.73576">
        <ele>254</ele>
        <time>2014-05-08T15:49:11Z</time>
      </trkpt>
      <trkpt lat="46.78706" lon="4.73575">
        <ele>253</ele>
        <time>2014-05-08T15:49:14Z</time>
      </trkpt>
      <trkpt lat="46.78702" lon="4.73575">
        <ele>253</ele>
        <time>2014-05-08T15:49:17Z</time>
      </trkpt>
      <trkpt lat="46.78697" lon="4.73574">
        <ele>253</ele>
        <time>2014-05-08T15:49:20Z</time>
      </trkpt>
      <trkpt lat="46.78692" lon="4.73573">
        <ele>252</ele>
        <time>2014-05-08T15:49:24Z</time>
      </trkpt>
      <trkpt lat="46.78687" lon="4.73572">
        <ele>252</ele>
        <time>2014-05-08T15:49:28Z</time>
      </trkpt>
      <trkpt lat="46.78681" lon="4.73569">
        <ele>252</ele>
        <time>2014-05-08T15:49:32Z</time>
      </trkpt>
      <trkpt lat="46.78676" lon="4.73566">
        <ele>252</ele>
        <time>2014-05-08T15:49:35Z</time>
      </trkpt>
      <trkpt lat="46.78672" lon="4.73562">
        <ele>252</ele>
        <time>2014-05-08T15:49:38Z</time>
      </trkpt>
      <trkpt lat="46.78668" lon="4.73559">
        <ele>252</ele>
        <time>2014-05-08T15:49:41Z</time>
      </trkpt>
      <trkpt lat="46.78665" lon="4.73554">
        <ele>252</ele>
        <time>2014-05-08T15:49:45Z</time>
      </trkpt>
      <trkpt lat="46.78666" lon="4.73546">
        <ele>253</ele>
        <time>2014-05-08T15:49:49Z</time>
      </trkpt>
      <trkpt lat="46.78667" lon="4.73539">
        <ele>254</ele>
        <time>2014-05-08T15:49:53Z</time>
      </trkpt>
      <trkpt lat="46.7867" lon="4.73533">
        <ele>255</ele>
        <time>2014-05-08T15:49:57Z</time>
      </trkpt>
      <trkpt lat="46.78672" lon="4.73527">
        <ele>255</ele>
        <time>2014-05-08T15:50:01Z</time>
      </trkpt>
      <trkpt lat="46.78674" lon="4.7352">
        <ele>255</ele>
        <time>2014-05-08T15:50:05Z</time>
      </trkpt>
      <trkpt lat="46.78677" lon="4.73515">
        <ele>256</ele>
        <time>2014-05-08T15:50:09Z</time>
      </trkpt>
      <trkpt lat="46.78679" lon="4.73508">
        <ele>256</ele>
        <time>2014-05-08T15:50:13Z</time>
      </trkpt>
      <trkpt lat="46.78681" lon="4.73502">
        <ele>257</ele>
        <time>2014-05-08T15:50:17Z</time>
      </trkpt>
      <trkpt lat="46.78684" lon="4.73496">
        <ele>258</ele>
        <time>2014-05-08T15:50:22Z</time>
      </trkpt>
      <trkpt lat="46.78685" lon="4.73489">
        <ele>259</ele>
        <time>2014-05-08T15:50:27Z</time>
      </trkpt>
      <trkpt lat="46.78686" lon="4.73481">
        <ele>260</ele>
        <time>2014-05-08T15:50:32Z</time>
      </trkpt>
      <trkpt lat="46.78688" lon="4.73474">
        <ele>261</ele>
        <time>2014-05-08T15:50:36Z</time>
      </trkpt>
      <trkpt lat="46.78689" lon="4.73468">
        <ele>262</ele>
        <time>2014-05-08T15:50:40Z</time>
      </trkpt>
      <trkpt lat="46.78691" lon="4.73461">
        <ele>262</ele>
        <time>2014-05-08T15:50:45Z</time>
      </trkpt>
      <trkpt lat="46.78693" lon="4.73454">
        <ele>264</ele>
        <time>2014-05-08T15:50:50Z</time>
      </trkpt>
      <trkpt lat="46.78695" lon="4.73448">
        <ele>265</ele>
        <time>2014-05-08T15:50:55Z</time>
      </trkpt>
      <trkpt lat="46.78698" lon="4.73441">
        <ele>266</ele>
        <time>2014-05-08T15:51:00Z</time>
      </trkpt>
      <trkpt lat="46.787" lon="4.73435">
        <ele>267</ele>
        <time>2014-05-08T15:51:05Z</time>
      </trkpt>
      <trkpt lat="46.78702" lon="4.73428">
        <ele>268</ele>
        <time>2014-05-08T15:51:12Z</time>
      </trkpt>
      <trkpt lat="46.78704" lon="4.7342">
        <ele>269</ele>
        <time>2014-05-08T15:51:18Z</time>
      </trkpt>
      <trkpt lat="46.78705" lon="4.73414">
        <ele>270</ele>
        <time>2014-05-08T15:51:24Z</time>
      </trkpt>
      <trkpt lat="46.78707" lon="4.73407">
        <ele>271</ele>
        <time>2014-05-08T15:51:30Z</time>
      </trkpt>
      <trkpt lat="46.78709" lon="4.734">
        <ele>272</ele>
        <time>2014-05-08T15:51:36Z</time>
      </trkpt>
      <trkpt lat="46.78711" lon="4.73394">
        <ele>273</ele>
        <time>2014-05-08T15:51:42Z</time>
      </trkpt>
      <trkpt lat="46.78712" lon="4.73387">
        <ele>275</ele>
        <time>2014-05-08T15:51:48Z</time>
      </trkpt>
      <trkpt lat="46.78714" lon="4.7338">
        <ele>276</ele>
        <time>2014-05-08T15:51:54Z</time>
      </trkpt>
      <trkpt lat="46.78715" lon="4.73374">
        <ele>277</ele>
        <time>2014-05-08T15:52:00Z</time>
      </trkpt>
      <trkpt lat="46.78717" lon="4.73367">
        <ele>278</ele>
        <time>2014-05-08T15:52:07Z</time>
      </trkpt>
      <trkpt lat="46.78718" lon="4.7336">
        <ele>279</ele>
        <time>2014-05-08T15:52:14Z</time>
      </trkpt>
      <trkpt lat="46.7872" lon="4.73354">
        <ele>281</ele>
        <time>2014-05-08T15:52:21Z</time>
      </trkpt>
      <trkpt lat="46.78721" lon="4.73348">
        <ele>283</ele>
        <time>2014-05-08T15:52:28Z</time>
      </trkpt>
      <trkpt lat="46.78722" lon="4.7334">
        <ele>284</ele>
        <time>2014-05-08T15:52:35Z</time>
      </trkpt>
      <trkpt lat="46.78724" lon="4.73334">
        <ele>285</ele>
        <time>2014-05-08T15:52:42Z</time>
      </trkpt>
      <trkpt lat="46.78726" lon="4.73328">
        <ele>287</ele>
        <time>2014-05-08T15:52:48Z</time>
      </trkpt>
      <trkpt lat="46.78728" lon="4.73321">
        <ele>288</ele>
        <time>2014-05-08T15:52:55Z</time>
      </trkpt>
      <trkpt lat="46.7873" lon="4.73314">
        <ele>290</ele>
        <time>2014-05-08T15:53:02Z</time>
      </trkpt>
      <trkpt lat="46.78733" lon="4.73308">
        <ele>291</ele>
        <time>2014-05-08T15:53:08Z</time>
      </trkpt>
      <trkpt lat="46.78734" lon="4.73301">
        <ele>292</ele>
        <time>2014-05-08T15:53:15Z</time>
      </trkpt>
      <trkpt lat="46.78735" lon="4.73295">
        <ele>294</ele>
        <time>2014-05-08T15:53:22Z</time>
      </trkpt>
      <trkpt lat="46.78737" lon="4.73288">
        <ele>296</ele>
        <time>2014-05-08T15:53:29Z</time>
      </trkpt>
      <trkpt lat="46.78739" lon="4.73282">
        <ele>296</ele>
        <time>2014-05-08T15:53:34Z</time>
      </trkpt>
      <trkpt lat="46.78741" lon="4.73276">
        <ele>298</ele>
        <time>2014-05-08T15:53:40Z</time>
      </trkpt>
      <trkpt lat="46.78743" lon="4.7327">
        <ele>299</ele>
        <time>2014-05-08T15:53:46Z</time>
      </trkpt>
      <trkpt lat="46.78745" lon="4.73263">
        <ele>301</ele>
        <time>2014-05-08T15:53:53Z</time>
      </trkpt>
      <trkpt lat="46.78747" lon="4.73257">
        <ele>302</ele>
        <time>2014-05-08T15:54:00Z</time>
      </trkpt>
      <trkpt lat="46.78749" lon="4.7325">
        <ele>303</ele>
        <time>2014-05-08T15:54:07Z</time>
      </trkpt>
      <trkpt lat="46.78751" lon="4.73244">
        <ele>304</ele>
        <time>2014-05-08T15:54:12Z</time>
      </trkpt>
      <trkpt lat="46.78753" lon="4.73238">
        <ele>305</ele>
        <time>2014-05-08T15:54:18Z</time>
      </trkpt>
      <trkpt lat="46.78756" lon="4.73231">
        <ele>306</ele>
        <time>2014-05-08T15:54:24Z</time>
      </trkpt>
      <trkpt lat="46.78758" lon="4.73225">
        <ele>306</ele>
        <time>2014-05-08T15:54:30Z</time>
      </trkpt>
      <trkpt lat="46.78759" lon="4.73218">
        <ele>308</ele>
        <time>2014-05-08T15:54:36Z</time>
      </trkpt>
      <trkpt lat="46.78759" lon="4.73211">
        <ele>308</ele>
        <time>2014-05-08T15:54:42Z</time>
      </trkpt>
      <trkpt lat="46.78759" lon="4.73203">
        <ele>310</ele>
        <time>2014-05-08T15:54:50Z</time>
      </trkpt>
      <trkpt lat="46.78759" lon="4.73197">
        <ele>312</ele>
        <time>2014-05-08T15:54:57Z</time>
      </trkpt>
      <trkpt lat="46.78758" lon="4.7319">
        <ele>312</ele>
        <time>2014-05-08T15:55:03Z</time>
      </trkpt>
      <trkpt lat="46.78754" lon="4.73185">
        <ele>313</ele>
        <time>2014-05-08T15:55:09Z</time>
      </trkpt>
      <trkpt lat="46.78751" lon="4.7318">
        <ele>314</ele>
        <time>2014-05-08T15:55:16Z</time>
      </trkpt>
      <trkpt lat="46.78749" lon="4.73174">
        <ele>316</ele>
        <time>2014-05-08T15:55:22Z</time>
      </trkpt>
      <trkpt lat="46.78745" lon="4.73168">
        <ele>317</ele>
        <time>2014-05-08T15:55:28Z</time>
      </trkpt>
      <trkpt lat="46.78742" lon="4.73163">
        <ele>318</ele>
        <time>2014-05-08T15:55:34Z</time>
      </trkpt>
      <trkpt lat="46.78738" lon="4.73158">
        <ele>318</ele>
        <time>2014-05-08T15:55:39Z</time>
      </trkpt>
      <trkpt lat="46.78734" lon="4.73154">
        <ele>318</ele>
        <time>2014-05-08T15:55:45Z</time>
      </trkpt>
      <trkpt lat="46.78731" lon="4.73148">
        <ele>318</ele>
        <time>2014-05-08T15:55:51Z</time>
      </trkpt>
      <trkpt lat="46.78728" lon="4.73143">
        <ele>318</ele>
        <time>2014-05-08T15:55:55Z</time>
      </trkpt>
      <trkpt lat="46.78724" lon="4.73139">
        <ele>318</ele>
        <time>2014-05-08T15:56:00Z</time>
      </trkpt>
      <trkpt lat="46.78721" lon="4.73134">
        <ele>318</ele>
        <time>2014-05-08T15:56:05Z</time>
      </trkpt>
      <trkpt lat="46.78719" lon="4.73127">
        <ele>318</ele>
        <time>2014-05-08T15:56:10Z</time>
      </trkpt>
      <trkpt lat="46.78717" lon="4.7312">
        <ele>318</ele>
        <time>2014-05-08T15:56:15Z</time>
      </trkpt>
      <trkpt lat="46.78716" lon="4.73112">
        <ele>318</ele>
        <time>2014-05-08T15:56:20Z</time>
      </trkpt>
      <trkpt lat="46.78714" lon="4.73106">
        <ele>318</ele>
        <time>2014-05-08T15:56:25Z</time>
      </trkpt>
      <trkpt lat="46.78711" lon="4.73099">
        <ele>318</ele>
        <time>2014-05-08T15:56:30Z</time>
      </trkpt>
      <trkpt lat="46.78709" lon="4.73092">
        <ele>319</ele>
        <time>2014-05-08T15:56:35Z</time>
      </trkpt>
      <trkpt lat="46.78706" lon="4.73086">
        <ele>319</ele>
        <time>2014-05-08T15:56:39Z</time>
      </trkpt>
      <trkpt lat="46.78705" lon="4.73079">
        <ele>320</ele>
        <time>2014-05-08T15:56:44Z</time>
      </trkpt>
      <trkpt lat="46.78704" lon="4.73072">
        <ele>322</ele>
        <time>2014-05-08T15:56:50Z</time>
      </trkpt>
      <trkpt lat="46.78702" lon="4.73065">
        <ele>324</ele>
        <time>2014-05-08T15:56:54Z</time>
      </trkpt>
      <trkpt lat="46.787" lon="4.73059">
        <ele>326</ele>
        <time>2014-05-08T15:56:58Z</time>
      </trkpt>
      <trkpt lat="46.78698" lon="4.73053">
        <ele>328</ele>
        <time>2014-05-08T15:57:02Z</time>
      </trkpt>
      <trkpt lat="46.78695" lon="4.73046">
        <ele>331</ele>
        <time>2014-05-08T15:57:06Z</time>
      </trkpt>
      <trkpt lat="46.78692" lon="4.73039">
        <ele>332</ele>
        <time>2014-05-08T15:57:10Z</time>
      </trkpt>
      <trkpt lat="46.7869" lon="4.73032">
        <ele>333</ele>
        <time>2014-05-08T15:57:14Z</time>
      </trkpt>
      <trkpt lat="46.78689" lon="4.73025">
        <ele>335</ele>
        <time>2014-05-08T15:57:18Z</time>
      </trkpt>
      <trkpt lat="46.78688" lon="4.73018">
        <ele>336</ele>
        <time>2014-05-08T15:57:22Z</time>
      </trkpt>
      <trkpt lat="46.78686" lon="4.73011">
        <ele>337</ele>
        <time>2014-05-08T15:57:27Z</time>
      </trkpt>
      <trkpt lat="46.78685" lon="4.73003">
        <ele>338</ele>
        <time>2014-05-08T15:57:32Z</time>
      </trkpt>
      <trkpt lat="46.78684" lon="4.72996">
        <ele>339</ele>
        <time>2014-05-08T15:57:36Z</time>
      </trkpt>
      <trkpt lat="46.78685" lon="4.7299">
        <ele>340</ele>
        <time>2014-05-08T15:57:40Z</time>
      </trkpt>
      <trkpt lat="46.78687" lon="4.72983">
        <ele>340</ele>
        <time>2014-05-08T15:57:44Z</time>
      </trkpt>
      <trkpt lat="46.78686" lon="4.72976">
        <ele>341</ele>
        <time>2014-05-08T15:57:48Z</time>
      </trkpt>
      <trkpt lat="46.78684" lon="4.7297">
        <ele>341</ele>
        <time>2014-05-08T15:57:54Z</time>
      </trkpt>
      <trkpt lat="46.78684" lon="4.7297">
        <ele>341</ele>
        <time>2014-05-08T15:58:17Z</time>
      </trkpt>
      <trkpt lat="46.78687" lon="4.72966">
        <ele>343</ele>
        <time>2014-05-08T15:58:29Z</time>
      </trkpt>
      <trkpt lat="46.7869" lon="4.72959">
        <ele>345</ele>
        <time>2014-05-08T15:58:34Z</time>
      </trkpt>
      <trkpt lat="46.7869" lon="4.72952">
        <ele>345</ele>
        <time>2014-05-08T15:58:38Z</time>
      </trkpt>
      <trkpt lat="46.78692" lon="4.72945">
        <ele>346</ele>
        <time>2014-05-08T15:58:42Z</time>
      </trkpt>
      <trkpt lat="46.78693" lon="4.72938">
        <ele>347</ele>
        <time>2014-05-08T15:58:46Z</time>
      </trkpt>
      <trkpt lat="46.78694" lon="4.72931">
        <ele>348</ele>
        <time>2014-05-08T15:58:50Z</time>
      </trkpt>
      <trkpt lat="46.78696" lon="4.72923">
        <ele>348</ele>
        <time>2014-05-08T15:58:54Z</time>
      </trkpt>
      <trkpt lat="46.78697" lon="4.72916">
        <ele>348</ele>
        <time>2014-05-08T15:58:58Z</time>
      </trkpt>
      <trkpt lat="46.787" lon="4.72909">
        <ele>350</ele>
        <time>2014-05-08T15:59:02Z</time>
      </trkpt>
      <trkpt lat="46.78701" lon="4.72901">
        <ele>350</ele>
        <time>2014-05-08T15:59:06Z</time>
      </trkpt>
      <trkpt lat="46.78702" lon="4.72894">
        <ele>350</ele>
        <time>2014-05-08T15:59:10Z</time>
      </trkpt>
      <trkpt lat="46.78703" lon="4.72887">
        <ele>351</ele>
        <time>2014-05-08T15:59:14Z</time>
      </trkpt>
      <trkpt lat="46.78703" lon="4.7288">
        <ele>351</ele>
        <time>2014-05-08T15:59:18Z</time>
      </trkpt>
      <trkpt lat="46.78704" lon="4.72873">
        <ele>352</ele>
        <time>2014-05-08T15:59:22Z</time>
      </trkpt>
      <trkpt lat="46.78704" lon="4.72866">
        <ele>352</ele>
        <time>2014-05-08T15:59:26Z</time>
      </trkpt>
      <trkpt lat="46.78705" lon="4.72858">
        <ele>353</ele>
        <time>2014-05-08T15:59:31Z</time>
      </trkpt>
      <trkpt lat="46.78707" lon="4.72851">
        <ele>353</ele>
        <time>2014-05-08T15:59:36Z</time>
      </trkpt>
      <trkpt lat="46.7871" lon="4.72844">
        <ele>353</ele>
        <time>2014-05-08T15:59:41Z</time>
      </trkpt>
      <trkpt lat="46.78712" lon="4.72837">
        <ele>354</ele>
        <time>2014-05-08T15:59:45Z</time>
      </trkpt>
      <trkpt lat="46.78713" lon="4.7283">
        <ele>354</ele>
        <time>2014-05-08T15:59:50Z</time>
      </trkpt>
      <trkpt lat="46.78713" lon="4.72816">
        <ele>357</ele>
        <time>2014-05-08T16:00:02Z</time>
      </trkpt>
      <trkpt lat="46.78714" lon="4.72808">
        <ele>358</ele>
        <time>2014-05-08T16:00:08Z</time>
      </trkpt>
      <trkpt lat="46.78715" lon="4.72802">
        <ele>359</ele>
        <time>2014-05-08T16:00:12Z</time>
      </trkpt>
      <trkpt lat="46.78716" lon="4.72794">
        <ele>360</ele>
        <time>2014-05-08T16:00:16Z</time>
      </trkpt>
      <trkpt lat="46.78717" lon="4.72786">
        <ele>362</ele>
        <time>2014-05-08T16:00:20Z</time>
      </trkpt>
      <trkpt lat="46.78718" lon="4.72778">
        <ele>362</ele>
        <time>2014-05-08T16:00:24Z</time>
      </trkpt>
      <trkpt lat="46.78719" lon="4.7277">
        <ele>363</ele>
        <time>2014-05-08T16:00:28Z</time>
      </trkpt>
      <trkpt lat="46.78719" lon="4.72762">
        <ele>363</ele>
        <time>2014-05-08T16:00:32Z</time>
      </trkpt>
      <trkpt lat="46.78718" lon="4.72755">
        <ele>364</ele>
        <time>2014-05-08T16:00:36Z</time>
      </trkpt>
      <trkpt lat="46.78717" lon="4.72748">
        <ele>365</ele>
        <time>2014-05-08T16:00:40Z</time>
      </trkpt>
      <trkpt lat="46.78719" lon="4.72741">
        <ele>366</ele>
        <time>2014-05-08T16:00:44Z</time>
      </trkpt>
      <trkpt lat="46.78721" lon="4.72734">
        <ele>367</ele>
        <time>2014-05-08T16:00:48Z</time>
      </trkpt>
      <trkpt lat="46.78723" lon="4.72727">
        <ele>367</ele>
        <time>2014-05-08T16:00:53Z</time>
      </trkpt>
      <trkpt lat="46.78724" lon="4.7272">
        <ele>367</ele>
        <time>2014-05-08T16:00:58Z</time>
      </trkpt>
      <trkpt lat="46.78725" lon="4.72714">
        <ele>366</ele>
        <time>2014-05-08T16:01:02Z</time>
      </trkpt>
      <trkpt lat="46.78727" lon="4.72707">
        <ele>366</ele>
        <time>2014-05-08T16:01:06Z</time>
      </trkpt>
      <trkpt lat="46.78729" lon="4.72701">
        <ele>366</ele>
        <time>2014-05-08T16:01:10Z</time>
      </trkpt>
      <trkpt lat="46.7873" lon="4.72693">
        <ele>366</ele>
        <time>2014-05-08T16:01:14Z</time>
      </trkpt>
      <trkpt lat="46.7873" lon="4.72685">
        <ele>366</ele>
        <time>2014-05-08T16:01:17Z</time>
      </trkpt>
      <trkpt lat="46.78732" lon="4.72679">
        <ele>365</ele>
        <time>2014-05-08T16:01:20Z</time>
      </trkpt>
      <trkpt lat="46.78734" lon="4.72672">
        <ele>365</ele>
        <time>2014-05-08T16:01:23Z</time>
      </trkpt>
      <trkpt lat="46.78735" lon="4.72665">
        <ele>364</ele>
        <time>2014-05-08T16:01:26Z</time>
      </trkpt>
      <trkpt lat="46.78737" lon="4.72659">
        <ele>364</ele>
        <time>2014-05-08T16:01:29Z</time>
      </trkpt>
      <trkpt lat="46.78739" lon="4.72652">
        <ele>363</ele>
        <time>2014-05-08T16:01:33Z</time>
      </trkpt>
      <trkpt lat="46.7874" lon="4.72645">
        <ele>362</ele>
        <time>2014-05-08T16:01:36Z</time>
      </trkpt>
      <trkpt lat="46.7874" lon="4.72637">
        <ele>361</ele>
        <time>2014-05-08T16:01:39Z</time>
      </trkpt>
      <trkpt lat="46.78742" lon="4.7263">
        <ele>361</ele>
        <time>2014-05-08T16:01:42Z</time>
      </trkpt>
      <trkpt lat="46.78743" lon="4.72622">
        <ele>362</ele>
        <time>2014-05-08T16:01:46Z</time>
      </trkpt>
      <trkpt lat="46.78743" lon="4.72614">
        <ele>363</ele>
        <time>2014-05-08T16:01:50Z</time>
      </trkpt>
      <trkpt lat="46.78743" lon="4.72607">
        <ele>363</ele>
        <time>2014-05-08T16:01:54Z</time>
      </trkpt>
      <trkpt lat="46.78743" lon="4.726">
        <ele>363</ele>
        <time>2014-05-08T16:01:58Z</time>
      </trkpt>
      <trkpt lat="46.78744" lon="4.72591">
        <ele>363</ele>
        <time>2014-05-08T16:02:01Z</time>
      </trkpt>
      <trkpt lat="46.78745" lon="4.72583">
        <ele>363</ele>
        <time>2014-05-08T16:02:03Z</time>
      </trkpt>
      <trkpt lat="46.78746" lon="4.72574">
        <ele>364</ele>
        <time>2014-05-08T16:02:05Z</time>
      </trkpt>
      <trkpt lat="46.78749" lon="4.72564">
        <ele>365</ele>
        <time>2014-05-08T16:02:07Z</time>
      </trkpt>
      <trkpt lat="46.78751" lon="4.72555">
        <ele>366</ele>
        <time>2014-05-08T16:02:09Z</time>
      </trkpt>
      <trkpt lat="46.78753" lon="4.72549">
        <ele>367</ele>
        <time>2014-05-08T16:02:11Z</time>
      </trkpt>
      <trkpt lat="46.78755" lon="4.72542">
        <ele>368</ele>
        <time>2014-05-08T16:02:14Z</time>
      </trkpt>
      <trkpt lat="46.78759" lon="4.72534">
        <ele>368</ele>
        <time>2014-05-08T16:02:17Z</time>
      </trkpt>
      <trkpt lat="46.78761" lon="4.72527">
        <ele>369</ele>
        <time>2014-05-08T16:02:20Z</time>
      </trkpt>
      <trkpt lat="46.78763" lon="4.7252">
        <ele>369</ele>
        <time>2014-05-08T16:02:23Z</time>
      </trkpt>
      <trkpt lat="46.78766" lon="4.72513">
        <ele>370</ele>
        <time>2014-05-08T16:02:26Z</time>
      </trkpt>
      <trkpt lat="46.78768" lon="4.72506">
        <ele>371</ele>
        <time>2014-05-08T16:02:29Z</time>
      </trkpt>
      <trkpt lat="46.7877" lon="4.72499">
        <ele>372</ele>
        <time>2014-05-08T16:02:32Z</time>
      </trkpt>
      <trkpt lat="46.78773" lon="4.72493">
        <ele>372</ele>
        <time>2014-05-08T16:02:35Z</time>
      </trkpt>
      <trkpt lat="46.78776" lon="4.72487">
        <ele>373</ele>
        <time>2014-05-08T16:02:38Z</time>
      </trkpt>
      <trkpt lat="46.78779" lon="4.72479">
        <ele>374</ele>
        <time>2014-05-08T16:02:42Z</time>
      </trkpt>
      <trkpt lat="46.7878" lon="4.72473">
        <ele>374</ele>
        <time>2014-05-08T16:02:45Z</time>
      </trkpt>
      <trkpt lat="46.78781" lon="4.72466">
        <ele>375</ele>
        <time>2014-05-08T16:02:48Z</time>
      </trkpt>
      <trkpt lat="46.78782" lon="4.72459">
        <ele>375</ele>
        <time>2014-05-08T16:02:51Z</time>
      </trkpt>
      <trkpt lat="46.78784" lon="4.72453">
        <ele>375</ele>
        <time>2014-05-08T16:02:54Z</time>
      </trkpt>
      <trkpt lat="46.78786" lon="4.72445">
        <ele>375</ele>
        <time>2014-05-08T16:02:58Z</time>
      </trkpt>
      <trkpt lat="46.78788" lon="4.72438">
        <ele>376</ele>
        <time>2014-05-08T16:03:02Z</time>
      </trkpt>
      <trkpt lat="46.7879" lon="4.7243">
        <ele>376</ele>
        <time>2014-05-08T16:03:06Z</time>
      </trkpt>
      <trkpt lat="46.78791" lon="4.72423">
        <ele>377</ele>
        <time>2014-05-08T16:03:10Z</time>
      </trkpt>
      <trkpt lat="46.78792" lon="4.72415">
        <ele>378</ele>
        <time>2014-05-08T16:03:14Z</time>
      </trkpt>
      <trkpt lat="46.78794" lon="4.72408">
        <ele>379</ele>
        <time>2014-05-08T16:03:18Z</time>
      </trkpt>
      <trkpt lat="46.78796" lon="4.72401">
        <ele>380</ele>
        <time>2014-05-08T16:03:22Z</time>
      </trkpt>
      <trkpt lat="46.78798" lon="4.72394">
        <ele>380</ele>
        <time>2014-05-08T16:03:26Z</time>
      </trkpt>
      <trkpt lat="46.78799" lon="4.72387">
        <ele>381</ele>
        <time>2014-05-08T16:03:30Z</time>
      </trkpt>
      <trkpt lat="46.78799" lon="4.72379">
        <ele>381</ele>
        <time>2014-05-08T16:03:34Z</time>
      </trkpt>
      <trkpt lat="46.788" lon="4.72372">
        <ele>382</ele>
        <time>2014-05-08T16:03:37Z</time>
      </trkpt>
      <trkpt lat="46.78802" lon="4.72365">
        <ele>382</ele>
        <time>2014-05-08T16:03:40Z</time>
      </trkpt>
      <trkpt lat="46.78804" lon="4.72358">
        <ele>383</ele>
        <time>2014-05-08T16:03:44Z</time>
      </trkpt>
      <trkpt lat="46.78805" lon="4.72351">
        <ele>384</ele>
        <time>2014-05-08T16:03:48Z</time>
      </trkpt>
      <trkpt lat="46.78806" lon="4.72344">
        <ele>385</ele>
        <time>2014-05-08T16:03:52Z</time>
      </trkpt>
      <trkpt lat="46.78807" lon="4.72336">
        <ele>386</ele>
        <time>2014-05-08T16:03:56Z</time>
      </trkpt>
      <trkpt lat="46.78807" lon="4.72328">
        <ele>386</ele>
        <time>2014-05-08T16:04:00Z</time>
      </trkpt>
      <trkpt lat="46.78808" lon="4.7232">
        <ele>386</ele>
        <time>2014-05-08T16:04:04Z</time>
      </trkpt>
      <trkpt lat="46.78809" lon="4.72312">
        <ele>385</ele>
        <time>2014-05-08T16:04:08Z</time>
      </trkpt>
      <trkpt lat="46.78809" lon="4.72304">
        <ele>384</ele>
        <time>2014-05-08T16:04:12Z</time>
      </trkpt>
      <trkpt lat="46.78809" lon="4.72296">
        <ele>384</ele>
        <time>2014-05-08T16:04:15Z</time>
      </trkpt>
      <trkpt lat="46.78809" lon="4.72289">
        <ele>384</ele>
        <time>2014-05-08T16:04:18Z</time>
      </trkpt>
      <trkpt lat="46.78809" lon="4.72281">
        <ele>384</ele>
        <time>2014-05-08T16:04:21Z</time>
      </trkpt>
      <trkpt lat="46.78809" lon="4.72274">
        <ele>384</ele>
        <time>2014-05-08T16:04:24Z</time>
      </trkpt>
      <trkpt lat="46.78809" lon="4.72266">
        <ele>384</ele>
        <time>2014-05-08T16:04:27Z</time>
      </trkpt>
      <trkpt lat="46.78809" lon="4.72259">
        <ele>384</ele>
        <time>2014-05-08T16:04:30Z</time>
      </trkpt>
      <trkpt lat="46.78807" lon="4.72253">
        <ele>384</ele>
        <time>2014-05-08T16:04:33Z</time>
      </trkpt>
      <trkpt lat="46.78804" lon="4.72246">
        <ele>384</ele>
        <time>2014-05-08T16:04:37Z</time>
      </trkpt>
      <trkpt lat="46.78801" lon="4.72241">
        <ele>382</ele>
        <time>2014-05-08T16:04:41Z</time>
      </trkpt>
      <trkpt lat="46.78797" lon="4.72238">
        <ele>381</ele>
        <time>2014-05-08T16:04:45Z</time>
      </trkpt>
      <trkpt lat="46.78793" lon="4.72234">
        <ele>381</ele>
        <time>2014-05-08T16:04:49Z</time>
      </trkpt>
      <trkpt lat="46.78789" lon="4.72229">
        <ele>381</ele>
        <time>2014-05-08T16:04:53Z</time>
      </trkpt>
      <trkpt lat="46.78793" lon="4.72224">
        <ele>381</ele>
        <time>2014-05-08T16:05:00Z</time>
      </trkpt>
      <trkpt lat="46.78797" lon="4.7222">
        <ele>380</ele>
        <time>2014-05-08T16:05:05Z</time>
      </trkpt>
      <trkpt lat="46.78801" lon="4.72215">
        <ele>380</ele>
        <time>2014-05-08T16:05:09Z</time>
      </trkpt>
      <trkpt lat="46.78804" lon="4.72208">
        <ele>380</ele>
        <time>2014-05-08T16:05:13Z</time>
      </trkpt>
      <trkpt lat="46.78805" lon="4.72201">
        <ele>381</ele>
        <time>2014-05-08T16:05:16Z</time>
      </trkpt>
      <trkpt lat="46.78807" lon="4.72194">
        <ele>381</ele>
        <time>2014-05-08T16:05:19Z</time>
      </trkpt>
      <trkpt lat="46.78808" lon="4.72187">
        <ele>381</ele>
        <time>2014-05-08T16:05:22Z</time>
      </trkpt>
      <trkpt lat="46.78809" lon="4.7218">
        <ele>381</ele>
        <time>2014-05-08T16:05:25Z</time>
      </trkpt>
      <trkpt lat="46.7881" lon="4.72171">
        <ele>382</ele>
        <time>2014-05-08T16:05:29Z</time>
      </trkpt>
      <trkpt lat="46.7881" lon="4.72164">
        <ele>381</ele>
        <time>2014-05-08T16:05:32Z</time>
      </trkpt>
      <trkpt lat="46.7881" lon="4.72157">
        <ele>381</ele>
        <time>2014-05-08T16:05:35Z</time>
      </trkpt>
      <trkpt lat="46.78811" lon="4.72149">
        <ele>381</ele>
        <time>2014-05-08T16:05:39Z</time>
      </trkpt>
      <trkpt lat="46.78811" lon="4.72141">
        <ele>381</ele>
        <time>2014-05-08T16:05:43Z</time>
      </trkpt>
      <trkpt lat="46.78811" lon="4.72134">
        <ele>382</ele>
        <time>2014-05-08T16:05:47Z</time>
      </trkpt>
      <trkpt lat="46.7881" lon="4.72127">
        <ele>382</ele>
        <time>2014-05-08T16:05:51Z</time>
      </trkpt>
      <trkpt lat="46.7881" lon="4.72119">
        <ele>382</ele>
        <time>2014-05-08T16:05:55Z</time>
      </trkpt>
      <trkpt lat="46.78811" lon="4.72112">
        <ele>383</ele>
        <time>2014-05-08T16:05:59Z</time>
      </trkpt>
      <trkpt lat="46.78812" lon="4.72104">
        <ele>383</ele>
        <time>2014-05-08T16:06:03Z</time>
      </trkpt>
      <trkpt lat="46.78812" lon="4.72096">
        <ele>383</ele>
        <time>2014-05-08T16:06:07Z</time>
      </trkpt>
      <trkpt lat="46.78814" lon="4.72088">
        <ele>383</ele>
        <time>2014-05-08T16:06:11Z</time>
      </trkpt>
      <trkpt lat="46.78815" lon="4.72079">
        <ele>384</ele>
        <time>2014-05-08T16:06:15Z</time>
      </trkpt>
      <trkpt lat="46.78816" lon="4.72072">
        <ele>384</ele>
        <time>2014-05-08T16:06:19Z</time>
      </trkpt>
      <trkpt lat="46.78817" lon="4.72065">
        <ele>385</ele>
        <time>2014-05-08T16:06:23Z</time>
      </trkpt>
      <trkpt lat="46.78817" lon="4.72057">
        <ele>385</ele>
        <time>2014-05-08T16:06:27Z</time>
      </trkpt>
      <trkpt lat="46.78818" lon="4.72049">
        <ele>385</ele>
        <time>2014-05-08T16:06:31Z</time>
      </trkpt>
      <trkpt lat="46.78818" lon="4.7204">
        <ele>385</ele>
        <time>2014-05-08T16:06:35Z</time>
      </trkpt>
      <trkpt lat="46.78819" lon="4.72034">
        <ele>385</ele>
        <time>2014-05-08T16:06:38Z</time>
      </trkpt>
      <trkpt lat="46.78819" lon="4.72026">
        <ele>385</ele>
        <time>2014-05-08T16:06:41Z</time>
      </trkpt>
      <trkpt lat="46.7882" lon="4.72019">
        <ele>384</ele>
        <time>2014-05-08T16:06:44Z</time>
      </trkpt>
      <trkpt lat="46.78821" lon="4.72012">
        <ele>384</ele>
        <time>2014-05-08T16:06:47Z</time>
      </trkpt>
      <trkpt lat="46.78822" lon="4.72005">
        <ele>384</ele>
        <time>2014-05-08T16:06:50Z</time>
      </trkpt>
      <trkpt lat="46.78822" lon="4.71997">
        <ele>384</ele>
        <time>2014-05-08T16:06:54Z</time>
      </trkpt>
      <trkpt lat="46.78822" lon="4.7199">
        <ele>384</ele>
        <time>2014-05-08T16:06:58Z</time>
      </trkpt>
      <trkpt lat="46.78822" lon="4.71981">
        <ele>383</ele>
        <time>2014-05-08T16:07:02Z</time>
      </trkpt>
      <trkpt lat="46.78824" lon="4.71974">
        <ele>383</ele>
        <time>2014-05-08T16:07:05Z</time>
      </trkpt>
      <trkpt lat="46.78824" lon="4.71967">
        <ele>383</ele>
        <time>2014-05-08T16:07:08Z</time>
      </trkpt>
      <trkpt lat="46.78824" lon="4.7196">
        <ele>382</ele>
        <time>2014-05-08T16:07:12Z</time>
      </trkpt>
      <trkpt lat="46.78824" lon="4.71952">
        <ele>382</ele>
        <time>2014-05-08T16:07:16Z</time>
      </trkpt>
      <trkpt lat="46.78825" lon="4.71944">
        <ele>381</ele>
        <time>2014-05-08T16:07:21Z</time>
      </trkpt>
      <trkpt lat="46.78825" lon="4.71935">
        <ele>381</ele>
        <time>2014-05-08T16:07:25Z</time>
      </trkpt>
      <trkpt lat="46.78826" lon="4.71927">
        <ele>380</ele>
        <time>2014-05-08T16:07:29Z</time>
      </trkpt>
      <trkpt lat="46.78826" lon="4.7192">
        <ele>380</ele>
        <time>2014-05-08T16:07:33Z</time>
      </trkpt>
      <trkpt lat="46.78827" lon="4.71912">
        <ele>379</ele>
        <time>2014-05-08T16:07:37Z</time>
      </trkpt>
      <trkpt lat="46.78828" lon="4.71905">
        <ele>379</ele>
        <time>2014-05-08T16:07:40Z</time>
      </trkpt>
      <trkpt lat="46.7883" lon="4.71898">
        <ele>380</ele>
        <time>2014-05-08T16:07:44Z</time>
      </trkpt>
      <trkpt lat="46.78831" lon="4.7189">
        <ele>380</ele>
        <time>2014-05-08T16:07:48Z</time>
      </trkpt>
      <trkpt lat="46.78832" lon="4.71883">
        <ele>381</ele>
        <time>2014-05-08T16:07:52Z</time>
      </trkpt>
      <trkpt lat="46.78832" lon="4.71875">
        <ele>381</ele>
        <time>2014-05-08T16:07:57Z</time>
      </trkpt>
      <trkpt lat="46.78833" lon="4.71867">
        <ele>380</ele>
        <time>2014-05-08T16:08:02Z</time>
      </trkpt>
      <trkpt lat="46.78834" lon="4.7186">
        <ele>379</ele>
        <time>2014-05-08T16:08:06Z</time>
      </trkpt>
      <trkpt lat="46.78834" lon="4.71852">
        <ele>377</ele>
        <time>2014-05-08T16:08:10Z</time>
      </trkpt>
      <trkpt lat="46.78833" lon="4.71845">
        <ele>376</ele>
        <time>2014-05-08T16:08:14Z</time>
      </trkpt>
      <trkpt lat="46.78832" lon="4.71837">
        <ele>376</ele>
        <time>2014-05-08T16:08:18Z</time>
      </trkpt>
      <trkpt lat="46.78831" lon="4.7183">
        <ele>376</ele>
        <time>2014-05-08T16:08:22Z</time>
      </trkpt>
      <trkpt lat="46.78831" lon="4.71823">
        <ele>376</ele>
        <time>2014-05-08T16:08:26Z</time>
      </trkpt>
      <trkpt lat="46.78834" lon="4.71816">
        <ele>376</ele>
        <time>2014-05-08T16:08:30Z</time>
      </trkpt>
      <trkpt lat="46.78836" lon="4.71808">
        <ele>376</ele>
        <time>2014-05-08T16:08:34Z</time>
      </trkpt>
      <trkpt lat="46.78836" lon="4.71801">
        <ele>376</ele>
        <time>2014-05-08T16:08:37Z</time>
      </trkpt>
      <trkpt lat="46.78837" lon="4.71793">
        <ele>375</ele>
        <time>2014-05-08T16:08:40Z</time>
      </trkpt>
      <trkpt lat="46.78837" lon="4.71786">
        <ele>374</ele>
        <time>2014-05-08T16:08:43Z</time>
      </trkpt>
      <trkpt lat="46.78837" lon="4.71779">
        <ele>373</ele>
        <time>2014-05-08T16:08:46Z</time>
      </trkpt>
      <trkpt lat="46.78838" lon="4.71772">
        <ele>373</ele>
        <time>2014-05-08T16:08:49Z</time>
      </trkpt>
      <trkpt lat="46.78836" lon="4.71765">
        <ele>373</ele>
        <time>2014-05-08T16:08:52Z</time>
      </trkpt>
      <trkpt lat="46.78835" lon="4.71758">
        <ele>372</ele>
        <time>2014-05-08T16:08:55Z</time>
      </trkpt>
      <trkpt lat="46.78834" lon="4.7175">
        <ele>370</ele>
        <time>2014-05-08T16:08:59Z</time>
      </trkpt>
      <trkpt lat="46.78833" lon="4.71743">
        <ele>370</ele>
        <time>2014-05-08T16:09:03Z</time>
      </trkpt>
      <trkpt lat="46.78832" lon="4.71736">
        <ele>370</ele>
        <time>2014-05-08T16:09:07Z</time>
      </trkpt>
      <trkpt lat="46.78831" lon="4.71729">
        <ele>370</ele>
        <time>2014-05-08T16:09:11Z</time>
      </trkpt>
      <trkpt lat="46.7883" lon="4.71722">
        <ele>369</ele>
        <time>2014-05-08T16:09:15Z</time>
      </trkpt>
      <trkpt lat="46.78828" lon="4.71715">
        <ele>368</ele>
        <time>2014-05-08T16:09:19Z</time>
      </trkpt>
      <trkpt lat="46.78827" lon="4.71708">
        <ele>368</ele>
        <time>2014-05-08T16:09:23Z</time>
      </trkpt>
      <trkpt lat="46.78825" lon="4.71701">
        <ele>368</ele>
        <time>2014-05-08T16:09:28Z</time>
      </trkpt>
      <trkpt lat="46.78825" lon="4.71694">
        <ele>367</ele>
        <time>2014-05-08T16:09:33Z</time>
      </trkpt>
      <trkpt lat="46.78825" lon="4.71686">
        <ele>366</ele>
        <time>2014-05-08T16:09:39Z</time>
      </trkpt>
      <trkpt lat="46.78825" lon="4.71678">
        <ele>366</ele>
        <time>2014-05-08T16:09:44Z</time>
      </trkpt>
      <trkpt lat="46.78825" lon="4.7167">
        <ele>366</ele>
        <time>2014-05-08T16:09:49Z</time>
      </trkpt>
      <trkpt lat="46.78826" lon="4.71662">
        <ele>367</ele>
        <time>2014-05-08T16:09:54Z</time>
      </trkpt>
      <trkpt lat="46.78828" lon="4.71655">
        <ele>367</ele>
        <time>2014-05-08T16:09:58Z</time>
      </trkpt>
      <trkpt lat="46.78829" lon="4.71648">
        <ele>367</ele>
        <time>2014-05-08T16:10:02Z</time>
      </trkpt>
      <trkpt lat="46.7883" lon="4.71641">
        <ele>368</ele>
        <time>2014-05-08T16:10:07Z</time>
      </trkpt>
      <trkpt lat="46.7883" lon="4.71634">
        <ele>368</ele>
        <time>2014-05-08T16:10:12Z</time>
      </trkpt>
      <trkpt lat="46.7883" lon="4.71627">
        <ele>368</ele>
        <time>2014-05-08T16:10:17Z</time>
      </trkpt>
      <trkpt lat="46.78829" lon="4.71619">
        <ele>367</ele>
        <time>2014-05-08T16:10:22Z</time>
      </trkpt>
      <trkpt lat="46.7883" lon="4.71613">
        <ele>366</ele>
        <time>2014-05-08T16:10:25Z</time>
      </trkpt>
      <trkpt lat="46.78832" lon="4.71605">
        <ele>365</ele>
        <time>2014-05-08T16:10:29Z</time>
      </trkpt>
      <trkpt lat="46.78833" lon="4.71599">
        <ele>365</ele>
        <time>2014-05-08T16:10:32Z</time>
      </trkpt>
      <trkpt lat="46.78834" lon="4.71591">
        <ele>365</ele>
        <time>2014-05-08T16:10:36Z</time>
      </trkpt>
      <trkpt lat="46.78835" lon="4.71584">
        <ele>365</ele>
        <time>2014-05-08T16:10:40Z</time>
      </trkpt>
      <trkpt lat="46.78835" lon="4.71577">
        <ele>364</ele>
        <time>2014-05-08T16:10:43Z</time>
      </trkpt>
      <trkpt lat="46.78833" lon="4.7157">
        <ele>364</ele>
        <time>2014-05-08T16:10:46Z</time>
      </trkpt>
      <trkpt lat="46.78833" lon="4.71559">
        <ele>364</ele>
        <time>2014-05-08T16:10:54Z</time>
      </trkpt>
      <trkpt lat="46.7883" lon="4.71552">
        <ele>364</ele>
        <time>2014-05-08T16:10:58Z</time>
      </trkpt>
      <trkpt lat="46.78827" lon="4.71546">
        <ele>364</ele>
        <time>2014-05-08T16:11:02Z</time>
      </trkpt>
      <trkpt lat="46.78826" lon="4.71538">
        <ele>364</ele>
        <time>2014-05-08T16:11:06Z</time>
      </trkpt>
      <trkpt lat="46.78825" lon="4.7153">
        <ele>364</ele>
        <time>2014-05-08T16:11:10Z</time>
      </trkpt>
      <trkpt lat="46.78824" lon="4.71524">
        <ele>363</ele>
        <time>2014-05-08T16:11:13Z</time>
      </trkpt>
      <trkpt lat="46.78822" lon="4.71516">
        <ele>362</ele>
        <time>2014-05-08T16:11:16Z</time>
      </trkpt>
      <trkpt lat="46.78822" lon="4.71509">
        <ele>362</ele>
        <time>2014-05-08T16:11:20Z</time>
      </trkpt>
      <trkpt lat="46.7882" lon="4.71503">
        <ele>362</ele>
        <time>2014-05-08T16:11:25Z</time>
      </trkpt>
      <trkpt lat="46.78817" lon="4.71497">
        <ele>362</ele>
        <time>2014-05-08T16:11:30Z</time>
      </trkpt>
      <trkpt lat="46.78815" lon="4.7149">
        <ele>362</ele>
        <time>2014-05-08T16:11:34Z</time>
      </trkpt>
      <trkpt lat="46.78812" lon="4.71484">
        <ele>362</ele>
        <time>2014-05-08T16:11:38Z</time>
      </trkpt>
      <trkpt lat="46.7881" lon="4.71478">
        <ele>362</ele>
        <time>2014-05-08T16:11:43Z</time>
      </trkpt>
      <trkpt lat="46.78806" lon="4.71473">
        <ele>362</ele>
        <time>2014-05-08T16:11:47Z</time>
      </trkpt>
      <trkpt lat="46.78803" lon="4.71467">
        <ele>362</ele>
        <time>2014-05-08T16:11:51Z</time>
      </trkpt>
      <trkpt lat="46.788" lon="4.71461">
        <ele>361</ele>
        <time>2014-05-08T16:11:55Z</time>
      </trkpt>
      <trkpt lat="46.78798" lon="4.71454">
        <ele>361</ele>
        <time>2014-05-08T16:12:00Z</time>
      </trkpt>
      <trkpt lat="46.78796" lon="4.71447">
        <ele>360</ele>
        <time>2014-05-08T16:12:04Z</time>
      </trkpt>
      <trkpt lat="46.78794" lon="4.7144">
        <ele>360</ele>
        <time>2014-05-08T16:12:08Z</time>
      </trkpt>
      <trkpt lat="46.78792" lon="4.71434">
        <ele>359</ele>
        <time>2014-05-08T16:12:11Z</time>
      </trkpt>
      <trkpt lat="46.7879" lon="4.71428">
        <ele>358</ele>
        <time>2014-05-08T16:12:14Z</time>
      </trkpt>
      <trkpt lat="46.78787" lon="4.71421">
        <ele>358</ele>
        <time>2014-05-08T16:12:18Z</time>
      </trkpt>
      <trkpt lat="46.78785" lon="4.71414">
        <ele>358</ele>
        <time>2014-05-08T16:12:23Z</time>
      </trkpt>
      <trkpt lat="46.78783" lon="4.71407">
        <ele>358</ele>
        <time>2014-05-08T16:12:28Z</time>
      </trkpt>
      <trkpt lat="46.78781" lon="4.71401">
        <ele>358</ele>
        <time>2014-05-08T16:12:32Z</time>
      </trkpt>
      <trkpt lat="46.78778" lon="4.71394">
        <ele>358</ele>
        <time>2014-05-08T16:12:37Z</time>
      </trkpt>
      <trkpt lat="46.78777" lon="4.71388">
        <ele>357</ele>
        <time>2014-05-08T16:12:43Z</time>
      </trkpt>
      <trkpt lat="46.78777" lon="4.7138">
        <ele>357</ele>
        <time>2014-05-08T16:12:48Z</time>
      </trkpt>
      <trkpt lat="46.78776" lon="4.71372">
        <ele>358</ele>
        <time>2014-05-08T16:12:53Z</time>
      </trkpt>
      <trkpt lat="46.78775" lon="4.71365">
        <ele>358</ele>
        <time>2014-05-08T16:12:59Z</time>
      </trkpt>
      <trkpt lat="46.78773" lon="4.71358">
        <ele>357</ele>
        <time>2014-05-08T16:13:05Z</time>
      </trkpt>
      <trkpt lat="46.78773" lon="4.71351">
        <ele>357</ele>
        <time>2014-05-08T16:13:09Z</time>
      </trkpt>
      <trkpt lat="46.78772" lon="4.71342">
        <ele>357</ele>
        <time>2014-05-08T16:13:13Z</time>
      </trkpt>
      <trkpt lat="46.78771" lon="4.71332">
        <ele>357</ele>
        <time>2014-05-08T16:13:16Z</time>
      </trkpt>
      <trkpt lat="46.78769" lon="4.71324">
        <ele>356</ele>
        <time>2014-05-08T16:13:19Z</time>
      </trkpt>
      <trkpt lat="46.78767" lon="4.71314">
        <ele>356</ele>
        <time>2014-05-08T16:13:22Z</time>
      </trkpt>
      <trkpt lat="46.78765" lon="4.71308">
        <ele>356</ele>
        <time>2014-05-08T16:13:24Z</time>
      </trkpt>
      <trkpt lat="46.78763" lon="4.71301">
        <ele>356</ele>
        <time>2014-05-08T16:13:27Z</time>
      </trkpt>
      <trkpt lat="46.78762" lon="4.71294">
        <ele>356</ele>
        <time>2014-05-08T16:13:30Z</time>
      </trkpt>
      <trkpt lat="46.78761" lon="4.71286">
        <ele>356</ele>
        <time>2014-05-08T16:13:33Z</time>
      </trkpt>
      <trkpt lat="46.7876" lon="4.71278">
        <ele>357</ele>
        <time>2014-05-08T16:13:36Z</time>
      </trkpt>
      <trkpt lat="46.78759" lon="4.71272">
        <ele>357</ele>
        <time>2014-05-08T16:13:39Z</time>
      </trkpt>
      <trkpt lat="46.78759" lon="4.71264">
        <ele>358</ele>
        <time>2014-05-08T16:13:43Z</time>
      </trkpt>
      <trkpt lat="46.78758" lon="4.71257">
        <ele>359</ele>
        <time>2014-05-08T16:13:47Z</time>
      </trkpt>
      <trkpt lat="46.78757" lon="4.7125">
        <ele>361</ele>
        <time>2014-05-08T16:13:52Z</time>
      </trkpt>
      <trkpt lat="46.78757" lon="4.71243">
        <ele>362</ele>
        <time>2014-05-08T16:13:56Z</time>
      </trkpt>
      <trkpt lat="46.78756" lon="4.71236">
        <ele>362</ele>
        <time>2014-05-08T16:14:00Z</time>
      </trkpt>
      <trkpt lat="46.78756" lon="4.71229">
        <ele>362</ele>
        <time>2014-05-08T16:14:05Z</time>
      </trkpt>
      <trkpt lat="46.78756" lon="4.71222">
        <ele>361</ele>
        <time>2014-05-08T16:14:09Z</time>
      </trkpt>
      <trkpt lat="46.78758" lon="4.71215">
        <ele>362</ele>
        <time>2014-05-08T16:14:14Z</time>
      </trkpt>
      <trkpt lat="46.78759" lon="4.71208">
        <ele>363</ele>
        <time>2014-05-08T16:14:20Z</time>
      </trkpt>
      <trkpt lat="46.7876" lon="4.71201">
        <ele>363</ele>
        <time>2014-05-08T16:14:25Z</time>
      </trkpt>
      <trkpt lat="46.78761" lon="4.71193">
        <ele>363</ele>
        <time>2014-05-08T16:14:29Z</time>
      </trkpt>
      <trkpt lat="46.78762" lon="4.71187">
        <ele>363</ele>
        <time>2014-05-08T16:14:33Z</time>
      </trkpt>
      <trkpt lat="46.78762" lon="4.7118">
        <ele>364</ele>
        <time>2014-05-08T16:14:38Z</time>
      </trkpt>
      <trkpt lat="46.78763" lon="4.7118">
        <ele>364</ele>
        <time>2014-05-08T16:15:02Z</time>
      </trkpt>
      <trkpt lat="46.78763" lon="4.7118">
        <ele>364</ele>
        <time>2014-05-08T16:15:18Z</time>
      </trkpt>
      <trkpt lat="46.78764" lon="4.71172">
        <ele>364</ele>
        <time>2014-05-08T16:15:21Z</time>
      </trkpt>
      <trkpt lat="46.78764" lon="4.71164">
        <ele>364</ele>
        <time>2014-05-08T16:15:25Z</time>
      </trkpt>
      <trkpt lat="46.78765" lon="4.71157">
        <ele>364</ele>
        <time>2014-05-08T16:15:28Z</time>
      </trkpt>
      <trkpt lat="46.78766" lon="4.7115">
        <ele>363</ele>
        <time>2014-05-08T16:15:31Z</time>
      </trkpt>
      <trkpt lat="46.78766" lon="4.71142">
        <ele>363</ele>
        <time>2014-05-08T16:15:35Z</time>
      </trkpt>
      <trkpt lat="46.78766" lon="4.71134">
        <ele>363</ele>
        <time>2014-05-08T16:15:39Z</time>
      </trkpt>
      <trkpt lat="46.78766" lon="4.71126">
        <ele>363</ele>
        <time>2014-05-08T16:15:43Z</time>
      </trkpt>
      <trkpt lat="46.78764" lon="4.71119">
        <ele>363</ele>
        <time>2014-05-08T16:15:48Z</time>
      </trkpt>
      <trkpt lat="46.78764" lon="4.7111">
        <ele>362</ele>
        <time>2014-05-08T16:15:53Z</time>
      </trkpt>
      <trkpt lat="46.78762" lon="4.71104">
        <ele>361</ele>
        <time>2014-05-08T16:15:56Z</time>
      </trkpt>
      <trkpt lat="46.78763" lon="4.71096">
        <ele>361</ele>
        <time>2014-05-08T16:16:01Z</time>
      </trkpt>
      <trkpt lat="46.78764" lon="4.71088">
        <ele>361</ele>
        <time>2014-05-08T16:16:05Z</time>
      </trkpt>
      <trkpt lat="46.78767" lon="4.71081">
        <ele>361</ele>
        <time>2014-05-08T16:16:09Z</time>
      </trkpt>
      <trkpt lat="46.78769" lon="4.71074">
        <ele>361</ele>
        <time>2014-05-08T16:16:13Z</time>
      </trkpt>
      <trkpt lat="46.78771" lon="4.71067">
        <ele>361</ele>
        <time>2014-05-08T16:16:17Z</time>
      </trkpt>
      <trkpt lat="46.78773" lon="4.71059">
        <ele>361</ele>
        <time>2014-05-08T16:16:21Z</time>
      </trkpt>
      <trkpt lat="46.78774" lon="4.71051">
        <ele>362</ele>
        <time>2014-05-08T16:16:25Z</time>
      </trkpt>
      <trkpt lat="46.78775" lon="4.71043">
        <ele>361</ele>
        <time>2014-05-08T16:16:29Z</time>
      </trkpt>
      <trkpt lat="46.78775" lon="4.71036">
        <ele>361</ele>
        <time>2014-05-08T16:16:33Z</time>
      </trkpt>
      <trkpt lat="46.78775" lon="4.71028">
        <ele>361</ele>
        <time>2014-05-08T16:16:38Z</time>
      </trkpt>
      <trkpt lat="46.78774" lon="4.71019">
        <ele>361</ele>
        <time>2014-05-08T16:16:43Z</time>
      </trkpt>
      <trkpt lat="46.78774" lon="4.71012">
        <ele>362</ele>
        <time>2014-05-08T16:16:47Z</time>
      </trkpt>
      <trkpt lat="46.78776" lon="4.71006">
        <ele>362</ele>
        <time>2014-05-08T16:16:51Z</time>
      </trkpt>
      <trkpt lat="46.78779" lon="4.70999">
        <ele>362</ele>
        <time>2014-05-08T16:16:55Z</time>
      </trkpt>
      <trkpt lat="46.78781" lon="4.70993">
        <ele>362</ele>
        <time>2014-05-08T16:16:59Z</time>
      </trkpt>
      <trkpt lat="46.78782" lon="4.70985">
        <ele>362</ele>
        <time>2014-05-08T16:17:03Z</time>
      </trkpt>
      <trkpt lat="46.7878" lon="4.70976">
        <ele>361</ele>
        <time>2014-05-08T16:17:05Z</time>
      </trkpt>
      <trkpt lat="46.78779" lon="4.70968">
        <ele>361</ele>
        <time>2014-05-08T16:17:07Z</time>
      </trkpt>
      <trkpt lat="46.78777" lon="4.70961">
        <ele>360</ele>
        <time>2014-05-08T16:17:10Z</time>
      </trkpt>
      <trkpt lat="46.78776" lon="4.70954">
        <ele>359</ele>
        <time>2014-05-08T16:17:13Z</time>
      </trkpt>
      <trkpt lat="46.78775" lon="4.70946">
        <ele>359</ele>
        <time>2014-05-08T16:17:16Z</time>
      </trkpt>
      <trkpt lat="46.78774" lon="4.70939">
        <ele>358</ele>
        <time>2014-05-08T16:17:19Z</time>
      </trkpt>
      <trkpt lat="46.78774" lon="4.70932">
        <ele>358</ele>
        <time>2014-05-08T16:17:22Z</time>
      </trkpt>
      <trkpt lat="46.78773" lon="4.70925">
        <ele>357</ele>
        <time>2014-05-08T16:17:25Z</time>
      </trkpt>
      <trkpt lat="46.78772" lon="4.70916">
        <ele>357</ele>
        <time>2014-05-08T16:17:29Z</time>
      </trkpt>
      <trkpt lat="46.78772" lon="4.70909">
        <ele>358</ele>
        <time>2014-05-08T16:17:33Z</time>
      </trkpt>
      <trkpt lat="46.78771" lon="4.70901">
        <ele>358</ele>
        <time>2014-05-08T16:17:42Z</time>
      </trkpt>
      <trkpt lat="46.78771" lon="4.70893">
        <ele>359</ele>
        <time>2014-05-08T16:17:46Z</time>
      </trkpt>
      <trkpt lat="46.7877" lon="4.70885">
        <ele>360</ele>
        <time>2014-05-08T16:17:50Z</time>
      </trkpt>
      <trkpt lat="46.78771" lon="4.70878">
        <ele>360</ele>
        <time>2014-05-08T16:17:54Z</time>
      </trkpt>
      <trkpt lat="46.78772" lon="4.7087">
        <ele>361</ele>
        <time>2014-05-08T16:17:58Z</time>
      </trkpt>
      <trkpt lat="46.78773" lon="4.70862">
        <ele>361</ele>
        <time>2014-05-08T16:18:02Z</time>
      </trkpt>
      <trkpt lat="46.78773" lon="4.70854">
        <ele>362</ele>
        <time>2014-05-08T16:18:06Z</time>
      </trkpt>
      <trkpt lat="46.78774" lon="4.70846">
        <ele>362</ele>
        <time>2014-05-08T16:18:10Z</time>
      </trkpt>
      <trkpt lat="46.78775" lon="4.70839">
        <ele>362</ele>
        <time>2014-05-08T16:18:14Z</time>
      </trkpt>
      <trkpt lat="46.78775" lon="4.70831">
        <ele>362</ele>
        <time>2014-05-08T16:18:18Z</time>
      </trkpt>
      <trkpt lat="46.78774" lon="4.70824">
        <ele>362</ele>
        <time>2014-05-08T16:18:23Z</time>
      </trkpt>
      <trkpt lat="46.78774" lon="4.70816">
        <ele>362</ele>
        <time>2014-05-08T16:18:27Z</time>
      </trkpt>
      <trkpt lat="46.78772" lon="4.70808">
        <ele>362</ele>
        <time>2014-05-08T16:18:30Z</time>
      </trkpt>
      <trkpt lat="46.7876" lon="4.70761">
        <ele>365</ele>
        <time>2014-05-08T16:18:51Z</time>
      </trkpt>
      <trkpt lat="46.78754" lon="4.70749">
        <ele>379</ele>
        <time>2014-05-08T16:19:10Z</time>
      </trkpt>
      <trkpt lat="46.78743" lon="4.70738">
        <ele>384</ele>
        <time>2014-05-08T16:19:10Z</time>
      </trkpt>
      <trkpt lat="46.78737" lon="4.70733">
        <ele>391</ele>
        <time>2014-05-08T16:19:12Z</time>
      </trkpt>
      <trkpt lat="46.78734" lon="4.70728">
        <ele>396</ele>
        <time>2014-05-08T16:19:20Z</time>
      </trkpt>
      <trkpt lat="46.7873" lon="4.70725">
        <ele>400</ele>
        <time>2014-05-08T16:19:38Z</time>
      </trkpt>
      <trkpt lat="46.78709" lon="4.70713">
        <ele>409</ele>
        <time>2014-05-08T16:19:39Z</time>
      </trkpt>
      <trkpt lat="46.78706" lon="4.70709">
        <ele>412</ele>
        <time>2014-05-08T16:19:41Z</time>
      </trkpt>
      <trkpt lat="46.787" lon="4.70706">
        <ele>417</ele>
        <time>2014-05-08T16:19:43Z</time>
      </trkpt>
      <trkpt lat="46.78695" lon="4.70702">
        <ele>421</ele>
        <time>2014-05-08T16:19:46Z</time>
      </trkpt>
      <trkpt lat="46.7869" lon="4.707">
        <ele>424</ele>
        <time>2014-05-08T16:20:10Z</time>
      </trkpt>
      <trkpt lat="46.78658" lon="4.70678">
        <ele>432</ele>
        <time>2014-05-08T16:20:10Z</time>
      </trkpt>
      <trkpt lat="46.78652" lon="4.70677">
        <ele>437</ele>
        <time>2014-05-08T16:20:13Z</time>
      </trkpt>
      <trkpt lat="46.78644" lon="4.70673">
        <ele>438</ele>
        <time>2014-05-08T16:20:42Z</time>
      </trkpt>
      <trkpt lat="46.78613" lon="4.7066">
        <ele>439</ele>
        <time>2014-05-08T16:20:42Z</time>
      </trkpt>
      <trkpt lat="46.78587" lon="4.70624">
        <ele>442</ele>
        <time>2014-05-08T16:21:10Z</time>
      </trkpt>
      <trkpt lat="46.7859" lon="4.70618">
        <ele>437</ele>
        <time>2014-05-08T16:21:11Z</time>
      </trkpt>
      <trkpt lat="46.78587" lon="4.70612">
        <ele>440</ele>
        <time>2014-05-08T16:21:15Z</time>
      </trkpt>
      <trkpt lat="46.78586" lon="4.70605">
        <ele>440</ele>
        <time>2014-05-08T16:22:10Z</time>
      </trkpt>
      <trkpt lat="46.78559" lon="4.70495">
        <ele>439</ele>
        <time>2014-05-08T16:22:15Z</time>
      </trkpt>
      <trkpt lat="46.78532" lon="4.70384">
        <ele>431</ele>
        <time>2014-05-08T16:23:11Z</time>
      </trkpt>
      <trkpt lat="46.7853" lon="4.70379">
        <ele>439</ele>
        <time>2014-05-08T16:23:16Z</time>
      </trkpt>
      <trkpt lat="46.7851" lon="4.70342">
        <ele>440</ele>
        <time>2014-05-08T16:23:39Z</time>
      </trkpt>
      <trkpt lat="46.78508" lon="4.70334">
        <ele>436</ele>
        <time>2014-05-08T16:23:52Z</time>
      </trkpt>
      <trkpt lat="46.785" lon="4.70317">
        <ele>436</ele>
        <time>2014-05-08T16:23:53Z</time>
      </trkpt>
      <trkpt lat="46.78487" lon="4.70292">
        <ele>435</ele>
        <time>2014-05-08T16:24:10Z</time>
      </trkpt>
      <trkpt lat="46.78485" lon="4.70285">
        <ele>437</ele>
        <time>2014-05-08T16:24:15Z</time>
      </trkpt>
      <trkpt lat="46.78453" lon="4.70187">
        <ele>441</ele>
        <time>2014-05-08T16:25:11Z</time>
      </trkpt>
      <trkpt lat="46.78449" lon="4.70183">
        <ele>441</ele>
        <time>2014-05-08T16:25:13Z</time>
      </trkpt>
      <trkpt lat="46.78445" lon="4.70177">
        <ele>440</ele>
        <time>2014-05-08T16:25:43Z</time>
      </trkpt>
      <trkpt lat="46.78416" lon="4.70142">
        <ele>441</ele>
        <time>2014-05-08T16:25:44Z</time>
      </trkpt>
      <trkpt lat="46.78411" lon="4.70139">
        <ele>439</ele>
        <time>2014-05-08T16:25:49Z</time>
      </trkpt>
      <trkpt lat="46.78407" lon="4.70134">
        <ele>444</ele>
        <time>2014-05-08T16:26:10Z</time>
      </trkpt>
      <trkpt lat="46.78389" lon="4.70117">
        <ele>444</ele>
        <time>2014-05-08T16:26:10Z</time>
      </trkpt>
      <trkpt lat="46.78384" lon="4.70113">
        <ele>442</ele>
        <time>2014-05-08T16:26:13Z</time>
      </trkpt>
      <trkpt lat="46.78381" lon="4.70105">
        <ele>444</ele>
        <time>2014-05-08T16:26:54Z</time>
      </trkpt>
      <trkpt lat="46.78356" lon="4.70084">
        <ele>420</ele>
        <time>2014-05-08T16:26:55Z</time>
      </trkpt>
      <trkpt lat="46.7835" lon="4.70083">
        <ele>450</ele>
        <time>2014-05-08T16:26:58Z</time>
      </trkpt>
      <trkpt lat="46.78346" lon="4.70079">
        <ele>454</ele>
        <time>2014-05-08T16:26:59Z</time>
      </trkpt>
      <trkpt lat="46.78341" lon="4.70076">
        <ele>455</ele>
        <time>2014-05-08T16:27:02Z</time>
      </trkpt>
      <trkpt lat="46.78336" lon="4.70077">
        <ele>458</ele>
        <time>2014-05-08T16:27:04Z</time>
      </trkpt>
      <trkpt lat="46.7833" lon="4.70077">
        <ele>457</ele>
        <time>2014-05-08T16:27:07Z</time>
      </trkpt>
      <trkpt lat="46.78326" lon="4.70077">
        <ele>457</ele>
        <time>2014-05-08T16:27:09Z</time>
      </trkpt>
      <trkpt lat="46.7832" lon="4.70075">
        <ele>456</ele>
        <time>2014-05-08T16:27:12Z</time>
      </trkpt>
      <trkpt lat="46.78315" lon="4.70072">
        <ele>454</ele>
        <time>2014-05-08T16:27:15Z</time>
      </trkpt>
      <trkpt lat="46.78309" lon="4.7007">
        <ele>453</ele>
        <time>2014-05-08T16:27:18Z</time>
      </trkpt>
      <trkpt lat="46.78304" lon="4.70069">
        <ele>454</ele>
        <time>2014-05-08T16:27:21Z</time>
      </trkpt>
      <trkpt lat="46.78299" lon="4.70065">
        <ele>453</ele>
        <time>2014-05-08T16:27:25Z</time>
      </trkpt>
      <trkpt lat="46.78296" lon="4.70059">
        <ele>450</ele>
        <time>2014-05-08T16:27:29Z</time>
      </trkpt>
      <trkpt lat="46.78292" lon="4.70053">
        <ele>447</ele>
        <time>2014-05-08T16:27:33Z</time>
      </trkpt>
      <trkpt lat="46.78288" lon="4.70047">
        <ele>446</ele>
        <time>2014-05-08T16:27:37Z</time>
      </trkpt>
      <trkpt lat="46.78285" lon="4.70043">
        <ele>446</ele>
        <time>2014-05-08T16:27:41Z</time>
      </trkpt>
      <trkpt lat="46.7828" lon="4.70038">
        <ele>446</ele>
        <time>2014-05-08T16:27:45Z</time>
      </trkpt>
      <trkpt lat="46.78276" lon="4.70034">
        <ele>445</ele>
        <time>2014-05-08T16:27:48Z</time>
      </trkpt>
      <trkpt lat="46.78271" lon="4.7003">
        <ele>444</ele>
        <time>2014-05-08T16:27:52Z</time>
      </trkpt>
      <trkpt lat="46.78267" lon="4.70027">
        <ele>444</ele>
        <time>2014-05-08T16:27:55Z</time>
      </trkpt>
      <trkpt lat="46.78262" lon="4.70022">
        <ele>444</ele>
        <time>2014-05-08T16:27:59Z</time>
      </trkpt>
      <trkpt lat="46.78258" lon="4.70018">
        <ele>443</ele>
        <time>2014-05-08T16:28:02Z</time>
      </trkpt>
      <trkpt lat="46.78252" lon="4.70014">
        <ele>442</ele>
        <time>2014-05-08T16:28:06Z</time>
      </trkpt>
      <trkpt lat="46.78248" lon="4.70011">
        <ele>442</ele>
        <time>2014-05-08T16:28:09Z</time>
      </trkpt>
      <trkpt lat="46.78243" lon="4.70008">
        <ele>442</ele>
        <time>2014-05-08T16:28:13Z</time>
      </trkpt>
      <trkpt lat="46.78239" lon="4.70004">
        <ele>441</ele>
        <time>2014-05-08T16:28:17Z</time>
      </trkpt>
      <trkpt lat="46.78234" lon="4.70001">
        <ele>441</ele>
        <time>2014-05-08T16:28:21Z</time>
      </trkpt>
      <trkpt lat="46.78228" lon="4.69997">
        <ele>441</ele>
        <time>2014-05-08T16:28:25Z</time>
      </trkpt>
      <trkpt lat="46.78223" lon="4.69994">
        <ele>441</ele>
        <time>2014-05-08T16:28:29Z</time>
      </trkpt>
      <trkpt lat="46.78218" lon="4.69991">
        <ele>440</ele>
        <time>2014-05-08T16:28:33Z</time>
      </trkpt>
      <trkpt lat="46.78213" lon="4.69988">
        <ele>440</ele>
        <time>2014-05-08T16:28:37Z</time>
      </trkpt>
      <trkpt lat="46.78209" lon="4.69986">
        <ele>439</ele>
        <time>2014-05-08T16:28:40Z</time>
      </trkpt>
      <trkpt lat="46.78204" lon="4.69984">
        <ele>439</ele>
        <time>2014-05-08T16:28:43Z</time>
      </trkpt>
      <trkpt lat="46.78199" lon="4.69982">
        <ele>438</ele>
        <time>2014-05-08T16:28:47Z</time>
      </trkpt>
      <trkpt lat="46.78194" lon="4.69979">
        <ele>438</ele>
        <time>2014-05-08T16:28:51Z</time>
      </trkpt>
      <trkpt lat="46.78188" lon="4.69976">
        <ele>438</ele>
        <time>2014-05-08T16:28:55Z</time>
      </trkpt>
      <trkpt lat="46.78184" lon="4.69975">
        <ele>438</ele>
        <time>2014-05-08T16:28:58Z</time>
      </trkpt>
      <trkpt lat="46.78179" lon="4.69974">
        <ele>437</ele>
        <time>2014-05-08T16:29:01Z</time>
      </trkpt>
      <trkpt lat="46.78174" lon="4.69972">
        <ele>437</ele>
        <time>2014-05-08T16:29:05Z</time>
      </trkpt>
      <trkpt lat="46.78169" lon="4.6997">
        <ele>437</ele>
        <time>2014-05-08T16:29:08Z</time>
      </trkpt>
      <trkpt lat="46.78164" lon="4.69969">
        <ele>437</ele>
        <time>2014-05-08T16:29:12Z</time>
      </trkpt>
      <trkpt lat="46.78159" lon="4.69967">
        <ele>436</ele>
        <time>2014-05-08T16:29:16Z</time>
      </trkpt>
      <trkpt lat="46.78153" lon="4.69966">
        <ele>436</ele>
        <time>2014-05-08T16:29:21Z</time>
      </trkpt>
      <trkpt lat="46.78148" lon="4.69966">
        <ele>436</ele>
        <time>2014-05-08T16:29:25Z</time>
      </trkpt>
      <trkpt lat="46.78142" lon="4.69965">
        <ele>436</ele>
        <time>2014-05-08T16:29:29Z</time>
      </trkpt>
      <trkpt lat="46.78136" lon="4.69963">
        <ele>435</ele>
        <time>2014-05-08T16:29:33Z</time>
      </trkpt>
      <trkpt lat="46.78131" lon="4.69961">
        <ele>435</ele>
        <time>2014-05-08T16:29:37Z</time>
      </trkpt>
      <trkpt lat="46.78126" lon="4.69961">
        <ele>435</ele>
        <time>2014-05-08T16:29:41Z</time>
      </trkpt>
      <trkpt lat="46.7812" lon="4.6996">
        <ele>435</ele>
        <time>2014-05-08T16:29:45Z</time>
      </trkpt>
      <trkpt lat="46.78115" lon="4.6996">
        <ele>435</ele>
        <time>2014-05-08T16:29:49Z</time>
      </trkpt>
      <trkpt lat="46.78109" lon="4.6996">
        <ele>435</ele>
        <time>2014-05-08T16:29:53Z</time>
      </trkpt>
      <trkpt lat="46.78104" lon="4.69959">
        <ele>434</ele>
        <time>2014-05-08T16:29:57Z</time>
      </trkpt>
      <trkpt lat="46.78098" lon="4.69958">
        <ele>434</ele>
        <time>2014-05-08T16:30:01Z</time>
      </trkpt>
      <trkpt lat="46.78093" lon="4.69956">
        <ele>434</ele>
        <time>2014-05-08T16:30:05Z</time>
      </trkpt>
      <trkpt lat="46.78087" lon="4.69954">
        <ele>433</ele>
        <time>2014-05-08T16:30:09Z</time>
      </trkpt>
      <trkpt lat="46.78082" lon="4.69951">
        <ele>434</ele>
        <time>2014-05-08T16:30:13Z</time>
      </trkpt>
      <trkpt lat="46.78076" lon="4.69951">
        <ele>434</ele>
        <time>2014-05-08T16:30:17Z</time>
      </trkpt>
      <trkpt lat="46.7807" lon="4.69951">
        <ele>433</ele>
        <time>2014-05-08T16:30:21Z</time>
      </trkpt>
      <trkpt lat="46.78065" lon="4.69951">
        <ele>433</ele>
        <time>2014-05-08T16:30:25Z</time>
      </trkpt>
      <trkpt lat="46.78061" lon="4.69951">
        <ele>432</ele>
        <time>2014-05-08T16:30:29Z</time>
      </trkpt>
      <trkpt lat="46.78056" lon="4.69953">
        <ele>432</ele>
        <time>2014-05-08T16:30:33Z</time>
      </trkpt>
      <trkpt lat="46.78052" lon="4.69957">
        <ele>432</ele>
        <time>2014-05-08T16:30:37Z</time>
      </trkpt>
      <trkpt lat="46.78048" lon="4.6996">
        <ele>432</ele>
        <time>2014-05-08T16:30:41Z</time>
      </trkpt>
      <trkpt lat="46.78043" lon="4.69963">
        <ele>431</ele>
        <time>2014-05-08T16:30:47Z</time>
      </trkpt>
      <trkpt lat="46.7804" lon="4.69969">
        <ele>430</ele>
        <time>2014-05-08T16:31:02Z</time>
      </trkpt>
      <trkpt lat="46.78036" lon="4.69973">
        <ele>430</ele>
        <time>2014-05-08T16:31:08Z</time>
      </trkpt>
      <trkpt lat="46.78031" lon="4.69976">
        <ele>428</ele>
        <time>2014-05-08T16:31:15Z</time>
      </trkpt>
      <trkpt lat="46.78027" lon="4.69981">
        <ele>427</ele>
        <time>2014-05-08T16:31:19Z</time>
      </trkpt>
      <trkpt lat="46.78024" lon="4.69986">
        <ele>426</ele>
        <time>2014-05-08T16:31:25Z</time>
      </trkpt>
      <trkpt lat="46.78019" lon="4.69987">
        <ele>423</ele>
        <time>2014-05-08T16:31:35Z</time>
      </trkpt>
      <trkpt lat="46.78014" lon="4.69991">
        <ele>421</ele>
        <time>2014-05-08T16:31:40Z</time>
      </trkpt>
      <trkpt lat="46.78011" lon="4.69997">
        <ele>420</ele>
        <time>2014-05-08T16:31:47Z</time>
      </trkpt>
      <trkpt lat="46.78011" lon="4.70004">
        <ele>420</ele>
        <time>2014-05-08T16:31:51Z</time>
      </trkpt>
      <trkpt lat="46.7801" lon="4.70012">
        <ele>420</ele>
        <time>2014-05-08T16:31:55Z</time>
      </trkpt>
      <trkpt lat="46.78009" lon="4.70019">
        <ele>420</ele>
        <time>2014-05-08T16:31:58Z</time>
      </trkpt>
      <trkpt lat="46.78007" lon="4.70027">
        <ele>419</ele>
        <time>2014-05-08T16:32:02Z</time>
      </trkpt>
      <trkpt lat="46.78005" lon="4.70034">
        <ele>419</ele>
        <time>2014-05-08T16:32:06Z</time>
      </trkpt>
      <trkpt lat="46.78003" lon="4.70041">
        <ele>419</ele>
        <time>2014-05-08T16:32:10Z</time>
      </trkpt>
      <trkpt lat="46.78001" lon="4.70048">
        <ele>419</ele>
        <time>2014-05-08T16:32:14Z</time>
      </trkpt>
      <trkpt lat="46.77998" lon="4.70055">
        <ele>419</ele>
        <time>2014-05-08T16:32:18Z</time>
      </trkpt>
      <trkpt lat="46.77996" lon="4.70062">
        <ele>419</ele>
        <time>2014-05-08T16:32:22Z</time>
      </trkpt>
      <trkpt lat="46.77994" lon="4.70068">
        <ele>420</ele>
        <time>2014-05-08T16:32:25Z</time>
      </trkpt>
      <trkpt lat="46.77991" lon="4.70074">
        <ele>420</ele>
        <time>2014-05-08T16:32:28Z</time>
      </trkpt>
      <trkpt lat="46.77988" lon="4.70081">
        <ele>420</ele>
        <time>2014-05-08T16:32:31Z</time>
      </trkpt>
      <trkpt lat="46.77985" lon="4.70087">
        <ele>420</ele>
        <time>2014-05-08T16:32:34Z</time>
      </trkpt>
      <trkpt lat="46.77983" lon="4.70094">
        <ele>419</ele>
        <time>2014-05-08T16:32:37Z</time>
      </trkpt>
      <trkpt lat="46.77981" lon="4.70102">
        <ele>419</ele>
        <time>2014-05-08T16:32:41Z</time>
      </trkpt>
      <trkpt lat="46.77979" lon="4.70108">
        <ele>419</ele>
        <time>2014-05-08T16:32:44Z</time>
      </trkpt>
      <trkpt lat="46.77977" lon="4.70116">
        <ele>419</ele>
        <time>2014-05-08T16:32:48Z</time>
      </trkpt>
      <trkpt lat="46.77975" lon="4.70122">
        <ele>418</ele>
        <time>2014-05-08T16:32:51Z</time>
      </trkpt>
      <trkpt lat="46.77973" lon="4.70128">
        <ele>418</ele>
        <time>2014-05-08T16:32:54Z</time>
      </trkpt>
      <trkpt lat="46.7797" lon="4.70136">
        <ele>418</ele>
        <time>2014-05-08T16:32:58Z</time>
      </trkpt>
      <trkpt lat="46.77968" lon="4.70142">
        <ele>419</ele>
        <time>2014-05-08T16:33:01Z</time>
      </trkpt>
      <trkpt lat="46.77965" lon="4.70148">
        <ele>419</ele>
        <time>2014-05-08T16:33:04Z</time>
      </trkpt>
      <trkpt lat="46.77961" lon="4.70155">
        <ele>419</ele>
        <time>2014-05-08T16:33:08Z</time>
      </trkpt>
      <trkpt lat="46.77958" lon="4.70162">
        <ele>419</ele>
        <time>2014-05-08T16:33:12Z</time>
      </trkpt>
      <trkpt lat="46.77955" lon="4.70168">
        <ele>418</ele>
        <time>2014-05-08T16:33:16Z</time>
      </trkpt>
      <trkpt lat="46.77951" lon="4.70173">
        <ele>418</ele>
        <time>2014-05-08T16:33:19Z</time>
      </trkpt>
      <trkpt lat="46.77947" lon="4.70179">
        <ele>417</ele>
        <time>2014-05-08T16:33:23Z</time>
      </trkpt>
      <trkpt lat="46.77943" lon="4.70185">
        <ele>416</ele>
        <time>2014-05-08T16:33:27Z</time>
      </trkpt>
      <trkpt lat="46.7794" lon="4.7019">
        <ele>415</ele>
        <time>2014-05-08T16:33:31Z</time>
      </trkpt>
      <trkpt lat="46.77937" lon="4.70196">
        <ele>414</ele>
        <time>2014-05-08T16:33:35Z</time>
      </trkpt>
      <trkpt lat="46.77935" lon="4.70203">
        <ele>413</ele>
        <time>2014-05-08T16:33:39Z</time>
      </trkpt>
      <trkpt lat="46.77934" lon="4.70209">
        <ele>412</ele>
        <time>2014-05-08T16:33:42Z</time>
      </trkpt>
      <trkpt lat="46.77933" lon="4.70216">
        <ele>411</ele>
        <time>2014-05-08T16:33:46Z</time>
      </trkpt>
      <trkpt lat="46.77932" lon="4.70224">
        <ele>411</ele>
        <time>2014-05-08T16:33:51Z</time>
      </trkpt>
      <trkpt lat="46.77931" lon="4.70231">
        <ele>411</ele>
        <time>2014-05-08T16:33:55Z</time>
      </trkpt>
      <trkpt lat="46.7793" lon="4.70238">
        <ele>410</ele>
        <time>2014-05-08T16:33:59Z</time>
      </trkpt>
      <trkpt lat="46.77929" lon="4.70246">
        <ele>409</ele>
        <time>2014-05-08T16:34:03Z</time>
      </trkpt>
      <trkpt lat="46.77929" lon="4.70254">
        <ele>409</ele>
        <time>2014-05-08T16:34:07Z</time>
      </trkpt>
      <trkpt lat="46.77929" lon="4.70263">
        <ele>409</ele>
        <time>2014-05-08T16:34:11Z</time>
      </trkpt>
      <trkpt lat="46.7793" lon="4.70271">
        <ele>409</ele>
        <time>2014-05-08T16:34:15Z</time>
      </trkpt>
      <trkpt lat="46.77931" lon="4.70279">
        <ele>409</ele>
        <time>2014-05-08T16:34:19Z</time>
      </trkpt>
      <trkpt lat="46.77933" lon="4.70287">
        <ele>408</ele>
        <time>2014-05-08T16:34:23Z</time>
      </trkpt>
      <trkpt lat="46.77934" lon="4.70295">
        <ele>408</ele>
        <time>2014-05-08T16:34:27Z</time>
      </trkpt>
      <trkpt lat="46.77935" lon="4.70301">
        <ele>408</ele>
        <time>2014-05-08T16:34:30Z</time>
      </trkpt>
      <trkpt lat="46.77935" lon="4.70308">
        <ele>407</ele>
        <time>2014-05-08T16:34:33Z</time>
      </trkpt>
      <trkpt lat="46.77935" lon="4.70315">
        <ele>405</ele>
        <time>2014-05-08T16:34:36Z</time>
      </trkpt>
      <trkpt lat="46.77937" lon="4.70323">
        <ele>406</ele>
        <time>2014-05-08T16:34:40Z</time>
      </trkpt>
      <trkpt lat="46.77938" lon="4.70331">
        <ele>405</ele>
        <time>2014-05-08T16:34:44Z</time>
      </trkpt>
      <trkpt lat="46.77939" lon="4.70339">
        <ele>405</ele>
        <time>2014-05-08T16:34:48Z</time>
      </trkpt>
      <trkpt lat="46.7794" lon="4.70346">
        <ele>405</ele>
        <time>2014-05-08T16:34:52Z</time>
      </trkpt>
      <trkpt lat="46.77941" lon="4.70353">
        <ele>404</ele>
        <time>2014-05-08T16:34:55Z</time>
      </trkpt>
      <trkpt lat="46.77942" lon="4.70359">
        <ele>404</ele>
        <time>2014-05-08T16:34:58Z</time>
      </trkpt>
      <trkpt lat="46.77942" lon="4.70368">
        <ele>403</ele>
        <time>2014-05-08T16:35:02Z</time>
      </trkpt>
      <trkpt lat="46.77942" lon="4.70374">
        <ele>402</ele>
        <time>2014-05-08T16:35:05Z</time>
      </trkpt>
      <trkpt lat="46.77943" lon="4.70381">
        <ele>402</ele>
        <time>2014-05-08T16:35:08Z</time>
      </trkpt>
      <trkpt lat="46.77943" lon="4.7039">
        <ele>401</ele>
        <time>2014-05-08T16:35:12Z</time>
      </trkpt>
      <trkpt lat="46.77943" lon="4.70397">
        <ele>400</ele>
        <time>2014-05-08T16:35:16Z</time>
      </trkpt>
      <trkpt lat="46.77944" lon="4.70404">
        <ele>399</ele>
        <time>2014-05-08T16:35:20Z</time>
      </trkpt>
      <trkpt lat="46.77944" lon="4.7041">
        <ele>399</ele>
        <time>2014-05-08T16:35:24Z</time>
      </trkpt>
      <trkpt lat="46.77945" lon="4.70418">
        <ele>398</ele>
        <time>2014-05-08T16:35:28Z</time>
      </trkpt>
      <trkpt lat="46.77945" lon="4.70425">
        <ele>397</ele>
        <time>2014-05-08T16:35:32Z</time>
      </trkpt>
      <trkpt lat="46.77946" lon="4.70432">
        <ele>397</ele>
        <time>2014-05-08T16:35:36Z</time>
      </trkpt>
      <trkpt lat="46.77946" lon="4.7044">
        <ele>396</ele>
        <time>2014-05-08T16:35:41Z</time>
      </trkpt>
      <trkpt lat="46.77945" lon="4.70448">
        <ele>395</ele>
        <time>2014-05-08T16:35:45Z</time>
      </trkpt>
      <trkpt lat="46.77944" lon="4.70454">
        <ele>394</ele>
        <time>2014-05-08T16:35:49Z</time>
      </trkpt>
      <trkpt lat="46.77943" lon="4.70462">
        <ele>394</ele>
        <time>2014-05-08T16:35:53Z</time>
      </trkpt>
      <trkpt lat="46.77942" lon="4.7047">
        <ele>393</ele>
        <time>2014-05-08T16:35:57Z</time>
      </trkpt>
      <trkpt lat="46.7794" lon="4.70477">
        <ele>391</ele>
        <time>2014-05-08T16:36:01Z</time>
      </trkpt>
      <trkpt lat="46.77939" lon="4.70484">
        <ele>390</ele>
        <time>2014-05-08T16:36:05Z</time>
      </trkpt>
      <trkpt lat="46.77938" lon="4.70491">
        <ele>388</ele>
        <time>2014-05-08T16:36:09Z</time>
      </trkpt>
      <trkpt lat="46.77937" lon="4.705">
        <ele>388</ele>
        <time>2014-05-08T16:36:13Z</time>
      </trkpt>
      <trkpt lat="46.77936" lon="4.70507">
        <ele>386</ele>
        <time>2014-05-08T16:36:18Z</time>
      </trkpt>
      <trkpt lat="46.77934" lon="4.70515">
        <ele>384</ele>
        <time>2014-05-08T16:36:23Z</time>
      </trkpt>
      <trkpt lat="46.77933" lon="4.70522">
        <ele>383</ele>
        <time>2014-05-08T16:36:26Z</time>
      </trkpt>
      <trkpt lat="46.77934" lon="4.70529">
        <ele>382</ele>
        <time>2014-05-08T16:36:29Z</time>
      </trkpt>
      <trkpt lat="46.77935" lon="4.70536">
        <ele>381</ele>
        <time>2014-05-08T16:36:32Z</time>
      </trkpt>
      <trkpt lat="46.77935" lon="4.70543">
        <ele>381</ele>
        <time>2014-05-08T16:36:35Z</time>
      </trkpt>
      <trkpt lat="46.77935" lon="4.7055">
        <ele>380</ele>
        <time>2014-05-08T16:36:38Z</time>
      </trkpt>
      <trkpt lat="46.77937" lon="4.70556">
        <ele>380</ele>
        <time>2014-05-08T16:36:41Z</time>
      </trkpt>
      <trkpt lat="46.77939" lon="4.70564">
        <ele>380</ele>
        <time>2014-05-08T16:36:45Z</time>
      </trkpt>
      <trkpt lat="46.77941" lon="4.7057">
        <ele>379</ele>
        <time>2014-05-08T16:36:49Z</time>
      </trkpt>
      <trkpt lat="46.77943" lon="4.70578">
        <ele>380</ele>
        <time>2014-05-08T16:36:53Z</time>
      </trkpt>
      <trkpt lat="46.77944" lon="4.70585">
        <ele>379</ele>
        <time>2014-05-08T16:36:56Z</time>
      </trkpt>
      <trkpt lat="46.77946" lon="4.70593">
        <ele>379</ele>
        <time>2014-05-08T16:37:00Z</time>
      </trkpt>
      <trkpt lat="46.7795" lon="4.70599">
        <ele>379</ele>
        <time>2014-05-08T16:37:04Z</time>
      </trkpt>
      <trkpt lat="46.77953" lon="4.70604">
        <ele>378</ele>
        <time>2014-05-08T16:37:07Z</time>
      </trkpt>
      <trkpt lat="46.77956" lon="4.7061">
        <ele>378</ele>
        <time>2014-05-08T16:37:10Z</time>
      </trkpt>
      <trkpt lat="46.7796" lon="4.70616">
        <ele>378</ele>
        <time>2014-05-08T16:37:14Z</time>
      </trkpt>
      <trkpt lat="46.77963" lon="4.70622">
        <ele>378</ele>
        <time>2014-05-08T16:37:18Z</time>
      </trkpt>
      <trkpt lat="46.77967" lon="4.70628">
        <ele>378</ele>
        <time>2014-05-08T16:37:22Z</time>
      </trkpt>
      <trkpt lat="46.7797" lon="4.70633">
        <ele>378</ele>
        <time>2014-05-08T16:37:25Z</time>
      </trkpt>
      <trkpt lat="46.77974" lon="4.7064">
        <ele>378</ele>
        <time>2014-05-08T16:37:29Z</time>
      </trkpt>
      <trkpt lat="46.77977" lon="4.70646">
        <ele>378</ele>
        <time>2014-05-08T16:37:32Z</time>
      </trkpt>
      <trkpt lat="46.7798" lon="4.70652">
        <ele>378</ele>
        <time>2014-05-08T16:37:35Z</time>
      </trkpt>
      <trkpt lat="46.77983" lon="4.70657">
        <ele>378</ele>
        <time>2014-05-08T16:37:38Z</time>
      </trkpt>
      <trkpt lat="46.77986" lon="4.70663">
        <ele>378</ele>
        <time>2014-05-08T16:37:41Z</time>
      </trkpt>
      <trkpt lat="46.77988" lon="4.70668">
        <ele>378</ele>
        <time>2014-05-08T16:37:44Z</time>
      </trkpt>
      <trkpt lat="46.77992" lon="4.70674">
        <ele>378</ele>
        <time>2014-05-08T16:37:47Z</time>
      </trkpt>
      <trkpt lat="46.77995" lon="4.70679">
        <ele>377</ele>
        <time>2014-05-08T16:37:50Z</time>
      </trkpt>
      <trkpt lat="46.77998" lon="4.70685">
        <ele>376</ele>
        <time>2014-05-08T16:37:54Z</time>
      </trkpt>
      <trkpt lat="46.78" lon="4.70691">
        <ele>374</ele>
        <time>2014-05-08T16:37:58Z</time>
      </trkpt>
      <trkpt lat="46.78003" lon="4.70698">
        <ele>372</ele>
        <time>2014-05-08T16:38:02Z</time>
      </trkpt>
      <trkpt lat="46.78006" lon="4.70706">
        <ele>371</ele>
        <time>2014-05-08T16:38:06Z</time>
      </trkpt>
      <trkpt lat="46.78008" lon="4.70712">
        <ele>370</ele>
        <time>2014-05-08T16:38:09Z</time>
      </trkpt>
      <trkpt lat="46.78011" lon="4.70718">
        <ele>369</ele>
        <time>2014-05-08T16:38:12Z</time>
      </trkpt>
      <trkpt lat="46.78013" lon="4.70724">
        <ele>368</ele>
        <time>2014-05-08T16:38:15Z</time>
      </trkpt>
      <trkpt lat="46.78016" lon="4.70729">
        <ele>368</ele>
        <time>2014-05-08T16:38:18Z</time>
      </trkpt>
      <trkpt lat="46.78018" lon="4.70737">
        <ele>367</ele>
        <time>2014-05-08T16:38:22Z</time>
      </trkpt>
      <trkpt lat="46.7802" lon="4.70745">
        <ele>365</ele>
        <time>2014-05-08T16:38:26Z</time>
      </trkpt>
      <trkpt lat="46.78022" lon="4.70752">
        <ele>365</ele>
        <time>2014-05-08T16:38:29Z</time>
      </trkpt>
      <trkpt lat="46.78025" lon="4.70758">
        <ele>365</ele>
        <time>2014-05-08T16:38:32Z</time>
      </trkpt>
      <trkpt lat="46.78029" lon="4.70763">
        <ele>365</ele>
        <time>2014-05-08T16:38:35Z</time>
      </trkpt>
      <trkpt lat="46.78033" lon="4.7077">
        <ele>365</ele>
        <time>2014-05-08T16:38:38Z</time>
      </trkpt>
      <trkpt lat="46.78037" lon="4.70776">
        <ele>365</ele>
        <time>2014-05-08T16:38:41Z</time>
      </trkpt>
      <trkpt lat="46.78042" lon="4.70781">
        <ele>365</ele>
        <time>2014-05-08T16:38:44Z</time>
      </trkpt>
      <trkpt lat="46.78046" lon="4.70787">
        <ele>365</ele>
        <time>2014-05-08T16:38:47Z</time>
      </trkpt>
      <trkpt lat="46.78049" lon="4.70792">
        <ele>364</ele>
        <time>2014-05-08T16:38:50Z</time>
      </trkpt>
      <trkpt lat="46.78054" lon="4.70797">
        <ele>363</ele>
        <time>2014-05-08T16:38:54Z</time>
      </trkpt>
      <trkpt lat="46.78058" lon="4.70799">
        <ele>363</ele>
        <time>2014-05-08T16:38:58Z</time>
      </trkpt>
      <trkpt lat="46.78064" lon="4.70801">
        <ele>363</ele>
        <time>2014-05-08T16:39:02Z</time>
      </trkpt>
      <trkpt lat="46.78068" lon="4.70804">
        <ele>362</ele>
        <time>2014-05-08T16:39:05Z</time>
      </trkpt>
      <trkpt lat="46.7807" lon="4.70811">
        <ele>362</ele>
        <time>2014-05-08T16:39:08Z</time>
      </trkpt>
      <trkpt lat="46.78072" lon="4.70818">
        <ele>361</ele>
        <time>2014-05-08T16:39:11Z</time>
      </trkpt>
      <trkpt lat="46.78072" lon="4.70826">
        <ele>361</ele>
        <time>2014-05-08T16:39:14Z</time>
      </trkpt>
      <trkpt lat="46.78072" lon="4.70834">
        <ele>361</ele>
        <time>2014-05-08T16:39:17Z</time>
      </trkpt>
      <trkpt lat="46.78073" lon="4.70841">
        <ele>361</ele>
        <time>2014-05-08T16:39:20Z</time>
      </trkpt>
      <trkpt lat="46.78074" lon="4.70848">
        <ele>360</ele>
        <time>2014-05-08T16:39:23Z</time>
      </trkpt>
      <trkpt lat="46.78074" lon="4.70856">
        <ele>360</ele>
        <time>2014-05-08T16:39:26Z</time>
      </trkpt>
      <trkpt lat="46.78074" lon="4.70864">
        <ele>360</ele>
        <time>2014-05-08T16:39:29Z</time>
      </trkpt>
      <trkpt lat="46.78074" lon="4.70872">
        <ele>360</ele>
        <time>2014-05-08T16:39:32Z</time>
      </trkpt>
      <trkpt lat="46.78075" lon="4.70879">
        <ele>359</ele>
        <time>2014-05-08T16:39:35Z</time>
      </trkpt>
      <trkpt lat="46.78075" lon="4.70886">
        <ele>359</ele>
        <time>2014-05-08T16:39:38Z</time>
      </trkpt>
      <trkpt lat="46.78076" lon="4.70895">
        <ele>358</ele>
        <time>2014-05-08T16:39:42Z</time>
      </trkpt>
      <trkpt lat="46.78076" lon="4.70902">
        <ele>356</ele>
        <time>2014-05-08T16:39:45Z</time>
      </trkpt>
      <trkpt lat="46.78075" lon="4.70909">
        <ele>355</ele>
        <time>2014-05-08T16:39:48Z</time>
      </trkpt>
      <trkpt lat="46.78073" lon="4.70917">
        <ele>354</ele>
        <time>2014-05-08T16:39:51Z</time>
      </trkpt>
      <trkpt lat="46.78073" lon="4.70923">
        <ele>354</ele>
        <time>2014-05-08T16:39:54Z</time>
      </trkpt>
      <trkpt lat="46.78072" lon="4.7093">
        <ele>353</ele>
        <time>2014-05-08T16:39:57Z</time>
      </trkpt>
      <trkpt lat="46.7807" lon="4.70938">
        <ele>353</ele>
        <time>2014-05-08T16:40:00Z</time>
      </trkpt>
      <trkpt lat="46.78069" lon="4.70945">
        <ele>352</ele>
        <time>2014-05-08T16:40:03Z</time>
      </trkpt>
      <trkpt lat="46.78067" lon="4.70951">
        <ele>352</ele>
        <time>2014-05-08T16:40:06Z</time>
      </trkpt>
      <trkpt lat="46.78066" lon="4.70959">
        <ele>352</ele>
        <time>2014-05-08T16:40:09Z</time>
      </trkpt>
      <trkpt lat="46.78063" lon="4.70966">
        <ele>352</ele>
        <time>2014-05-08T16:40:12Z</time>
      </trkpt>
      <trkpt lat="46.78061" lon="4.70973">
        <ele>351</ele>
        <time>2014-05-08T16:40:15Z</time>
      </trkpt>
      <trkpt lat="46.7806" lon="4.7098">
        <ele>351</ele>
        <time>2014-05-08T16:40:18Z</time>
      </trkpt>
      <trkpt lat="46.78058" lon="4.70986">
        <ele>350</ele>
        <time>2014-05-08T16:40:21Z</time>
      </trkpt>
      <trkpt lat="46.78056" lon="4.70993">
        <ele>350</ele>
        <time>2014-05-08T16:40:24Z</time>
      </trkpt>
      <trkpt lat="46.78054" lon="4.70999">
        <ele>349</ele>
        <time>2014-05-08T16:40:27Z</time>
      </trkpt>
      <trkpt lat="46.78053" lon="4.71005">
        <ele>349</ele>
        <time>2014-05-08T16:40:30Z</time>
      </trkpt>
      <trkpt lat="46.78052" lon="4.71012">
        <ele>349</ele>
        <time>2014-05-08T16:40:33Z</time>
      </trkpt>
      <trkpt lat="46.7805" lon="4.71019">
        <ele>348</ele>
        <time>2014-05-08T16:40:36Z</time>
      </trkpt>
      <trkpt lat="46.78049" lon="4.71025">
        <ele>347</ele>
        <time>2014-05-08T16:40:39Z</time>
      </trkpt>
      <trkpt lat="46.78047" lon="4.71032">
        <ele>346</ele>
        <time>2014-05-08T16:40:42Z</time>
      </trkpt>
      <trkpt lat="46.78046" lon="4.71038">
        <ele>346</ele>
        <time>2014-05-08T16:40:45Z</time>
      </trkpt>
      <trkpt lat="46.78044" lon="4.71045">
        <ele>346</ele>
        <time>2014-05-08T16:40:48Z</time>
      </trkpt>
      <trkpt lat="46.78043" lon="4.71051">
        <ele>346</ele>
        <time>2014-05-08T16:40:51Z</time>
      </trkpt>
      <trkpt lat="46.78041" lon="4.71059">
        <ele>346</ele>
        <time>2014-05-08T16:40:55Z</time>
      </trkpt>
      <trkpt lat="46.78039" lon="4.71066">
        <ele>346</ele>
        <time>2014-05-08T16:40:58Z</time>
      </trkpt>
      <trkpt lat="46.78038" lon="4.71073">
        <ele>346</ele>
        <time>2014-05-08T16:41:01Z</time>
      </trkpt>
      <trkpt lat="46.78038" lon="4.7108">
        <ele>345</ele>
        <time>2014-05-08T16:41:04Z</time>
      </trkpt>
      <trkpt lat="46.78037" lon="4.71086">
        <ele>345</ele>
        <time>2014-05-08T16:41:07Z</time>
      </trkpt>
      <trkpt lat="46.78037" lon="4.71093">
        <ele>345</ele>
        <time>2014-05-08T16:41:10Z</time>
      </trkpt>
      <trkpt lat="46.78036" lon="4.711">
        <ele>344</ele>
        <time>2014-05-08T16:41:13Z</time>
      </trkpt>
      <trkpt lat="46.78035" lon="4.71107">
        <ele>344</ele>
        <time>2014-05-08T16:41:16Z</time>
      </trkpt>
      <trkpt lat="46.78035" lon="4.71113">
        <ele>344</ele>
        <time>2014-05-08T16:41:19Z</time>
      </trkpt>
      <trkpt lat="46.78034" lon="4.7112">
        <ele>343</ele>
        <time>2014-05-08T16:41:22Z</time>
      </trkpt>
      <trkpt lat="46.78034" lon="4.71126">
        <ele>343</ele>
        <time>2014-05-08T16:41:25Z</time>
      </trkpt>
      <trkpt lat="46.78033" lon="4.71133">
        <ele>343</ele>
        <time>2014-05-08T16:41:28Z</time>
      </trkpt>
      <trkpt lat="46.78033" lon="4.7114">
        <ele>342</ele>
        <time>2014-05-08T16:41:31Z</time>
      </trkpt>
      <trkpt lat="46.78033" lon="4.71147">
        <ele>342</ele>
        <time>2014-05-08T16:41:34Z</time>
      </trkpt>
      <trkpt lat="46.78032" lon="4.71153">
        <ele>342</ele>
        <time>2014-05-08T16:41:37Z</time>
      </trkpt>
      <trkpt lat="46.78032" lon="4.71162">
        <ele>342</ele>
        <time>2014-05-08T16:41:41Z</time>
      </trkpt>
      <trkpt lat="46.78031" lon="4.7117">
        <ele>343</ele>
        <time>2014-05-08T16:41:45Z</time>
      </trkpt>
      <trkpt lat="46.78031" lon="4.71179">
        <ele>343</ele>
        <time>2014-05-08T16:41:49Z</time>
      </trkpt>
      <trkpt lat="46.7803" lon="4.71187">
        <ele>343</ele>
        <time>2014-05-08T16:41:53Z</time>
      </trkpt>
      <trkpt lat="46.7803" lon="4.71194">
        <ele>344</ele>
        <time>2014-05-08T16:41:56Z</time>
      </trkpt>
      <trkpt lat="46.78031" lon="4.71201">
        <ele>344</ele>
        <time>2014-05-08T16:41:59Z</time>
      </trkpt>
      <trkpt lat="46.78032" lon="4.71209">
        <ele>344</ele>
        <time>2014-05-08T16:42:03Z</time>
      </trkpt>
      <trkpt lat="46.78033" lon="4.71217">
        <ele>344</ele>
        <time>2014-05-08T16:42:07Z</time>
      </trkpt>
      <trkpt lat="46.78034" lon="4.71225">
        <ele>344</ele>
        <time>2014-05-08T16:42:11Z</time>
      </trkpt>
      <trkpt lat="46.78035" lon="4.71233">
        <ele>344</ele>
        <time>2014-05-08T16:42:15Z</time>
      </trkpt>
      <trkpt lat="46.78036" lon="4.71241">
        <ele>344</ele>
        <time>2014-05-08T16:42:19Z</time>
      </trkpt>
      <trkpt lat="46.78037" lon="4.71248">
        <ele>344</ele>
        <time>2014-05-08T16:42:22Z</time>
      </trkpt>
      <trkpt lat="46.78038" lon="4.71256">
        <ele>344</ele>
        <time>2014-05-08T16:42:26Z</time>
      </trkpt>
      <trkpt lat="46.78039" lon="4.71264">
        <ele>344</ele>
        <time>2014-05-08T16:42:30Z</time>
      </trkpt>
      <trkpt lat="46.78039" lon="4.71272">
        <ele>344</ele>
        <time>2014-05-08T16:42:34Z</time>
      </trkpt>
      <trkpt lat="46.7804" lon="4.71281">
        <ele>344</ele>
        <time>2014-05-08T16:42:38Z</time>
      </trkpt>
      <trkpt lat="46.7804" lon="4.71289">
        <ele>344</ele>
        <time>2014-05-08T16:42:42Z</time>
      </trkpt>
      <trkpt lat="46.78042" lon="4.71297">
        <ele>344</ele>
        <time>2014-05-08T16:42:46Z</time>
      </trkpt>
      <trkpt lat="46.78043" lon="4.71305">
        <ele>344</ele>
        <time>2014-05-08T16:42:50Z</time>
      </trkpt>
      <trkpt lat="46.78044" lon="4.71313">
        <ele>344</ele>
        <time>2014-05-08T16:42:54Z</time>
      </trkpt>
      <trkpt lat="46.78046" lon="4.71321">
        <ele>344</ele>
        <time>2014-05-08T16:42:58Z</time>
      </trkpt>
      <trkpt lat="46.78048" lon="4.7133">
        <ele>343</ele>
        <time>2014-05-08T16:43:02Z</time>
      </trkpt>
      <trkpt lat="46.7805" lon="4.71337">
        <ele>343</ele>
        <time>2014-05-08T16:43:06Z</time>
      </trkpt>
      <trkpt lat="46.78051" lon="4.71345">
        <ele>343</ele>
        <time>2014-05-08T16:43:10Z</time>
      </trkpt>
      <trkpt lat="46.78053" lon="4.71352">
        <ele>343</ele>
        <time>2014-05-08T16:43:14Z</time>
      </trkpt>
      <trkpt lat="46.78054" lon="4.7136">
        <ele>344</ele>
        <time>2014-05-08T16:43:18Z</time>
      </trkpt>
      <trkpt lat="46.78056" lon="4.71368">
        <ele>344</ele>
        <time>2014-05-08T16:43:22Z</time>
      </trkpt>
      <trkpt lat="46.78057" lon="4.71375">
        <ele>345</ele>
        <time>2014-05-08T16:43:26Z</time>
      </trkpt>
      <trkpt lat="46.78058" lon="4.71383">
        <ele>345</ele>
        <time>2014-05-08T16:43:30Z</time>
      </trkpt>
      <trkpt lat="46.78058" lon="4.71391">
        <ele>345</ele>
        <time>2014-05-08T16:43:34Z</time>
      </trkpt>
      <trkpt lat="46.78059" lon="4.71399">
        <ele>345</ele>
        <time>2014-05-08T16:43:38Z</time>
      </trkpt>
      <trkpt lat="46.7806" lon="4.71408">
        <ele>345</ele>
        <time>2014-05-08T16:43:42Z</time>
      </trkpt>
      <trkpt lat="46.78061" lon="4.71415">
        <ele>345</ele>
        <time>2014-05-08T16:43:46Z</time>
      </trkpt>
      <trkpt lat="46.78062" lon="4.71423">
        <ele>345</ele>
        <time>2014-05-08T16:43:50Z</time>
      </trkpt>
      <trkpt lat="46.78063" lon="4.71431">
        <ele>344</ele>
        <time>2014-05-08T16:43:54Z</time>
      </trkpt>
      <trkpt lat="46.78064" lon="4.71439">
        <ele>345</ele>
        <time>2014-05-08T16:43:58Z</time>
      </trkpt>
      <trkpt lat="46.78065" lon="4.71447">
        <ele>345</ele>
        <time>2014-05-08T16:44:02Z</time>
      </trkpt>
      <trkpt lat="46.78066" lon="4.71455">
        <ele>345</ele>
        <time>2014-05-08T16:44:06Z</time>
      </trkpt>
      <trkpt lat="46.78068" lon="4.71463">
        <ele>345</ele>
        <time>2014-05-08T16:44:10Z</time>
      </trkpt>
      <trkpt lat="46.7807" lon="4.7147">
        <ele>346</ele>
        <time>2014-05-08T16:44:14Z</time>
      </trkpt>
      <trkpt lat="46.78073" lon="4.71478">
        <ele>346</ele>
        <time>2014-05-08T16:44:18Z</time>
      </trkpt>
      <trkpt lat="46.78075" lon="4.71485">
        <ele>347</ele>
        <time>2014-05-08T16:44:22Z</time>
      </trkpt>
      <trkpt lat="46.78078" lon="4.71491">
        <ele>347</ele>
        <time>2014-05-08T16:44:26Z</time>
      </trkpt>
      <trkpt lat="46.7808" lon="4.71498">
        <ele>347</ele>
        <time>2014-05-08T16:44:30Z</time>
      </trkpt>
      <trkpt lat="46.78083" lon="4.71506">
        <ele>347</ele>
        <time>2014-05-08T16:44:34Z</time>
      </trkpt>
      <trkpt lat="46.78085" lon="4.71512">
        <ele>347</ele>
        <time>2014-05-08T16:44:37Z</time>
      </trkpt>
      <trkpt lat="46.78087" lon="4.71518">
        <ele>347</ele>
        <time>2014-05-08T16:44:40Z</time>
      </trkpt>
      <trkpt lat="46.78088" lon="4.71524">
        <ele>347</ele>
        <time>2014-05-08T16:44:43Z</time>
      </trkpt>
      <trkpt lat="46.7809" lon="4.71531">
        <ele>347</ele>
        <time>2014-05-08T16:44:46Z</time>
      </trkpt>
      <trkpt lat="46.78093" lon="4.71538">
        <ele>347</ele>
        <time>2014-05-08T16:44:50Z</time>
      </trkpt>
      <trkpt lat="46.78095" lon="4.71546">
        <ele>348</ele>
        <time>2014-05-08T16:44:54Z</time>
      </trkpt>
      <trkpt lat="46.78096" lon="4.71553">
        <ele>348</ele>
        <time>2014-05-08T16:44:57Z</time>
      </trkpt>
      <trkpt lat="46.78099" lon="4.7156">
        <ele>348</ele>
        <time>2014-05-08T16:45:00Z</time>
      </trkpt>
      <trkpt lat="46.78101" lon="4.71566">
        <ele>348</ele>
        <time>2014-05-08T16:45:03Z</time>
      </trkpt>
      <trkpt lat="46.78103" lon="4.71573">
        <ele>348</ele>
        <time>2014-05-08T16:45:06Z</time>
      </trkpt>
      <trkpt lat="46.78105" lon="4.71579">
        <ele>348</ele>
        <time>2014-05-08T16:45:09Z</time>
      </trkpt>
      <trkpt lat="46.78107" lon="4.71585">
        <ele>348</ele>
        <time>2014-05-08T16:45:12Z</time>
      </trkpt>
      <trkpt lat="46.78108" lon="4.71591">
        <ele>348</ele>
        <time>2014-05-08T16:45:15Z</time>
      </trkpt>
      <trkpt lat="46.78111" lon="4.71599">
        <ele>347</ele>
        <time>2014-05-08T16:45:19Z</time>
      </trkpt>
      <trkpt lat="46.78113" lon="4.71605">
        <ele>347</ele>
        <time>2014-05-08T16:45:22Z</time>
      </trkpt>
      <trkpt lat="46.78115" lon="4.71612">
        <ele>348</ele>
        <time>2014-05-08T16:45:25Z</time>
      </trkpt>
      <trkpt lat="46.78117" lon="4.71618">
        <ele>348</ele>
        <time>2014-05-08T16:45:28Z</time>
      </trkpt>
      <trkpt lat="46.7812" lon="4.71626">
        <ele>348</ele>
        <time>2014-05-08T16:45:32Z</time>
      </trkpt>
      <trkpt lat="46.7812" lon="4.71632">
        <ele>348</ele>
        <time>2014-05-08T16:45:35Z</time>
      </trkpt>
      <trkpt lat="46.78122" lon="4.7164">
        <ele>347</ele>
        <time>2014-05-08T16:45:39Z</time>
      </trkpt>
      <trkpt lat="46.78124" lon="4.71648">
        <ele>347</ele>
        <time>2014-05-08T16:45:43Z</time>
      </trkpt>
      <trkpt lat="46.78125" lon="4.71655">
        <ele>347</ele>
        <time>2014-05-08T16:45:46Z</time>
      </trkpt>
      <trkpt lat="46.78127" lon="4.71661">
        <ele>346</ele>
        <time>2014-05-08T16:45:49Z</time>
      </trkpt>
      <trkpt lat="46.78129" lon="4.71668">
        <ele>346</ele>
        <time>2014-05-08T16:45:52Z</time>
      </trkpt>
      <trkpt lat="46.78131" lon="4.71674">
        <ele>345</ele>
        <time>2014-05-08T16:45:55Z</time>
      </trkpt>
      <trkpt lat="46.78132" lon="4.7168">
        <ele>345</ele>
        <time>2014-05-08T16:45:58Z</time>
      </trkpt>
      <trkpt lat="46.78134" lon="4.71686">
        <ele>345</ele>
        <time>2014-05-08T16:46:01Z</time>
      </trkpt>
      <trkpt lat="46.78136" lon="4.71694">
        <ele>345</ele>
        <time>2014-05-08T16:46:05Z</time>
      </trkpt>
      <trkpt lat="46.78138" lon="4.71702">
        <ele>345</ele>
        <time>2014-05-08T16:46:11Z</time>
      </trkpt>
      <trkpt lat="46.78139" lon="4.71709">
        <ele>345</ele>
        <time>2014-05-08T16:46:14Z</time>
      </trkpt>
      <trkpt lat="46.78141" lon="4.71716">
        <ele>345</ele>
        <time>2014-05-08T16:46:17Z</time>
      </trkpt>
      <trkpt lat="46.78143" lon="4.71722">
        <ele>345</ele>
        <time>2014-05-08T16:46:20Z</time>
      </trkpt>
      <trkpt lat="46.78145" lon="4.71729">
        <ele>344</ele>
        <time>2014-05-08T16:46:23Z</time>
      </trkpt>
      <trkpt lat="46.78147" lon="4.71736">
        <ele>344</ele>
        <time>2014-05-08T16:46:27Z</time>
      </trkpt>
      <trkpt lat="46.78149" lon="4.71742">
        <ele>344</ele>
        <time>2014-05-08T16:46:30Z</time>
      </trkpt>
      <trkpt lat="46.7815" lon="4.71748">
        <ele>344</ele>
        <time>2014-05-08T16:46:33Z</time>
      </trkpt>
      <trkpt lat="46.78152" lon="4.71756">
        <ele>343</ele>
        <time>2014-05-08T16:46:37Z</time>
      </trkpt>
      <trkpt lat="46.78154" lon="4.71764">
        <ele>343</ele>
        <time>2014-05-08T16:46:41Z</time>
      </trkpt>
      <trkpt lat="46.78156" lon="4.71771">
        <ele>343</ele>
        <time>2014-05-08T16:46:45Z</time>
      </trkpt>
      <trkpt lat="46.78157" lon="4.71778">
        <ele>342</ele>
        <time>2014-05-08T16:46:49Z</time>
      </trkpt>
      <trkpt lat="46.78159" lon="4.71786">
        <ele>342</ele>
        <time>2014-05-08T16:46:54Z</time>
      </trkpt>
      <trkpt lat="46.78161" lon="4.71792">
        <ele>342</ele>
        <time>2014-05-08T16:46:58Z</time>
      </trkpt>
      <trkpt lat="46.78164" lon="4.71799">
        <ele>342</ele>
        <time>2014-05-08T16:47:02Z</time>
      </trkpt>
      <trkpt lat="46.78167" lon="4.71806">
        <ele>343</ele>
        <time>2014-05-08T16:47:06Z</time>
      </trkpt>
      <trkpt lat="46.7817" lon="4.71812">
        <ele>343</ele>
        <time>2014-05-08T16:47:10Z</time>
      </trkpt>
      <trkpt lat="46.78173" lon="4.71817">
        <ele>344</ele>
        <time>2014-05-08T16:47:14Z</time>
      </trkpt>
      <trkpt lat="46.78177" lon="4.71823">
        <ele>344</ele>
        <time>2014-05-08T16:47:18Z</time>
      </trkpt>
      <trkpt lat="46.7818" lon="4.71828">
        <ele>344</ele>
        <time>2014-05-08T16:47:21Z</time>
      </trkpt>
      <trkpt lat="46.78184" lon="4.71833">
        <ele>345</ele>
        <time>2014-05-08T16:47:25Z</time>
      </trkpt>
      <trkpt lat="46.78189" lon="4.71839">
        <ele>346</ele>
        <time>2014-05-08T16:47:29Z</time>
      </trkpt>
      <trkpt lat="46.78193" lon="4.71843">
        <ele>346</ele>
        <time>2014-05-08T16:47:33Z</time>
      </trkpt>
      <trkpt lat="46.78198" lon="4.71848">
        <ele>347</ele>
        <time>2014-05-08T16:47:37Z</time>
      </trkpt>
      <trkpt lat="46.78203" lon="4.71851">
        <ele>348</ele>
        <time>2014-05-08T16:47:41Z</time>
      </trkpt>
      <trkpt lat="46.78207" lon="4.71852">
        <ele>348</ele>
        <time>2014-05-08T16:47:44Z</time>
      </trkpt>
      <trkpt lat="46.78212" lon="4.71854">
        <ele>350</ele>
        <time>2014-05-08T16:47:48Z</time>
      </trkpt>
      <trkpt lat="46.78218" lon="4.71855">
        <ele>351</ele>
        <time>2014-05-08T16:47:53Z</time>
      </trkpt>
      <trkpt lat="46.78222" lon="4.71857">
        <ele>351</ele>
        <time>2014-05-08T16:47:57Z</time>
      </trkpt>
      <trkpt lat="46.78227" lon="4.7186">
        <ele>352</ele>
        <time>2014-05-08T16:48:01Z</time>
      </trkpt>
      <trkpt lat="46.78231" lon="4.71865">
        <ele>353</ele>
        <time>2014-05-08T16:48:05Z</time>
      </trkpt>
      <trkpt lat="46.78235" lon="4.71869">
        <ele>353</ele>
        <time>2014-05-08T16:48:08Z</time>
      </trkpt>
      <trkpt lat="46.78238" lon="4.71875">
        <ele>354</ele>
        <time>2014-05-08T16:48:11Z</time>
      </trkpt>
      <trkpt lat="46.78241" lon="4.7188">
        <ele>354</ele>
        <time>2014-05-08T16:48:14Z</time>
      </trkpt>
      <trkpt lat="46.78243" lon="4.71886">
        <ele>354</ele>
        <time>2014-05-08T16:48:17Z</time>
      </trkpt>
      <trkpt lat="46.78246" lon="4.71892">
        <ele>354</ele>
        <time>2014-05-08T16:48:20Z</time>
      </trkpt>
      <trkpt lat="46.78248" lon="4.71898">
        <ele>354</ele>
        <time>2014-05-08T16:48:24Z</time>
      </trkpt>
      <trkpt lat="46.78249" lon="4.71906">
        <ele>354</ele>
        <time>2014-05-08T16:48:28Z</time>
      </trkpt>
      <trkpt lat="46.7825" lon="4.71913">
        <ele>355</ele>
        <time>2014-05-08T16:48:33Z</time>
      </trkpt>
      <trkpt lat="46.78251" lon="4.71921">
        <ele>356</ele>
        <time>2014-05-08T16:48:38Z</time>
      </trkpt>
      <trkpt lat="46.78252" lon="4.71928">
        <ele>356</ele>
        <time>2014-05-08T16:48:42Z</time>
      </trkpt>
      <trkpt lat="46.78252" lon="4.71935">
        <ele>357</ele>
        <time>2014-05-08T16:48:46Z</time>
      </trkpt>
      <trkpt lat="46.78252" lon="4.71943">
        <ele>358</ele>
        <time>2014-05-08T16:48:50Z</time>
      </trkpt>
      <trkpt lat="46.78251" lon="4.71951">
        <ele>359</ele>
        <time>2014-05-08T16:48:54Z</time>
      </trkpt>
      <trkpt lat="46.78252" lon="4.71959">
        <ele>359</ele>
        <time>2014-05-08T16:48:58Z</time>
      </trkpt>
      <trkpt lat="46.78253" lon="4.71967">
        <ele>359</ele>
        <time>2014-05-08T16:49:02Z</time>
      </trkpt>
      <trkpt lat="46.78254" lon="4.71974">
        <ele>359</ele>
        <time>2014-05-08T16:49:06Z</time>
      </trkpt>
      <trkpt lat="46.78253" lon="4.71981">
        <ele>358</ele>
        <time>2014-05-08T16:49:09Z</time>
      </trkpt>
      <trkpt lat="46.78252" lon="4.71989">
        <ele>358</ele>
        <time>2014-05-08T16:49:12Z</time>
      </trkpt>
      <trkpt lat="46.78252" lon="4.71996">
        <ele>358</ele>
        <time>2014-05-08T16:49:15Z</time>
      </trkpt>
      <trkpt lat="46.78251" lon="4.72004">
        <ele>357</ele>
        <time>2014-05-08T16:49:19Z</time>
      </trkpt>
      <trkpt lat="46.7825" lon="4.72012">
        <ele>357</ele>
        <time>2014-05-08T16:49:22Z</time>
      </trkpt>
      <trkpt lat="46.7825" lon="4.72018">
        <ele>356</ele>
        <time>2014-05-08T16:49:25Z</time>
      </trkpt>
      <trkpt lat="46.78249" lon="4.72026">
        <ele>356</ele>
        <time>2014-05-08T16:49:28Z</time>
      </trkpt>
      <trkpt lat="46.78249" lon="4.72034">
        <ele>356</ele>
        <time>2014-05-08T16:49:31Z</time>
      </trkpt>
      <trkpt lat="46.78248" lon="4.72041">
        <ele>355</ele>
        <time>2014-05-08T16:49:34Z</time>
      </trkpt>
      <trkpt lat="46.78248" lon="4.72048">
        <ele>355</ele>
        <time>2014-05-08T16:49:37Z</time>
      </trkpt>
      <trkpt lat="46.78247" lon="4.72056">
        <ele>355</ele>
        <time>2014-05-08T16:49:40Z</time>
      </trkpt>
      <trkpt lat="46.78247" lon="4.72063">
        <ele>355</ele>
        <time>2014-05-08T16:49:43Z</time>
      </trkpt>
      <trkpt lat="46.78246" lon="4.72069">
        <ele>356</ele>
        <time>2014-05-08T16:49:46Z</time>
      </trkpt>
      <trkpt lat="46.78247" lon="4.72076">
        <ele>356</ele>
        <time>2014-05-08T16:49:49Z</time>
      </trkpt>
      <trkpt lat="46.78248" lon="4.72083">
        <ele>356</ele>
        <time>2014-05-08T16:49:52Z</time>
      </trkpt>
      <trkpt lat="46.78248" lon="4.72091">
        <ele>355</ele>
        <time>2014-05-08T16:49:56Z</time>
      </trkpt>
      <trkpt lat="46.78248" lon="4.72098">
        <ele>355</ele>
        <time>2014-05-08T16:49:59Z</time>
      </trkpt>
      <trkpt lat="46.78248" lon="4.72106">
        <ele>354</ele>
        <time>2014-05-08T16:50:03Z</time>
      </trkpt>
      <trkpt lat="46.78248" lon="4.72113">
        <ele>354</ele>
        <time>2014-05-08T16:50:06Z</time>
      </trkpt>
      <trkpt lat="46.78248" lon="4.72121">
        <ele>353</ele>
        <time>2014-05-08T16:50:09Z</time>
      </trkpt>
      <trkpt lat="46.78248" lon="4.72128">
        <ele>353</ele>
        <time>2014-05-08T16:50:12Z</time>
      </trkpt>
      <trkpt lat="46.78248" lon="4.72137">
        <ele>352</ele>
        <time>2014-05-08T16:50:16Z</time>
      </trkpt>
      <trkpt lat="46.78248" lon="4.72143">
        <ele>351</ele>
        <time>2014-05-08T16:50:19Z</time>
      </trkpt>
      <trkpt lat="46.78248" lon="4.72151">
        <ele>350</ele>
        <time>2014-05-08T16:50:23Z</time>
      </trkpt>
      <trkpt lat="46.78249" lon="4.72159">
        <ele>349</ele>
        <time>2014-05-08T16:50:27Z</time>
      </trkpt>
      <trkpt lat="46.78249" lon="4.72167">
        <ele>349</ele>
        <time>2014-05-08T16:50:31Z</time>
      </trkpt>
      <trkpt lat="46.78252" lon="4.72172">
        <ele>348</ele>
        <time>2014-05-08T16:50:38Z</time>
      </trkpt>
      <trkpt lat="46.78257" lon="4.72176">
        <ele>348</ele>
        <time>2014-05-08T16:50:43Z</time>
      </trkpt>
      <trkpt lat="46.78261" lon="4.72179">
        <ele>348</ele>
        <time>2014-05-08T16:50:47Z</time>
      </trkpt>
      <trkpt lat="46.78265" lon="4.72183">
        <ele>348</ele>
        <time>2014-05-08T16:50:52Z</time>
      </trkpt>
      <trkpt lat="46.7827" lon="4.72188">
        <ele>350</ele>
        <time>2014-05-08T16:50:57Z</time>
      </trkpt>
      <trkpt lat="46.78273" lon="4.72193">
        <ele>350</ele>
        <time>2014-05-08T16:51:01Z</time>
      </trkpt>
      <trkpt lat="46.78277" lon="4.72196">
        <ele>350</ele>
        <time>2014-05-08T16:51:05Z</time>
      </trkpt>
      <trkpt lat="46.78281" lon="4.72201">
        <ele>351</ele>
        <time>2014-05-08T16:51:10Z</time>
      </trkpt>
      <trkpt lat="46.78286" lon="4.72204">
        <ele>351</ele>
        <time>2014-05-08T16:51:14Z</time>
      </trkpt>
      <trkpt lat="46.78291" lon="4.72208">
        <ele>350</ele>
        <time>2014-05-08T16:51:18Z</time>
      </trkpt>
      <trkpt lat="46.78295" lon="4.72211">
        <ele>350</ele>
        <time>2014-05-08T16:51:22Z</time>
      </trkpt>
      <trkpt lat="46.783" lon="4.72214">
        <ele>350</ele>
        <time>2014-05-08T16:51:26Z</time>
      </trkpt>
      <trkpt lat="46.78304" lon="4.72219">
        <ele>349</ele>
        <time>2014-05-08T16:51:31Z</time>
      </trkpt>
      <trkpt lat="46.78308" lon="4.72222">
        <ele>348</ele>
        <time>2014-05-08T16:51:36Z</time>
      </trkpt>
      <trkpt lat="46.78313" lon="4.72225">
        <ele>347</ele>
        <time>2014-05-08T16:51:41Z</time>
      </trkpt>
      <trkpt lat="46.78318" lon="4.72227">
        <ele>347</ele>
        <time>2014-05-08T16:51:45Z</time>
      </trkpt>
      <trkpt lat="46.78322" lon="4.72229">
        <ele>346</ele>
        <time>2014-05-08T16:51:49Z</time>
      </trkpt>
      <trkpt lat="46.78326" lon="4.72233">
        <ele>346</ele>
        <time>2014-05-08T16:51:53Z</time>
      </trkpt>
      <trkpt lat="46.78331" lon="4.72236">
        <ele>345</ele>
        <time>2014-05-08T16:51:57Z</time>
      </trkpt>
      <trkpt lat="46.78335" lon="4.72239">
        <ele>345</ele>
        <time>2014-05-08T16:52:01Z</time>
      </trkpt>
      <trkpt lat="46.78339" lon="4.72242">
        <ele>344</ele>
        <time>2014-05-08T16:52:05Z</time>
      </trkpt>
      <trkpt lat="46.78343" lon="4.72245">
        <ele>343</ele>
        <time>2014-05-08T16:52:09Z</time>
      </trkpt>
      <trkpt lat="46.78347" lon="4.72248">
        <ele>343</ele>
        <time>2014-05-08T16:52:13Z</time>
      </trkpt>
      <trkpt lat="46.78352" lon="4.72251">
        <ele>342</ele>
        <time>2014-05-08T16:52:18Z</time>
      </trkpt>
      <trkpt lat="46.78358" lon="4.72254">
        <ele>341</ele>
        <time>2014-05-08T16:52:22Z</time>
      </trkpt>
      <trkpt lat="46.78362" lon="4.72256">
        <ele>341</ele>
        <time>2014-05-08T16:52:26Z</time>
      </trkpt>
      <trkpt lat="46.78367" lon="4.7226">
        <ele>339</ele>
        <time>2014-05-08T16:52:31Z</time>
      </trkpt>
      <trkpt lat="46.78371" lon="4.72262">
        <ele>339</ele>
        <time>2014-05-08T16:52:36Z</time>
      </trkpt>
      <trkpt lat="46.78377" lon="4.72263">
        <ele>338</ele>
        <time>2014-05-08T16:52:41Z</time>
      </trkpt>
      <trkpt lat="46.78381" lon="4.72265">
        <ele>337</ele>
        <time>2014-05-08T16:52:45Z</time>
      </trkpt>
      <trkpt lat="46.78387" lon="4.72266">
        <ele>335</ele>
        <time>2014-05-08T16:52:49Z</time>
      </trkpt>
      <trkpt lat="46.78392" lon="4.72268">
        <ele>333</ele>
        <time>2014-05-08T16:52:53Z</time>
      </trkpt>
      <trkpt lat="46.78397" lon="4.7227">
        <ele>332</ele>
        <time>2014-05-08T16:52:57Z</time>
      </trkpt>
      <trkpt lat="46.78401" lon="4.72272">
        <ele>331</ele>
        <time>2014-05-08T16:53:01Z</time>
      </trkpt>
      <trkpt lat="46.78406" lon="4.72274">
        <ele>331</ele>
        <time>2014-05-08T16:53:05Z</time>
      </trkpt>
      <trkpt lat="46.7841" lon="4.72275">
        <ele>331</ele>
        <time>2014-05-08T16:53:09Z</time>
      </trkpt>
      <trkpt lat="46.78415" lon="4.72277">
        <ele>331</ele>
        <time>2014-05-08T16:53:14Z</time>
      </trkpt>
      <trkpt lat="46.7842" lon="4.72277">
        <ele>331</ele>
        <time>2014-05-08T16:53:19Z</time>
      </trkpt>
      <trkpt lat="46.78425" lon="4.72279">
        <ele>331</ele>
        <time>2014-05-08T16:53:25Z</time>
      </trkpt>
      <trkpt lat="46.7843" lon="4.7228">
        <ele>331</ele>
        <time>2014-05-08T16:53:30Z</time>
      </trkpt>
      <trkpt lat="46.78435" lon="4.72283">
        <ele>331</ele>
        <time>2014-05-08T16:53:35Z</time>
      </trkpt>
      <trkpt lat="46.7844" lon="4.72287">
        <ele>331</ele>
        <time>2014-05-08T16:53:40Z</time>
      </trkpt>
      <trkpt lat="46.78445" lon="4.72289">
        <ele>330</ele>
        <time>2014-05-08T16:53:46Z</time>
      </trkpt>
      <trkpt lat="46.7845" lon="4.72292">
        <ele>329</ele>
        <time>2014-05-08T16:53:51Z</time>
      </trkpt>
      <trkpt lat="46.78455" lon="4.72295">
        <ele>329</ele>
        <time>2014-05-08T16:53:55Z</time>
      </trkpt>
      <trkpt lat="46.78457" lon="4.72302">
        <ele>328</ele>
        <time>2014-05-08T16:54:01Z</time>
      </trkpt>
      <trkpt lat="46.78458" lon="4.7231">
        <ele>328</ele>
        <time>2014-05-08T16:54:06Z</time>
      </trkpt>
      <trkpt lat="46.78462" lon="4.72316">
        <ele>327</ele>
        <time>2014-05-08T16:54:10Z</time>
      </trkpt>
      <trkpt lat="46.78465" lon="4.72322">
        <ele>326</ele>
        <time>2014-05-08T16:54:14Z</time>
      </trkpt>
      <trkpt lat="46.78468" lon="4.72329">
        <ele>325</ele>
        <time>2014-05-08T16:54:18Z</time>
      </trkpt>
      <trkpt lat="46.78472" lon="4.72335">
        <ele>325</ele>
        <time>2014-05-08T16:54:23Z</time>
      </trkpt>
      <trkpt lat="46.78475" lon="4.72342">
        <ele>324</ele>
        <time>2014-05-08T16:54:27Z</time>
      </trkpt>
      <trkpt lat="46.78478" lon="4.72348">
        <ele>323</ele>
        <time>2014-05-08T16:54:31Z</time>
      </trkpt>
      <trkpt lat="46.78482" lon="4.72353">
        <ele>322</ele>
        <time>2014-05-08T16:54:36Z</time>
      </trkpt>
      <trkpt lat="46.78486" lon="4.72357">
        <ele>321</ele>
        <time>2014-05-08T16:54:40Z</time>
      </trkpt>
      <trkpt lat="46.7849" lon="4.72361">
        <ele>320</ele>
        <time>2014-05-08T16:54:44Z</time>
      </trkpt>
      <trkpt lat="46.78494" lon="4.72366">
        <ele>320</ele>
        <time>2014-05-08T16:54:48Z</time>
      </trkpt>
      <trkpt lat="46.78497" lon="4.72372">
        <ele>319</ele>
        <time>2014-05-08T16:54:53Z</time>
      </trkpt>
      <trkpt lat="46.78499" lon="4.72378">
        <ele>318</ele>
        <time>2014-05-08T16:54:57Z</time>
      </trkpt>
      <trkpt lat="46.78503" lon="4.72383">
        <ele>317</ele>
        <time>2014-05-08T16:55:02Z</time>
      </trkpt>
      <trkpt lat="46.78507" lon="4.72389">
        <ele>317</ele>
        <time>2014-05-08T16:55:06Z</time>
      </trkpt>
      <trkpt lat="46.7851" lon="4.72397">
        <ele>316</ele>
        <time>2014-05-08T16:55:09Z</time>
      </trkpt>
      <trkpt lat="46.78512" lon="4.72402">
        <ele>316</ele>
        <time>2014-05-08T16:55:11Z</time>
      </trkpt>
      <trkpt lat="46.78515" lon="4.7241">
        <ele>316</ele>
        <time>2014-05-08T16:55:14Z</time>
      </trkpt>
      <trkpt lat="46.78519" lon="4.72416">
        <ele>315</ele>
        <time>2014-05-08T16:55:18Z</time>
      </trkpt>
      <trkpt lat="46.78519" lon="4.72423">
        <ele>315</ele>
        <time>2014-05-08T16:55:22Z</time>
      </trkpt>
      <trkpt lat="46.78517" lon="4.72429">
        <ele>315</ele>
        <time>2014-05-08T16:55:27Z</time>
      </trkpt>
      <trkpt lat="46.78517" lon="4.72436">
        <ele>314</ele>
        <time>2014-05-08T16:55:31Z</time>
      </trkpt>
      <trkpt lat="46.78517" lon="4.72444">
        <ele>313</ele>
        <time>2014-05-08T16:55:34Z</time>
      </trkpt>
      <trkpt lat="46.78519" lon="4.72453">
        <ele>312</ele>
        <time>2014-05-08T16:55:38Z</time>
      </trkpt>
      <trkpt lat="46.78523" lon="4.72461">
        <ele>311</ele>
        <time>2014-05-08T16:55:41Z</time>
      </trkpt>
      <trkpt lat="46.78524" lon="4.72467">
        <ele>309</ele>
        <time>2014-05-08T16:55:44Z</time>
      </trkpt>
      <trkpt lat="46.78524" lon="4.72475">
        <ele>308</ele>
        <time>2014-05-08T16:55:48Z</time>
      </trkpt>
      <trkpt lat="46.78523" lon="4.72482">
        <ele>307</ele>
        <time>2014-05-08T16:55:52Z</time>
      </trkpt>
      <trkpt lat="46.78524" lon="4.7249">
        <ele>306</ele>
        <time>2014-05-08T16:55:57Z</time>
      </trkpt>
      <trkpt lat="46.78523" lon="4.72497">
        <ele>306</ele>
        <time>2014-05-08T16:56:01Z</time>
      </trkpt>
      <trkpt lat="46.78524" lon="4.72504">
        <ele>305</ele>
        <time>2014-05-08T16:56:06Z</time>
      </trkpt>
      <trkpt lat="46.78524" lon="4.72511">
        <ele>304</ele>
        <time>2014-05-08T16:56:11Z</time>
      </trkpt>
      <trkpt lat="46.78523" lon="4.72518">
        <ele>303</ele>
        <time>2014-05-08T16:56:15Z</time>
      </trkpt>
      <trkpt lat="46.78522" lon="4.72526">
        <ele>302</ele>
        <time>2014-05-08T16:56:18Z</time>
      </trkpt>
      <trkpt lat="46.78521" lon="4.72532">
        <ele>302</ele>
        <time>2014-05-08T16:56:20Z</time>
      </trkpt>
      <trkpt lat="46.78521" lon="4.72539">
        <ele>301</ele>
        <time>2014-05-08T16:56:22Z</time>
      </trkpt>
      <trkpt lat="46.78521" lon="4.72546">
        <ele>300</ele>
        <time>2014-05-08T16:56:24Z</time>
      </trkpt>
      <trkpt lat="46.78522" lon="4.72554">
        <ele>299</ele>
        <time>2014-05-08T16:56:27Z</time>
      </trkpt>
      <trkpt lat="46.78521" lon="4.72562">
        <ele>299</ele>
        <time>2014-05-08T16:56:30Z</time>
      </trkpt>
      <trkpt lat="46.78521" lon="4.7257">
        <ele>298</ele>
        <time>2014-05-08T16:56:34Z</time>
      </trkpt>
      <trkpt lat="46.78518" lon="4.72578">
        <ele>299</ele>
        <time>2014-05-08T16:56:36Z</time>
      </trkpt>
      <trkpt lat="46.78515" lon="4.72583">
        <ele>299</ele>
        <time>2014-05-08T16:56:38Z</time>
      </trkpt>
      <trkpt lat="46.78513" lon="4.72591">
        <ele>298</ele>
        <time>2014-05-08T16:56:41Z</time>
      </trkpt>
      <trkpt lat="46.78513" lon="4.72599">
        <ele>298</ele>
        <time>2014-05-08T16:56:44Z</time>
      </trkpt>
      <trkpt lat="46.78513" lon="4.72607">
        <ele>297</ele>
        <time>2014-05-08T16:56:47Z</time>
      </trkpt>
      <trkpt lat="46.78513" lon="4.72615">
        <ele>296</ele>
        <time>2014-05-08T16:56:52Z</time>
      </trkpt>
      <trkpt lat="46.78511" lon="4.72622">
        <ele>296</ele>
        <time>2014-05-08T16:56:55Z</time>
      </trkpt>
      <trkpt lat="46.78508" lon="4.72629">
        <ele>295</ele>
        <time>2014-05-08T16:56:59Z</time>
      </trkpt>
      <trkpt lat="46.78505" lon="4.72634">
        <ele>295</ele>
        <time>2014-05-08T16:57:03Z</time>
      </trkpt>
      <trkpt lat="46.78501" lon="4.72639">
        <ele>295</ele>
        <time>2014-05-08T16:57:08Z</time>
      </trkpt>
      <trkpt lat="46.78497" lon="4.72646">
        <ele>296</ele>
        <time>2014-05-08T16:57:16Z</time>
      </trkpt>
      <trkpt lat="46.78494" lon="4.7265">
        <ele>296</ele>
        <time>2014-05-08T16:57:21Z</time>
      </trkpt>
      <trkpt lat="46.78489" lon="4.7265">
        <ele>295</ele>
        <time>2014-05-08T16:57:28Z</time>
      </trkpt>
      <trkpt lat="46.78484" lon="4.72653">
        <ele>298</ele>
        <time>2014-05-08T16:57:35Z</time>
      </trkpt>
      <trkpt lat="46.7848" lon="4.72659">
        <ele>300</ele>
        <time>2014-05-08T16:57:41Z</time>
      </trkpt>
      <trkpt lat="46.78476" lon="4.72663">
        <ele>301</ele>
        <time>2014-05-08T16:57:46Z</time>
      </trkpt>
      <trkpt lat="46.78472" lon="4.72666">
        <ele>301</ele>
        <time>2014-05-08T16:57:50Z</time>
      </trkpt>
      <trkpt lat="46.78468" lon="4.7267">
        <ele>301</ele>
        <time>2014-05-08T16:57:54Z</time>
      </trkpt>
      <trkpt lat="46.78464" lon="4.72674">
        <ele>301</ele>
        <time>2014-05-08T16:57:58Z</time>
      </trkpt>
      <trkpt lat="46.7846" lon="4.72677">
        <ele>301</ele>
        <time>2014-05-08T16:58:03Z</time>
      </trkpt>
      <trkpt lat="46.78455" lon="4.72678">
        <ele>301</ele>
        <time>2014-05-08T16:58:08Z</time>
      </trkpt>
      <trkpt lat="46.7845" lon="4.72681">
        <ele>301</ele>
        <time>2014-05-08T16:58:13Z</time>
      </trkpt>
      <trkpt lat="46.78446" lon="4.72683">
        <ele>301</ele>
        <time>2014-05-08T16:58:18Z</time>
      </trkpt>
      <trkpt lat="46.78442" lon="4.72687">
        <ele>302</ele>
        <time>2014-05-08T16:58:21Z</time>
      </trkpt>
      <trkpt lat="46.78439" lon="4.72692">
        <ele>302</ele>
        <time>2014-05-08T16:58:24Z</time>
      </trkpt>
      <trkpt lat="46.78435" lon="4.72697">
        <ele>302</ele>
        <time>2014-05-08T16:58:28Z</time>
      </trkpt>
      <trkpt lat="46.7843" lon="4.72703">
        <ele>301</ele>
        <time>2014-05-08T16:58:33Z</time>
      </trkpt>
      <trkpt lat="46.78427" lon="4.72708">
        <ele>301</ele>
        <time>2014-05-08T16:58:37Z</time>
      </trkpt>
      <trkpt lat="46.78425" lon="4.72715">
        <ele>301</ele>
        <time>2014-05-08T16:58:41Z</time>
      </trkpt>
      <trkpt lat="46.78421" lon="4.7272">
        <ele>300</ele>
        <time>2014-05-08T16:58:45Z</time>
      </trkpt>
      <trkpt lat="46.78418" lon="4.72724">
        <ele>299</ele>
        <time>2014-05-08T16:58:47Z</time>
      </trkpt>
      <trkpt lat="46.78415" lon="4.72729">
        <ele>299</ele>
        <time>2014-05-08T16:58:51Z</time>
      </trkpt>
      <trkpt lat="46.78411" lon="4.72734">
        <ele>300</ele>
        <time>2014-05-08T16:58:55Z</time>
      </trkpt>
      <trkpt lat="46.78407" lon="4.72741">
        <ele>301</ele>
        <time>2014-05-08T16:58:59Z</time>
      </trkpt>
      <trkpt lat="46.78403" lon="4.72747">
        <ele>300</ele>
        <time>2014-05-08T16:59:03Z</time>
      </trkpt>
      <trkpt lat="46.78401" lon="4.72753">
        <ele>300</ele>
        <time>2014-05-08T16:59:08Z</time>
      </trkpt>
      <trkpt lat="46.784" lon="4.7276">
        <ele>300</ele>
        <time>2014-05-08T16:59:13Z</time>
      </trkpt>
      <trkpt lat="46.78397" lon="4.72767">
        <ele>300</ele>
        <time>2014-05-08T16:59:19Z</time>
      </trkpt>
      <trkpt lat="46.78396" lon="4.72774">
        <ele>299</ele>
        <time>2014-05-08T16:59:27Z</time>
      </trkpt>
      <trkpt lat="46.78394" lon="4.72781">
        <ele>298</ele>
        <time>2014-05-08T16:59:31Z</time>
      </trkpt>
      <trkpt lat="46.78393" lon="4.72789">
        <ele>297</ele>
        <time>2014-05-08T16:59:35Z</time>
      </trkpt>
      <trkpt lat="46.78391" lon="4.72795">
        <ele>296</ele>
        <time>2014-05-08T16:59:39Z</time>
      </trkpt>
      <trkpt lat="46.78388" lon="4.72802">
        <ele>296</ele>
        <time>2014-05-08T16:59:45Z</time>
      </trkpt>
      <trkpt lat="46.78388" lon="4.72809">
        <ele>295</ele>
        <time>2014-05-08T16:59:49Z</time>
      </trkpt>
      <trkpt lat="46.78388" lon="4.72817">
        <ele>294</ele>
        <time>2014-05-08T16:59:53Z</time>
      </trkpt>
      <trkpt lat="46.78388" lon="4.72826">
        <ele>293</ele>
        <time>2014-05-08T16:59:57Z</time>
      </trkpt>
      <trkpt lat="46.78386" lon="4.72832">
        <ele>292</ele>
        <time>2014-05-08T17:00:00Z</time>
      </trkpt>
      <trkpt lat="46.78383" lon="4.72837">
        <ele>291</ele>
        <time>2014-05-08T17:00:04Z</time>
      </trkpt>
      <trkpt lat="46.78378" lon="4.72842">
        <ele>290</ele>
        <time>2014-05-08T17:00:10Z</time>
      </trkpt>
      <trkpt lat="46.78375" lon="4.72847">
        <ele>289</ele>
        <time>2014-05-08T17:00:13Z</time>
      </trkpt>
      <trkpt lat="46.7837" lon="4.72851">
        <ele>288</ele>
        <time>2014-05-08T17:00:16Z</time>
      </trkpt>
      <trkpt lat="46.78367" lon="4.72857">
        <ele>287</ele>
        <time>2014-05-08T17:00:19Z</time>
      </trkpt>
      <trkpt lat="46.78366" lon="4.72863">
        <ele>286</ele>
        <time>2014-05-08T17:00:22Z</time>
      </trkpt>
      <trkpt lat="46.78364" lon="4.72869">
        <ele>285</ele>
        <time>2014-05-08T17:00:25Z</time>
      </trkpt>
      <trkpt lat="46.78362" lon="4.72876">
        <ele>285</ele>
        <time>2014-05-08T17:00:28Z</time>
      </trkpt>
      <trkpt lat="46.7836" lon="4.72882">
        <ele>284</ele>
        <time>2014-05-08T17:00:31Z</time>
      </trkpt>
      <trkpt lat="46.78358" lon="4.72889">
        <ele>283</ele>
        <time>2014-05-08T17:00:34Z</time>
      </trkpt>
      <trkpt lat="46.78355" lon="4.72895">
        <ele>283</ele>
        <time>2014-05-08T17:00:37Z</time>
      </trkpt>
      <trkpt lat="46.78353" lon="4.72902">
        <ele>283</ele>
        <time>2014-05-08T17:00:40Z</time>
      </trkpt>
      <trkpt lat="46.78352" lon="4.7291">
        <ele>282</ele>
        <time>2014-05-08T17:00:44Z</time>
      </trkpt>
      <trkpt lat="46.7835" lon="4.72918">
        <ele>280</ele>
        <time>2014-05-08T17:00:48Z</time>
      </trkpt>
      <trkpt lat="46.78347" lon="4.72925">
        <ele>279</ele>
        <time>2014-05-08T17:00:53Z</time>
      </trkpt>
      <trkpt lat="46.78347" lon="4.72932">
        <ele>278</ele>
        <time>2014-05-08T17:00:56Z</time>
      </trkpt>
      <trkpt lat="46.78348" lon="4.72939">
        <ele>277</ele>
        <time>2014-05-08T17:01:00Z</time>
      </trkpt>
      <trkpt lat="46.78347" lon="4.72947">
        <ele>277</ele>
        <time>2014-05-08T17:01:04Z</time>
      </trkpt>
      <trkpt lat="46.78346" lon="4.72955">
        <ele>275</ele>
        <time>2014-05-08T17:01:08Z</time>
      </trkpt>
      <trkpt lat="46.78345" lon="4.72962">
        <ele>274</ele>
        <time>2014-05-08T17:01:13Z</time>
      </trkpt>
      <trkpt lat="46.78345" lon="4.72968">
        <ele>273</ele>
        <time>2014-05-08T17:01:17Z</time>
      </trkpt>
      <trkpt lat="46.78347" lon="4.72975">
        <ele>273</ele>
        <time>2014-05-08T17:01:21Z</time>
      </trkpt>
      <trkpt lat="46.7835" lon="4.7298">
        <ele>272</ele>
        <time>2014-05-08T17:01:25Z</time>
      </trkpt>
      <trkpt lat="46.78355" lon="4.72986">
        <ele>272</ele>
        <time>2014-05-08T17:01:29Z</time>
      </trkpt>
      <trkpt lat="46.78357" lon="4.72992">
        <ele>271</ele>
        <time>2014-05-08T17:01:32Z</time>
      </trkpt>
      <trkpt lat="46.78361" lon="4.72998">
        <ele>270</ele>
        <time>2014-05-08T17:01:36Z</time>
      </trkpt>
      <trkpt lat="46.78364" lon="4.73005">
        <ele>270</ele>
        <time>2014-05-08T17:01:40Z</time>
      </trkpt>
      <trkpt lat="46.78367" lon="4.73011">
        <ele>269</ele>
        <time>2014-05-08T17:01:43Z</time>
      </trkpt>
      <trkpt lat="46.7837" lon="4.73016">
        <ele>270</ele>
        <time>2014-05-08T17:01:46Z</time>
      </trkpt>
      <trkpt lat="46.78373" lon="4.73022">
        <ele>269</ele>
        <time>2014-05-08T17:01:50Z</time>
      </trkpt>
      <trkpt lat="46.78376" lon="4.73027">
        <ele>268</ele>
        <time>2014-05-08T17:01:53Z</time>
      </trkpt>
      <trkpt lat="46.7838" lon="4.73031">
        <ele>268</ele>
        <time>2014-05-08T17:01:56Z</time>
      </trkpt>
      <trkpt lat="46.78385" lon="4.73036">
        <ele>267</ele>
        <time>2014-05-08T17:02:00Z</time>
      </trkpt>
      <trkpt lat="46.78389" lon="4.73042">
        <ele>267</ele>
        <time>2014-05-08T17:02:04Z</time>
      </trkpt>
      <trkpt lat="46.78393" lon="4.73046">
        <ele>267</ele>
        <time>2014-05-08T17:02:07Z</time>
      </trkpt>
      <trkpt lat="46.78397" lon="4.7305">
        <ele>266</ele>
        <time>2014-05-08T17:02:10Z</time>
      </trkpt>
      <trkpt lat="46.78402" lon="4.73055">
        <ele>266</ele>
        <time>2014-05-08T17:02:14Z</time>
      </trkpt>
      <trkpt lat="46.78407" lon="4.73059">
        <ele>266</ele>
        <time>2014-05-08T17:02:18Z</time>
      </trkpt>
      <trkpt lat="46.78411" lon="4.73063">
        <ele>267</ele>
        <time>2014-05-08T17:02:22Z</time>
      </trkpt>
      <trkpt lat="46.78416" lon="4.73068">
        <ele>267</ele>
        <time>2014-05-08T17:02:26Z</time>
      </trkpt>
      <trkpt lat="46.7842" lon="4.73073">
        <ele>268</ele>
        <time>2014-05-08T17:02:30Z</time>
      </trkpt>
      <trkpt lat="46.78425" lon="4.73078">
        <ele>269</ele>
        <time>2014-05-08T17:02:34Z</time>
      </trkpt>
      <trkpt lat="46.78429" lon="4.73082">
        <ele>270</ele>
        <time>2014-05-08T17:02:38Z</time>
      </trkpt>
      <trkpt lat="46.78434" lon="4.73086">
        <ele>270</ele>
        <time>2014-05-08T17:02:42Z</time>
      </trkpt>
      <trkpt lat="46.78439" lon="4.7309">
        <ele>271</ele>
        <time>2014-05-08T17:02:46Z</time>
      </trkpt>
      <trkpt lat="46.78444" lon="4.73092">
        <ele>271</ele>
        <time>2014-05-08T17:02:49Z</time>
      </trkpt>
      <trkpt lat="46.78448" lon="4.73097">
        <ele>272</ele>
        <time>2014-05-08T17:02:53Z</time>
      </trkpt>
      <trkpt lat="46.7845" lon="4.73104">
        <ele>271</ele>
        <time>2014-05-08T17:02:59Z</time>
      </trkpt>
      <trkpt lat="46.78447" lon="4.73111">
        <ele>270</ele>
        <time>2014-05-08T17:03:03Z</time>
      </trkpt>
      <trkpt lat="46.78444" lon="4.73117">
        <ele>269</ele>
        <time>2014-05-08T17:03:06Z</time>
      </trkpt>
      <trkpt lat="46.78442" lon="4.73123">
        <ele>269</ele>
        <time>2014-05-08T17:03:09Z</time>
      </trkpt>
      <trkpt lat="46.78439" lon="4.7313">
        <ele>268</ele>
        <time>2014-05-08T17:03:13Z</time>
      </trkpt>
      <trkpt lat="46.78436" lon="4.73136">
        <ele>267</ele>
        <time>2014-05-08T17:03:16Z</time>
      </trkpt>
      <trkpt lat="46.78434" lon="4.73142">
        <ele>267</ele>
        <time>2014-05-08T17:03:19Z</time>
      </trkpt>
      <trkpt lat="46.7843" lon="4.73148">
        <ele>266</ele>
        <time>2014-05-08T17:03:22Z</time>
      </trkpt>
      <trkpt lat="46.78427" lon="4.73154">
        <ele>266</ele>
        <time>2014-05-08T17:03:25Z</time>
      </trkpt>
      <trkpt lat="46.78424" lon="4.73159">
        <ele>266</ele>
        <time>2014-05-08T17:03:28Z</time>
      </trkpt>
      <trkpt lat="46.78421" lon="4.73166">
        <ele>266</ele>
        <time>2014-05-08T17:03:32Z</time>
      </trkpt>
      <trkpt lat="46.78419" lon="4.73171">
        <ele>265</ele>
        <time>2014-05-08T17:03:35Z</time>
      </trkpt>
      <trkpt lat="46.78416" lon="4.73177">
        <ele>265</ele>
        <time>2014-05-08T17:03:38Z</time>
      </trkpt>
      <trkpt lat="46.78413" lon="4.73183">
        <ele>264</ele>
        <time>2014-05-08T17:03:42Z</time>
      </trkpt>
      <trkpt lat="46.7841" lon="4.7319">
        <ele>264</ele>
        <time>2014-05-08T17:03:46Z</time>
      </trkpt>
      <trkpt lat="46.78412" lon="4.73198">
        <ele>264</ele>
        <time>2014-05-08T17:03:50Z</time>
      </trkpt>
      <trkpt lat="46.78416" lon="4.73203">
        <ele>264</ele>
        <time>2014-05-08T17:03:54Z</time>
      </trkpt>
      <trkpt lat="46.7842" lon="4.73207">
        <ele>263</ele>
        <time>2014-05-08T17:03:57Z</time>
      </trkpt>
      <trkpt lat="46.78425" lon="4.73211">
        <ele>263</ele>
        <time>2014-05-08T17:04:00Z</time>
      </trkpt>
      <trkpt lat="46.78428" lon="4.73214">
        <ele>263</ele>
        <time>2014-05-08T17:04:03Z</time>
      </trkpt>
      <trkpt lat="46.78433" lon="4.73219">
        <ele>263</ele>
        <time>2014-05-08T17:04:07Z</time>
      </trkpt>
      <trkpt lat="46.78437" lon="4.73222">
        <ele>262</ele>
        <time>2014-05-08T17:04:10Z</time>
      </trkpt>
      <trkpt lat="46.78442" lon="4.73226">
        <ele>262</ele>
        <time>2014-05-08T17:04:14Z</time>
      </trkpt>
      <trkpt lat="46.78447" lon="4.73231">
        <ele>262</ele>
        <time>2014-05-08T17:04:18Z</time>
      </trkpt>
      <trkpt lat="46.78451" lon="4.73235">
        <ele>262</ele>
        <time>2014-05-08T17:04:21Z</time>
      </trkpt>
      <trkpt lat="46.78456" lon="4.73239">
        <ele>263</ele>
        <time>2014-05-08T17:04:25Z</time>
      </trkpt>
      <trkpt lat="46.78461" lon="4.73243">
        <ele>263</ele>
        <time>2014-05-08T17:04:29Z</time>
      </trkpt>
      <trkpt lat="46.78466" lon="4.73248">
        <ele>263</ele>
        <time>2014-05-08T17:04:33Z</time>
      </trkpt>
      <trkpt lat="46.78471" lon="4.73252">
        <ele>263</ele>
        <time>2014-05-08T17:04:37Z</time>
      </trkpt>
      <trkpt lat="46.78476" lon="4.73256">
        <ele>263</ele>
        <time>2014-05-08T17:04:41Z</time>
      </trkpt>
      <trkpt lat="46.7848" lon="4.7326">
        <ele>263</ele>
        <time>2014-05-08T17:04:45Z</time>
      </trkpt>
      <trkpt lat="46.78484" lon="4.73264">
        <ele>264</ele>
        <time>2014-05-08T17:04:49Z</time>
      </trkpt>
      <trkpt lat="46.78487" lon="4.7327">
        <ele>263</ele>
        <time>2014-05-08T17:04:53Z</time>
      </trkpt>
      <trkpt lat="46.78485" lon="4.73278">
        <ele>263</ele>
        <time>2014-05-08T17:04:57Z</time>
      </trkpt>
      <trkpt lat="46.78482" lon="4.73284">
        <ele>263</ele>
        <time>2014-05-08T17:05:00Z</time>
      </trkpt>
      <trkpt lat="46.7848" lon="4.7329">
        <ele>262</ele>
        <time>2014-05-08T17:05:03Z</time>
      </trkpt>
      <trkpt lat="46.78478" lon="4.73297">
        <ele>262</ele>
        <time>2014-05-08T17:05:07Z</time>
      </trkpt>
      <trkpt lat="46.78475" lon="4.73305">
        <ele>262</ele>
        <time>2014-05-08T17:05:11Z</time>
      </trkpt>
      <trkpt lat="46.78472" lon="4.73312">
        <ele>261</ele>
        <time>2014-05-08T17:05:15Z</time>
      </trkpt>
      <trkpt lat="46.78469" lon="4.7332">
        <ele>259</ele>
        <time>2014-05-08T17:05:19Z</time>
      </trkpt>
      <trkpt lat="46.78466" lon="4.73327">
        <ele>258</ele>
        <time>2014-05-08T17:05:23Z</time>
      </trkpt>
      <trkpt lat="46.78464" lon="4.73335">
        <ele>257</ele>
        <time>2014-05-08T17:05:27Z</time>
      </trkpt>
      <trkpt lat="46.78461" lon="4.73342">
        <ele>257</ele>
        <time>2014-05-08T17:05:31Z</time>
      </trkpt>
      <trkpt lat="46.78458" lon="4.73348">
        <ele>256</ele>
        <time>2014-05-08T17:05:35Z</time>
      </trkpt>
      <trkpt lat="46.78455" lon="4.73355">
        <ele>255</ele>
        <time>2014-05-08T17:05:39Z</time>
      </trkpt>
      <trkpt lat="46.78452" lon="4.73362">
        <ele>254</ele>
        <time>2014-05-08T17:05:43Z</time>
      </trkpt>
      <trkpt lat="46.78449" lon="4.73368">
        <ele>253</ele>
        <time>2014-05-08T17:05:47Z</time>
      </trkpt>
      <trkpt lat="46.78447" lon="4.73376">
        <ele>253</ele>
        <time>2014-05-08T17:05:51Z</time>
      </trkpt>
      <trkpt lat="46.78445" lon="4.73383">
        <ele>252</ele>
        <time>2014-05-08T17:05:55Z</time>
      </trkpt>
      <trkpt lat="46.78444" lon="4.73389">
        <ele>252</ele>
        <time>2014-05-08T17:05:58Z</time>
      </trkpt>
      <trkpt lat="46.78441" lon="4.73395">
        <ele>251</ele>
        <time>2014-05-08T17:06:01Z</time>
      </trkpt>
      <trkpt lat="46.78438" lon="4.73401">
        <ele>251</ele>
        <time>2014-05-08T17:06:04Z</time>
      </trkpt>
      <trkpt lat="46.78436" lon="4.73407">
        <ele>250</ele>
        <time>2014-05-08T17:06:07Z</time>
      </trkpt>
      <trkpt lat="46.78434" lon="4.73413">
        <ele>250</ele>
        <time>2014-05-08T17:06:10Z</time>
      </trkpt>
      <trkpt lat="46.78431" lon="4.73419">
        <ele>250</ele>
        <time>2014-05-08T17:06:13Z</time>
      </trkpt>
      <trkpt lat="46.78428" lon="4.73426">
        <ele>248</ele>
        <time>2014-05-08T17:06:17Z</time>
      </trkpt>
      <trkpt lat="46.78426" lon="4.73432">
        <ele>247</ele>
        <time>2014-05-08T17:06:20Z</time>
      </trkpt>
      <trkpt lat="46.78423" lon="4.73438">
        <ele>247</ele>
        <time>2014-05-08T17:06:23Z</time>
      </trkpt>
      <trkpt lat="46.78421" lon="4.73445">
        <ele>246</ele>
        <time>2014-05-08T17:06:26Z</time>
      </trkpt>
      <trkpt lat="46.78418" lon="4.73451">
        <ele>246</ele>
        <time>2014-05-08T17:06:29Z</time>
      </trkpt>
      <trkpt lat="46.78416" lon="4.73459">
        <ele>245</ele>
        <time>2014-05-08T17:06:32Z</time>
      </trkpt>
      <trkpt lat="46.78413" lon="4.73466">
        <ele>245</ele>
        <time>2014-05-08T17:06:35Z</time>
      </trkpt>
      <trkpt lat="46.78411" lon="4.73472">
        <ele>245</ele>
        <time>2014-05-08T17:06:38Z</time>
      </trkpt>
      <trkpt lat="46.78408" lon="4.73478">
        <ele>244</ele>
        <time>2014-05-08T17:06:41Z</time>
      </trkpt>
      <trkpt lat="46.78405" lon="4.73484">
        <ele>244</ele>
        <time>2014-05-08T17:06:44Z</time>
      </trkpt>
      <trkpt lat="46.78402" lon="4.73491">
        <ele>244</ele>
        <time>2014-05-08T17:06:47Z</time>
      </trkpt>
      <trkpt lat="46.784" lon="4.73497">
        <ele>243</ele>
        <time>2014-05-08T17:06:50Z</time>
      </trkpt>
      <trkpt lat="46.78397" lon="4.73503">
        <ele>243</ele>
        <time>2014-05-08T17:06:53Z</time>
      </trkpt>
      <trkpt lat="46.78394" lon="4.73509">
        <ele>242</ele>
        <time>2014-05-08T17:06:56Z</time>
      </trkpt>
      <trkpt lat="46.78391" lon="4.73515">
        <ele>241</ele>
        <time>2014-05-08T17:06:59Z</time>
      </trkpt>
      <trkpt lat="46.78389" lon="4.73521">
        <ele>241</ele>
        <time>2014-05-08T17:07:02Z</time>
      </trkpt>
      <trkpt lat="46.78387" lon="4.73527">
        <ele>241</ele>
        <time>2014-05-08T17:07:05Z</time>
      </trkpt>
      <trkpt lat="46.78384" lon="4.73534">
        <ele>240</ele>
        <time>2014-05-08T17:07:08Z</time>
      </trkpt>
      <trkpt lat="46.78381" lon="4.73539">
        <ele>240</ele>
        <time>2014-05-08T17:07:11Z</time>
      </trkpt>
      <trkpt lat="46.78379" lon="4.73546">
        <ele>239</ele>
        <time>2014-05-08T17:07:15Z</time>
      </trkpt>
      <trkpt lat="46.78376" lon="4.73554">
        <ele>239</ele>
        <time>2014-05-08T17:07:19Z</time>
      </trkpt>
      <trkpt lat="46.78377" lon="4.73562">
        <ele>239</ele>
        <time>2014-05-08T17:07:23Z</time>
      </trkpt>
      <trkpt lat="46.78379" lon="4.73569">
        <ele>238</ele>
        <time>2014-05-08T17:07:26Z</time>
      </trkpt>
      <trkpt lat="46.78382" lon="4.73574">
        <ele>238</ele>
        <time>2014-05-08T17:07:29Z</time>
      </trkpt>
      <trkpt lat="46.78386" lon="4.73581">
        <ele>237</ele>
        <time>2014-05-08T17:07:33Z</time>
      </trkpt>
      <trkpt lat="46.78388" lon="4.73588">
        <ele>236</ele>
        <time>2014-05-08T17:07:37Z</time>
      </trkpt>
      <trkpt lat="46.78391" lon="4.73594">
        <ele>236</ele>
        <time>2014-05-08T17:07:40Z</time>
      </trkpt>
      <trkpt lat="46.78394" lon="4.73601">
        <ele>236</ele>
        <time>2014-05-08T17:07:44Z</time>
      </trkpt>
      <trkpt lat="46.78397" lon="4.73608">
        <ele>235</ele>
        <time>2014-05-08T17:07:48Z</time>
      </trkpt>
      <trkpt lat="46.784" lon="4.73616">
        <ele>235</ele>
        <time>2014-05-08T17:07:52Z</time>
      </trkpt>
      <trkpt lat="46.78402" lon="4.73623">
        <ele>235</ele>
        <time>2014-05-08T17:07:56Z</time>
      </trkpt>
      <trkpt lat="46.78403" lon="4.7363">
        <ele>235</ele>
        <time>2014-05-08T17:07:59Z</time>
      </trkpt>
      <trkpt lat="46.78406" lon="4.73637">
        <ele>235</ele>
        <time>2014-05-08T17:08:03Z</time>
      </trkpt>
      <trkpt lat="46.78408" lon="4.73642">
        <ele>234</ele>
        <time>2014-05-08T17:08:06Z</time>
      </trkpt>
      <trkpt lat="46.78412" lon="4.73648">
        <ele>234</ele>
        <time>2014-05-08T17:08:09Z</time>
      </trkpt>
      <trkpt lat="46.78414" lon="4.73654">
        <ele>234</ele>
        <time>2014-05-08T17:08:13Z</time>
      </trkpt>
      <trkpt lat="46.78416" lon="4.73661">
        <ele>233</ele>
        <time>2014-05-08T17:08:17Z</time>
      </trkpt>
      <trkpt lat="46.78416" lon="4.73669">
        <ele>232</ele>
        <time>2014-05-08T17:08:21Z</time>
      </trkpt>
      <trkpt lat="46.78416" lon="4.73678">
        <ele>232</ele>
        <time>2014-05-08T17:08:25Z</time>
      </trkpt>
      <trkpt lat="46.78417" lon="4.73684">
        <ele>231</ele>
        <time>2014-05-08T17:08:28Z</time>
      </trkpt>
      <trkpt lat="46.78418" lon="4.73691">
        <ele>231</ele>
        <time>2014-05-08T17:08:31Z</time>
      </trkpt>
      <trkpt lat="46.78419" lon="4.73699">
        <ele>230</ele>
        <time>2014-05-08T17:08:34Z</time>
      </trkpt>
      <trkpt lat="46.7842" lon="4.73707">
        <ele>230</ele>
        <time>2014-05-08T17:08:37Z</time>
      </trkpt>
      <trkpt lat="46.78421" lon="4.73714">
        <ele>230</ele>
        <time>2014-05-08T17:08:40Z</time>
      </trkpt>
      <trkpt lat="46.78424" lon="4.73721">
        <ele>230</ele>
        <time>2014-05-08T17:08:44Z</time>
      </trkpt>
      <trkpt lat="46.78428" lon="4.73726">
        <ele>229</ele>
        <time>2014-05-08T17:08:47Z</time>
      </trkpt>
      <trkpt lat="46.78431" lon="4.73729">
        <ele>229</ele>
        <time>2014-05-08T17:08:50Z</time>
      </trkpt>
      <trkpt lat="46.78436" lon="4.73732">
        <ele>230</ele>
        <time>2014-05-08T17:08:53Z</time>
      </trkpt>
      <trkpt lat="46.7844" lon="4.73735">
        <ele>229</ele>
        <time>2014-05-08T17:08:56Z</time>
      </trkpt>
      <trkpt lat="46.78444" lon="4.73739">
        <ele>229</ele>
        <time>2014-05-08T17:08:59Z</time>
      </trkpt>
      <trkpt lat="46.78448" lon="4.73744">
        <ele>230</ele>
        <time>2014-05-08T17:09:02Z</time>
      </trkpt>
      <trkpt lat="46.78452" lon="4.73749">
        <ele>230</ele>
        <time>2014-05-08T17:09:05Z</time>
      </trkpt>
      <trkpt lat="46.78455" lon="4.73754">
        <ele>230</ele>
        <time>2014-05-08T17:09:08Z</time>
      </trkpt>
      <trkpt lat="46.78459" lon="4.73759">
        <ele>229</ele>
        <time>2014-05-08T17:09:12Z</time>
      </trkpt>
      <trkpt lat="46.78463" lon="4.73766">
        <ele>229</ele>
        <time>2014-05-08T17:09:16Z</time>
      </trkpt>
      <trkpt lat="46.78466" lon="4.73772">
        <ele>229</ele>
        <time>2014-05-08T17:09:19Z</time>
      </trkpt>
      <trkpt lat="46.78469" lon="4.73777">
        <ele>229</ele>
        <time>2014-05-08T17:09:22Z</time>
      </trkpt>
      <trkpt lat="46.78471" lon="4.73785">
        <ele>229</ele>
        <time>2014-05-08T17:09:26Z</time>
      </trkpt>
      <trkpt lat="46.78471" lon="4.73792">
        <ele>229</ele>
        <time>2014-05-08T17:09:30Z</time>
      </trkpt>
      <trkpt lat="46.7847" lon="4.738">
        <ele>229</ele>
        <time>2014-05-08T17:09:34Z</time>
      </trkpt>
      <trkpt lat="46.78467" lon="4.73807">
        <ele>229</ele>
        <time>2014-05-08T17:09:37Z</time>
      </trkpt>
      <trkpt lat="46.78465" lon="4.73815">
        <ele>228</ele>
        <time>2014-05-08T17:09:41Z</time>
      </trkpt>
      <trkpt lat="46.78463" lon="4.73823">
        <ele>228</ele>
        <time>2014-05-08T17:09:45Z</time>
      </trkpt>
      <trkpt lat="46.78463" lon="4.7383">
        <ele>228</ele>
        <time>2014-05-08T17:09:49Z</time>
      </trkpt>
      <trkpt lat="46.78463" lon="4.73837">
        <ele>229</ele>
        <time>2014-05-08T17:09:54Z</time>
      </trkpt>
      <trkpt lat="46.78461" lon="4.73843">
        <ele>229</ele>
        <time>2014-05-08T17:09:58Z</time>
      </trkpt>
      <trkpt lat="46.78458" lon="4.73849">
        <ele>228</ele>
        <time>2014-05-08T17:10:01Z</time>
      </trkpt>
      <trkpt lat="46.78455" lon="4.73855">
        <ele>228</ele>
        <time>2014-05-08T17:10:04Z</time>
      </trkpt>
      <trkpt lat="46.78452" lon="4.7386">
        <ele>227</ele>
        <time>2014-05-08T17:10:07Z</time>
      </trkpt>
      <trkpt lat="46.78449" lon="4.73866">
        <ele>227</ele>
        <time>2014-05-08T17:10:10Z</time>
      </trkpt>
      <trkpt lat="46.78447" lon="4.73872">
        <ele>228</ele>
        <time>2014-05-08T17:10:14Z</time>
      </trkpt>
      <trkpt lat="46.78444" lon="4.73878">
        <ele>228</ele>
        <time>2014-05-08T17:10:18Z</time>
      </trkpt>
      <trkpt lat="46.78439" lon="4.73882">
        <ele>228</ele>
        <time>2014-05-08T17:10:22Z</time>
      </trkpt>
      <trkpt lat="46.78436" lon="4.73887">
        <ele>228</ele>
        <time>2014-05-08T17:10:26Z</time>
      </trkpt>
      <trkpt lat="46.78432" lon="4.73892">
        <ele>228</ele>
        <time>2014-05-08T17:10:30Z</time>
      </trkpt>
      <trkpt lat="46.78428" lon="4.73896">
        <ele>228</ele>
        <time>2014-05-08T17:10:33Z</time>
      </trkpt>
      <trkpt lat="46.78424" lon="4.73901">
        <ele>228</ele>
        <time>2014-05-08T17:10:36Z</time>
      </trkpt>
      <trkpt lat="46.78421" lon="4.73905">
        <ele>228</ele>
        <time>2014-05-08T17:10:39Z</time>
      </trkpt>
      <trkpt lat="46.78419" lon="4.73912">
        <ele>228</ele>
        <time>2014-05-08T17:10:43Z</time>
      </trkpt>
      <trkpt lat="46.78417" lon="4.7392">
        <ele>228</ele>
        <time>2014-05-08T17:10:47Z</time>
      </trkpt>
      <trkpt lat="46.78416" lon="4.73926">
        <ele>228</ele>
        <time>2014-05-08T17:10:50Z</time>
      </trkpt>
      <trkpt lat="46.78414" lon="4.73933">
        <ele>228</ele>
        <time>2014-05-08T17:10:53Z</time>
      </trkpt>
      <trkpt lat="46.78412" lon="4.7394">
        <ele>228</ele>
        <time>2014-05-08T17:10:56Z</time>
      </trkpt>
      <trkpt lat="46.7841" lon="4.73947">
        <ele>227</ele>
        <time>2014-05-08T17:10:59Z</time>
      </trkpt>
      <trkpt lat="46.78409" lon="4.73954">
        <ele>226</ele>
        <time>2014-05-08T17:11:02Z</time>
      </trkpt>
      <trkpt lat="46.78408" lon="4.73961">
        <ele>226</ele>
        <time>2014-05-08T17:11:05Z</time>
      </trkpt>
      <trkpt lat="46.78406" lon="4.73969">
        <ele>226</ele>
        <time>2014-05-08T17:11:08Z</time>
      </trkpt>
      <trkpt lat="46.78404" lon="4.73976">
        <ele>226</ele>
        <time>2014-05-08T17:11:11Z</time>
      </trkpt>
      <trkpt lat="46.78402" lon="4.73983">
        <ele>227</ele>
        <time>2014-05-08T17:11:14Z</time>
      </trkpt>
      <trkpt lat="46.784" lon="4.73991">
        <ele>227</ele>
        <time>2014-05-08T17:11:18Z</time>
      </trkpt>
      <trkpt lat="46.78399" lon="4.73997">
        <ele>228</ele>
        <time>2014-05-08T17:11:21Z</time>
      </trkpt>
      <trkpt lat="46.78397" lon="4.74003">
        <ele>228</ele>
        <time>2014-05-08T17:11:24Z</time>
      </trkpt>
      <trkpt lat="46.78395" lon="4.7401">
        <ele>228</ele>
        <time>2014-05-08T17:11:27Z</time>
      </trkpt>
      <trkpt lat="46.78393" lon="4.74016">
        <ele>228</ele>
        <time>2014-05-08T17:11:30Z</time>
      </trkpt>
      <trkpt lat="46.78392" lon="4.74022">
        <ele>228</ele>
        <time>2014-05-08T17:11:33Z</time>
      </trkpt>
      <trkpt lat="46.78391" lon="4.7403">
        <ele>228</ele>
        <time>2014-05-08T17:11:37Z</time>
      </trkpt>
      <trkpt lat="46.78389" lon="4.74036">
        <ele>228</ele>
        <time>2014-05-08T17:11:41Z</time>
      </trkpt>
      <trkpt lat="46.78387" lon="4.74042">
        <ele>228</ele>
        <time>2014-05-08T17:11:45Z</time>
      </trkpt>
      <trkpt lat="46.78385" lon="4.74049">
        <ele>229</ele>
        <time>2014-05-08T17:11:49Z</time>
      </trkpt>
      <trkpt lat="46.78383" lon="4.74057">
        <ele>229</ele>
        <time>2014-05-08T17:11:53Z</time>
      </trkpt>
      <trkpt lat="46.78382" lon="4.74065">
        <ele>228</ele>
        <time>2014-05-08T17:11:57Z</time>
      </trkpt>
      <trkpt lat="46.78381" lon="4.74072">
        <ele>228</ele>
        <time>2014-05-08T17:12:01Z</time>
      </trkpt>
      <trkpt lat="46.7838" lon="4.74079">
        <ele>228</ele>
        <time>2014-05-08T17:12:04Z</time>
      </trkpt>
      <trkpt lat="46.78378" lon="4.74086">
        <ele>229</ele>
        <time>2014-05-08T17:12:07Z</time>
      </trkpt>
      <trkpt lat="46.78377" lon="4.74092">
        <ele>229</ele>
        <time>2014-05-08T17:12:10Z</time>
      </trkpt>
      <trkpt lat="46.78375" lon="4.741">
        <ele>230</ele>
        <time>2014-05-08T17:12:14Z</time>
      </trkpt>
      <trkpt lat="46.78373" lon="4.74109">
        <ele>230</ele>
        <time>2014-05-08T17:12:18Z</time>
      </trkpt>
      <trkpt lat="46.78372" lon="4.74116">
        <ele>230</ele>
        <time>2014-05-08T17:12:21Z</time>
      </trkpt>
      <trkpt lat="46.7837" lon="4.74123">
        <ele>230</ele>
        <time>2014-05-08T17:12:24Z</time>
      </trkpt>
      <trkpt lat="46.78368" lon="4.7413">
        <ele>230</ele>
        <time>2014-05-08T17:12:27Z</time>
      </trkpt>
      <trkpt lat="46.78367" lon="4.74136">
        <ele>231</ele>
        <time>2014-05-08T17:12:30Z</time>
      </trkpt>
      <trkpt lat="46.78365" lon="4.74143">
        <ele>231</ele>
        <time>2014-05-08T17:12:33Z</time>
      </trkpt>
      <trkpt lat="46.78363" lon="4.7415">
        <ele>231</ele>
        <time>2014-05-08T17:12:36Z</time>
      </trkpt>
      <trkpt lat="46.78361" lon="4.74158">
        <ele>231</ele>
        <time>2014-05-08T17:12:40Z</time>
      </trkpt>
      <trkpt lat="46.78357" lon="4.74165">
        <ele>230</ele>
        <time>2014-05-08T17:12:44Z</time>
      </trkpt>
      <trkpt lat="46.78355" lon="4.74172">
        <ele>229</ele>
        <time>2014-05-08T17:12:47Z</time>
      </trkpt>
      <trkpt lat="46.78352" lon="4.74178">
        <ele>229</ele>
        <time>2014-05-08T17:12:51Z</time>
      </trkpt>
      <trkpt lat="46.78349" lon="4.74184">
        <ele>228</ele>
        <time>2014-05-08T17:12:55Z</time>
      </trkpt>
      <trkpt lat="46.78347" lon="4.74191">
        <ele>229</ele>
        <time>2014-05-08T17:12:59Z</time>
      </trkpt>
      <trkpt lat="46.78346" lon="4.74199">
        <ele>229</ele>
        <time>2014-05-08T17:13:03Z</time>
      </trkpt>
      <trkpt lat="46.78344" lon="4.74207">
        <ele>230</ele>
        <time>2014-05-08T17:13:07Z</time>
      </trkpt>
      <trkpt lat="46.78342" lon="4.74213">
        <ele>230</ele>
        <time>2014-05-08T17:13:10Z</time>
      </trkpt>
      <trkpt lat="46.7834" lon="4.7422">
        <ele>230</ele>
        <time>2014-05-08T17:13:14Z</time>
      </trkpt>
      <trkpt lat="46.78339" lon="4.74227">
        <ele>231</ele>
        <time>2014-05-08T17:13:18Z</time>
      </trkpt>
      <trkpt lat="46.78338" lon="4.74235">
        <ele>230</ele>
        <time>2014-05-08T17:13:22Z</time>
      </trkpt>
      <trkpt lat="46.78337" lon="4.74242">
        <ele>230</ele>
        <time>2014-05-08T17:13:25Z</time>
      </trkpt>
      <trkpt lat="46.78337" lon="4.74249">
        <ele>229</ele>
        <time>2014-05-08T17:13:29Z</time>
      </trkpt>
      <trkpt lat="46.78339" lon="4.74256">
        <ele>229</ele>
        <time>2014-05-08T17:13:35Z</time>
      </trkpt>
      <trkpt lat="46.78338" lon="4.74264">
        <ele>230</ele>
        <time>2014-05-08T17:13:40Z</time>
      </trkpt>
      <trkpt lat="46.78336" lon="4.7427">
        <ele>230</ele>
        <time>2014-05-08T17:13:43Z</time>
      </trkpt>
      <trkpt lat="46.78333" lon="4.74276">
        <ele>229</ele>
        <time>2014-05-08T17:13:46Z</time>
      </trkpt>
      <trkpt lat="46.78331" lon="4.74284">
        <ele>229</ele>
        <time>2014-05-08T17:13:49Z</time>
      </trkpt>
      <trkpt lat="46.78328" lon="4.74291">
        <ele>229</ele>
        <time>2014-05-08T17:13:52Z</time>
      </trkpt>
      <trkpt lat="46.78327" lon="4.743">
        <ele>229</ele>
        <time>2014-05-08T17:13:55Z</time>
      </trkpt>
      <trkpt lat="46.78326" lon="4.74306">
        <ele>229</ele>
        <time>2014-05-08T17:13:58Z</time>
      </trkpt>
      <trkpt lat="46.78324" lon="4.74313">
        <ele>229</ele>
        <time>2014-05-08T17:14:02Z</time>
      </trkpt>
      <trkpt lat="46.78322" lon="4.7432">
        <ele>230</ele>
        <time>2014-05-08T17:14:06Z</time>
      </trkpt>
      <trkpt lat="46.7832" lon="4.74327">
        <ele>230</ele>
        <time>2014-05-08T17:14:10Z</time>
      </trkpt>
      <trkpt lat="46.78316" lon="4.74332">
        <ele>231</ele>
        <time>2014-05-08T17:14:14Z</time>
      </trkpt>
      <trkpt lat="46.78312" lon="4.74338">
        <ele>231</ele>
        <time>2014-05-08T17:14:18Z</time>
      </trkpt>
      <trkpt lat="46.78308" lon="4.74344">
        <ele>232</ele>
        <time>2014-05-08T17:14:22Z</time>
      </trkpt>
      <trkpt lat="46.78305" lon="4.7435">
        <ele>233</ele>
        <time>2014-05-08T17:14:25Z</time>
      </trkpt>
      <trkpt lat="46.78302" lon="4.74355">
        <ele>233</ele>
        <time>2014-05-08T17:14:28Z</time>
      </trkpt>
      <trkpt lat="46.78299" lon="4.74362">
        <ele>233</ele>
        <time>2014-05-08T17:14:31Z</time>
      </trkpt>
      <trkpt lat="46.78297" lon="4.74367">
        <ele>233</ele>
        <time>2014-05-08T17:14:34Z</time>
      </trkpt>
      <trkpt lat="46.78296" lon="4.74374">
        <ele>233</ele>
        <time>2014-05-08T17:14:37Z</time>
      </trkpt>
      <trkpt lat="46.78294" lon="4.7438">
        <ele>233</ele>
        <time>2014-05-08T17:14:40Z</time>
      </trkpt>
      <trkpt lat="46.78291" lon="4.74387">
        <ele>233</ele>
        <time>2014-05-08T17:14:43Z</time>
      </trkpt>
      <trkpt lat="46.78289" lon="4.74393">
        <ele>233</ele>
        <time>2014-05-08T17:14:46Z</time>
      </trkpt>
      <trkpt lat="46.78286" lon="4.744">
        <ele>233</ele>
        <time>2014-05-08T17:14:50Z</time>
      </trkpt>
      <trkpt lat="46.78283" lon="4.74406">
        <ele>233</ele>
        <time>2014-05-08T17:14:53Z</time>
      </trkpt>
      <trkpt lat="46.7828" lon="4.74412">
        <ele>233</ele>
        <time>2014-05-08T17:14:56Z</time>
      </trkpt>
      <trkpt lat="46.78278" lon="4.74419">
        <ele>233</ele>
        <time>2014-05-08T17:15:00Z</time>
      </trkpt>
      <trkpt lat="46.78275" lon="4.74424">
        <ele>232</ele>
        <time>2014-05-08T17:15:04Z</time>
      </trkpt>
      <trkpt lat="46.78272" lon="4.74429">
        <ele>232</ele>
        <time>2014-05-08T17:15:06Z</time>
      </trkpt>
      <trkpt lat="46.78269" lon="4.74437">
        <ele>231</ele>
        <time>2014-05-08T17:15:08Z</time>
      </trkpt>
      <trkpt lat="46.78267" lon="4.74445">
        <ele>230</ele>
        <time>2014-05-08T17:15:10Z</time>
      </trkpt>
      <trkpt lat="46.78267" lon="4.74454">
        <ele>229</ele>
        <time>2014-05-08T17:15:12Z</time>
      </trkpt>
      <trkpt lat="46.78269" lon="4.74461">
        <ele>228</ele>
        <time>2014-05-08T17:15:15Z</time>
      </trkpt>
      <trkpt lat="46.7827" lon="4.74468">
        <ele>227</ele>
        <time>2014-05-08T17:15:18Z</time>
      </trkpt>
      <trkpt lat="46.78269" lon="4.74476">
        <ele>225</ele>
        <time>2014-05-08T17:15:22Z</time>
      </trkpt>
      <trkpt lat="46.7827" lon="4.74483">
        <ele>225</ele>
        <time>2014-05-08T17:15:26Z</time>
      </trkpt>
      <trkpt lat="46.78271" lon="4.7449">
        <ele>223</ele>
        <time>2014-05-08T17:15:31Z</time>
      </trkpt>
      <trkpt lat="46.78272" lon="4.74497">
        <ele>222</ele>
        <time>2014-05-08T17:15:36Z</time>
      </trkpt>
      <trkpt lat="46.78273" lon="4.74504">
        <ele>223</ele>
        <time>2014-05-08T17:15:41Z</time>
      </trkpt>
      <trkpt lat="46.78276" lon="4.74509">
        <ele>224</ele>
        <time>2014-05-08T17:15:45Z</time>
      </trkpt>
      <trkpt lat="46.78279" lon="4.74515">
        <ele>224</ele>
        <time>2014-05-08T17:15:50Z</time>
      </trkpt>
      <trkpt lat="46.78283" lon="4.74522">
        <ele>223</ele>
        <time>2014-05-08T17:15:54Z</time>
      </trkpt>
      <trkpt lat="46.78285" lon="4.74527">
        <ele>223</ele>
        <time>2014-05-08T17:15:57Z</time>
      </trkpt>
      <trkpt lat="46.78288" lon="4.74533">
        <ele>222</ele>
        <time>2014-05-08T17:16:00Z</time>
      </trkpt>
      <trkpt lat="46.7829" lon="4.74539">
        <ele>221</ele>
        <time>2014-05-08T17:16:03Z</time>
      </trkpt>
      <trkpt lat="46.78293" lon="4.74544">
        <ele>222</ele>
        <time>2014-05-08T17:16:07Z</time>
      </trkpt>
      <trkpt lat="46.78296" lon="4.74551">
        <ele>223</ele>
        <time>2014-05-08T17:16:11Z</time>
      </trkpt>
      <trkpt lat="46.783" lon="4.74555">
        <ele>223</ele>
        <time>2014-05-08T17:16:14Z</time>
      </trkpt>
      <trkpt lat="46.78304" lon="4.74559">
        <ele>222</ele>
        <time>2014-05-08T17:16:17Z</time>
      </trkpt>
      <trkpt lat="46.78309" lon="4.74565">
        <ele>221</ele>
        <time>2014-05-08T17:16:21Z</time>
      </trkpt>
      <trkpt lat="46.78313" lon="4.74568">
        <ele>221</ele>
        <time>2014-05-08T17:16:25Z</time>
      </trkpt>
      <trkpt lat="46.78318" lon="4.74573">
        <ele>221</ele>
        <time>2014-05-08T17:16:30Z</time>
      </trkpt>
      <trkpt lat="46.78322" lon="4.74577">
        <ele>221</ele>
        <time>2014-05-08T17:16:34Z</time>
      </trkpt>
      <trkpt lat="46.78325" lon="4.74581">
        <ele>221</ele>
        <time>2014-05-08T17:16:37Z</time>
      </trkpt>
      <trkpt lat="46.78329" lon="4.74585">
        <ele>222</ele>
        <time>2014-05-08T17:16:40Z</time>
      </trkpt>
      <trkpt lat="46.78333" lon="4.74588">
        <ele>222</ele>
        <time>2014-05-08T17:16:43Z</time>
      </trkpt>
      <trkpt lat="46.78338" lon="4.74591">
        <ele>222</ele>
        <time>2014-05-08T17:16:46Z</time>
      </trkpt>
      <trkpt lat="46.78342" lon="4.74595">
        <ele>221</ele>
        <time>2014-05-08T17:16:49Z</time>
      </trkpt>
      <trkpt lat="46.78346" lon="4.74598">
        <ele>221</ele>
        <time>2014-05-08T17:16:53Z</time>
      </trkpt>
      <trkpt lat="46.78352" lon="4.74602">
        <ele>220</ele>
        <time>2014-05-08T17:16:57Z</time>
      </trkpt>
      <trkpt lat="46.78356" lon="4.74607">
        <ele>219</ele>
        <time>2014-05-08T17:17:01Z</time>
      </trkpt>
      <trkpt lat="46.78361" lon="4.74611">
        <ele>218</ele>
        <time>2014-05-08T17:17:05Z</time>
      </trkpt>
      <trkpt lat="46.78365" lon="4.74616">
        <ele>217</ele>
        <time>2014-05-08T17:17:08Z</time>
      </trkpt>
      <trkpt lat="46.78368" lon="4.74619">
        <ele>217</ele>
        <time>2014-05-08T17:17:11Z</time>
      </trkpt>
      <trkpt lat="46.78373" lon="4.74624">
        <ele>217</ele>
        <time>2014-05-08T17:17:14Z</time>
      </trkpt>
      <trkpt lat="46.78377" lon="4.74628">
        <ele>217</ele>
        <time>2014-05-08T17:17:17Z</time>
      </trkpt>
      <trkpt lat="46.78383" lon="4.74633">
        <ele>217</ele>
        <time>2014-05-08T17:17:21Z</time>
      </trkpt>
      <trkpt lat="46.78388" lon="4.74635">
        <ele>217</ele>
        <time>2014-05-08T17:17:24Z</time>
      </trkpt>
      <trkpt lat="46.78392" lon="4.74639">
        <ele>216</ele>
        <time>2014-05-08T17:17:27Z</time>
      </trkpt>
      <trkpt lat="46.78396" lon="4.74643">
        <ele>216</ele>
        <time>2014-05-08T17:17:30Z</time>
      </trkpt>
      <trkpt lat="46.78401" lon="4.74647">
        <ele>216</ele>
        <time>2014-05-08T17:17:34Z</time>
      </trkpt>
      <trkpt lat="46.78406" lon="4.7465">
        <ele>215</ele>
        <time>2014-05-08T17:17:38Z</time>
      </trkpt>
      <trkpt lat="46.78411" lon="4.74652">
        <ele>215</ele>
        <time>2014-05-08T17:17:42Z</time>
      </trkpt>
      <trkpt lat="46.78416" lon="4.74655">
        <ele>215</ele>
        <time>2014-05-08T17:17:46Z</time>
      </trkpt>
      <trkpt lat="46.78421" lon="4.74656">
        <ele>215</ele>
        <time>2014-05-08T17:17:49Z</time>
      </trkpt>
      <trkpt lat="46.78426" lon="4.74657">
        <ele>215</ele>
        <time>2014-05-08T17:17:52Z</time>
      </trkpt>
      <trkpt lat="46.78431" lon="4.7466">
        <ele>216</ele>
        <time>2014-05-08T17:17:55Z</time>
      </trkpt>
      <trkpt lat="46.78436" lon="4.74664">
        <ele>216</ele>
        <time>2014-05-08T17:17:59Z</time>
      </trkpt>
      <trkpt lat="46.7844" lon="4.74667">
        <ele>215</ele>
        <time>2014-05-08T17:18:03Z</time>
      </trkpt>
      <trkpt lat="46.78445" lon="4.74669">
        <ele>214</ele>
        <time>2014-05-08T17:18:06Z</time>
      </trkpt>
      <trkpt lat="46.78449" lon="4.74673">
        <ele>214</ele>
        <time>2014-05-08T17:18:09Z</time>
      </trkpt>
      <trkpt lat="46.78453" lon="4.74676">
        <ele>214</ele>
        <time>2014-05-08T17:18:12Z</time>
      </trkpt>
      <trkpt lat="46.78458" lon="4.7468">
        <ele>214</ele>
        <time>2014-05-08T17:18:15Z</time>
      </trkpt>
      <trkpt lat="46.78462" lon="4.74684">
        <ele>215</ele>
        <time>2014-05-08T17:18:18Z</time>
      </trkpt>
      <trkpt lat="46.78467" lon="4.74687">
        <ele>216</ele>
        <time>2014-05-08T17:18:22Z</time>
      </trkpt>
      <trkpt lat="46.78472" lon="4.74691">
        <ele>217</ele>
        <time>2014-05-08T17:18:26Z</time>
      </trkpt>
      <trkpt lat="46.78477" lon="4.74695">
        <ele>217</ele>
        <time>2014-05-08T17:18:29Z</time>
      </trkpt>
      <trkpt lat="46.7848" lon="4.74699">
        <ele>217</ele>
        <time>2014-05-08T17:18:32Z</time>
      </trkpt>
      <trkpt lat="46.78483" lon="4.74707">
        <ele>217</ele>
        <time>2014-05-08T17:18:36Z</time>
      </trkpt>
      <trkpt lat="46.78482" lon="4.74714">
        <ele>217</ele>
        <time>2014-05-08T17:18:40Z</time>
      </trkpt>
      <trkpt lat="46.78481" lon="4.74722">
        <ele>218</ele>
        <time>2014-05-08T17:18:44Z</time>
      </trkpt>
      <trkpt lat="46.78479" lon="4.7473">
        <ele>218</ele>
        <time>2014-05-08T17:18:48Z</time>
      </trkpt>
      <trkpt lat="46.78477" lon="4.74737">
        <ele>218</ele>
        <time>2014-05-08T17:18:51Z</time>
      </trkpt>
      <trkpt lat="46.78476" lon="4.74743">
        <ele>218</ele>
        <time>2014-05-08T17:18:54Z</time>
      </trkpt>
      <trkpt lat="46.78474" lon="4.74751">
        <ele>219</ele>
        <time>2014-05-08T17:18:58Z</time>
      </trkpt>
      <trkpt lat="46.78473" lon="4.74758">
        <ele>219</ele>
        <time>2014-05-08T17:19:01Z</time>
      </trkpt>
      <trkpt lat="46.78471" lon="4.74765">
        <ele>219</ele>
        <time>2014-05-08T17:19:04Z</time>
      </trkpt>
      <trkpt lat="46.78469" lon="4.74772">
        <ele>219</ele>
        <time>2014-05-08T17:19:07Z</time>
      </trkpt>
      <trkpt lat="46.78468" lon="4.74779">
        <ele>219</ele>
        <time>2014-05-08T17:19:10Z</time>
      </trkpt>
      <trkpt lat="46.78466" lon="4.74787">
        <ele>219</ele>
        <time>2014-05-08T17:19:14Z</time>
      </trkpt>
      <trkpt lat="46.78464" lon="4.74793">
        <ele>219</ele>
        <time>2014-05-08T17:19:17Z</time>
      </trkpt>
      <trkpt lat="46.78462" lon="4.74799">
        <ele>219</ele>
        <time>2014-05-08T17:19:20Z</time>
      </trkpt>
      <trkpt lat="46.7846" lon="4.74807">
        <ele>220</ele>
        <time>2014-05-08T17:19:24Z</time>
      </trkpt>
      <trkpt lat="46.78457" lon="4.74813">
        <ele>220</ele>
        <time>2014-05-08T17:19:27Z</time>
      </trkpt>
      <trkpt lat="46.78455" lon="4.7482">
        <ele>220</ele>
        <time>2014-05-08T17:19:31Z</time>
      </trkpt>
      <trkpt lat="46.78453" lon="4.74827">
        <ele>221</ele>
        <time>2014-05-08T17:19:34Z</time>
      </trkpt>
      <trkpt lat="46.78451" lon="4.74833">
        <ele>221</ele>
        <time>2014-05-08T17:19:37Z</time>
      </trkpt>
      <trkpt lat="46.78449" lon="4.74839">
        <ele>221</ele>
        <time>2014-05-08T17:19:40Z</time>
      </trkpt>
      <trkpt lat="46.78448" lon="4.74846">
        <ele>222</ele>
        <time>2014-05-08T17:19:43Z</time>
      </trkpt>
      <trkpt lat="46.78447" lon="4.74854">
        <ele>222</ele>
        <time>2014-05-08T17:19:47Z</time>
      </trkpt>
      <trkpt lat="46.78446" lon="4.74862">
        <ele>223</ele>
        <time>2014-05-08T17:19:51Z</time>
      </trkpt>
      <trkpt lat="46.78445" lon="4.7487">
        <ele>222</ele>
        <time>2014-05-08T17:19:55Z</time>
      </trkpt>
      <trkpt lat="46.78445" lon="4.74879">
        <ele>222</ele>
        <time>2014-05-08T17:19:59Z</time>
      </trkpt>
      <trkpt lat="46.78444" lon="4.74885">
        <ele>222</ele>
        <time>2014-05-08T17:20:02Z</time>
      </trkpt>
      <trkpt lat="46.78443" lon="4.74892">
        <ele>222</ele>
        <time>2014-05-08T17:20:05Z</time>
      </trkpt>
      <trkpt lat="46.78443" lon="4.74899">
        <ele>222</ele>
        <time>2014-05-08T17:20:08Z</time>
      </trkpt>
      <trkpt lat="46.78442" lon="4.74908">
        <ele>222</ele>
        <time>2014-05-08T17:20:12Z</time>
      </trkpt>
      <trkpt lat="46.78442" lon="4.74914">
        <ele>222</ele>
        <time>2014-05-08T17:20:15Z</time>
      </trkpt>
      <trkpt lat="46.78442" lon="4.74921">
        <ele>222</ele>
        <time>2014-05-08T17:20:18Z</time>
      </trkpt>
      <trkpt lat="46.78442" lon="4.74928">
        <ele>222</ele>
        <time>2014-05-08T17:20:21Z</time>
      </trkpt>
      <trkpt lat="46.78441" lon="4.74935">
        <ele>222</ele>
        <time>2014-05-08T17:20:24Z</time>
      </trkpt>
      <trkpt lat="46.78441" lon="4.74941">
        <ele>222</ele>
        <time>2014-05-08T17:20:27Z</time>
      </trkpt>
      <trkpt lat="46.78441" lon="4.74948">
        <ele>221</ele>
        <time>2014-05-08T17:20:30Z</time>
      </trkpt>
      <trkpt lat="46.7844" lon="4.74955">
        <ele>221</ele>
        <time>2014-05-08T17:20:33Z</time>
      </trkpt>
      <trkpt lat="46.78437" lon="4.74963">
        <ele>222</ele>
        <time>2014-05-08T17:20:37Z</time>
      </trkpt>
      <trkpt lat="46.78436" lon="4.74971">
        <ele>222</ele>
        <time>2014-05-08T17:20:40Z</time>
      </trkpt>
      <trkpt lat="46.78435" lon="4.74978">
        <ele>222</ele>
        <time>2014-05-08T17:20:43Z</time>
      </trkpt>
      <trkpt lat="46.78434" lon="4.74985">
        <ele>223</ele>
        <time>2014-05-08T17:20:46Z</time>
      </trkpt>
      <trkpt lat="46.78434" lon="4.74993">
        <ele>223</ele>
        <time>2014-05-08T17:20:50Z</time>
      </trkpt>
      <trkpt lat="46.78433" lon="4.75002">
        <ele>223</ele>
        <time>2014-05-08T17:20:54Z</time>
      </trkpt>
      <trkpt lat="46.78434" lon="4.75009">
        <ele>223</ele>
        <time>2014-05-08T17:20:57Z</time>
      </trkpt>
      <trkpt lat="46.78435" lon="4.75016">
        <ele>223</ele>
        <time>2014-05-08T17:21:00Z</time>
      </trkpt>
      <trkpt lat="46.78438" lon="4.75022">
        <ele>222</ele>
        <time>2014-05-08T17:21:03Z</time>
      </trkpt>
      <trkpt lat="46.78441" lon="4.75027">
        <ele>223</ele>
        <time>2014-05-08T17:21:06Z</time>
      </trkpt>
      <trkpt lat="46.78445" lon="4.75031">
        <ele>223</ele>
        <time>2014-05-08T17:21:09Z</time>
      </trkpt>
      <trkpt lat="46.78449" lon="4.75035">
        <ele>223</ele>
        <time>2014-05-08T17:21:13Z</time>
      </trkpt>
      <trkpt lat="46.78453" lon="4.75041">
        <ele>223</ele>
        <time>2014-05-08T17:21:17Z</time>
      </trkpt>
      <trkpt lat="46.78457" lon="4.75047">
        <ele>222</ele>
        <time>2014-05-08T17:21:21Z</time>
      </trkpt>
      <trkpt lat="46.78461" lon="4.75052">
        <ele>222</ele>
        <time>2014-05-08T17:21:24Z</time>
      </trkpt>
      <trkpt lat="46.78465" lon="4.75058">
        <ele>222</ele>
        <time>2014-05-08T17:21:28Z</time>
      </trkpt>
      <trkpt lat="46.78469" lon="4.75063">
        <ele>221</ele>
        <time>2014-05-08T17:21:32Z</time>
      </trkpt>
      <trkpt lat="46.78473" lon="4.75068">
        <ele>221</ele>
        <time>2014-05-08T17:21:36Z</time>
      </trkpt>
      <trkpt lat="46.78477" lon="4.75072">
        <ele>220</ele>
        <time>2014-05-08T17:21:40Z</time>
      </trkpt>
      <trkpt lat="46.78482" lon="4.75075">
        <ele>219</ele>
        <time>2014-05-08T17:21:44Z</time>
      </trkpt>
      <trkpt lat="46.78487" lon="4.7508">
        <ele>220</ele>
        <time>2014-05-08T17:21:48Z</time>
      </trkpt>
      <trkpt lat="46.78491" lon="4.75084">
        <ele>220</ele>
        <time>2014-05-08T17:21:52Z</time>
      </trkpt>
      <trkpt lat="46.78496" lon="4.75087">
        <ele>220</ele>
        <time>2014-05-08T17:21:56Z</time>
      </trkpt>
      <trkpt lat="46.785" lon="4.75091">
        <ele>221</ele>
        <time>2014-05-08T17:22:00Z</time>
      </trkpt>
      <trkpt lat="46.78503" lon="4.75097">
        <ele>221</ele>
        <time>2014-05-08T17:22:04Z</time>
      </trkpt>
      <trkpt lat="46.78503" lon="4.75106">
        <ele>221</ele>
        <time>2014-05-08T17:22:08Z</time>
      </trkpt>
      <trkpt lat="46.78502" lon="4.75112">
        <ele>221</ele>
        <time>2014-05-08T17:22:11Z</time>
      </trkpt>
      <trkpt lat="46.785" lon="4.75119">
        <ele>220</ele>
        <time>2014-05-08T17:22:14Z</time>
      </trkpt>
      <trkpt lat="46.78498" lon="4.75126">
        <ele>220</ele>
        <time>2014-05-08T17:22:17Z</time>
      </trkpt>
      <trkpt lat="46.78496" lon="4.75132">
        <ele>220</ele>
        <time>2014-05-08T17:22:20Z</time>
      </trkpt>
      <trkpt lat="46.78494" lon="4.7514">
        <ele>219</ele>
        <time>2014-05-08T17:22:24Z</time>
      </trkpt>
      <trkpt lat="46.78491" lon="4.75147">
        <ele>220</ele>
        <time>2014-05-08T17:22:27Z</time>
      </trkpt>
      <trkpt lat="46.78488" lon="4.75155">
        <ele>220</ele>
        <time>2014-05-08T17:22:31Z</time>
      </trkpt>
      <trkpt lat="46.78486" lon="4.75162">
        <ele>220</ele>
        <time>2014-05-08T17:22:35Z</time>
      </trkpt>
      <trkpt lat="46.78486" lon="4.75169">
        <ele>219</ele>
        <time>2014-05-08T17:22:39Z</time>
      </trkpt>
      <trkpt lat="46.78483" lon="4.75175">
        <ele>219</ele>
        <time>2014-05-08T17:22:43Z</time>
      </trkpt>
      <trkpt lat="46.7848" lon="4.75181">
        <ele>219</ele>
        <time>2014-05-08T17:22:47Z</time>
      </trkpt>
      <trkpt lat="46.78479" lon="4.7519">
        <ele>218</ele>
        <time>2014-05-08T17:22:51Z</time>
      </trkpt>
      <trkpt lat="46.78477" lon="4.75196">
        <ele>217</ele>
        <time>2014-05-08T17:22:54Z</time>
      </trkpt>
      <trkpt lat="46.78474" lon="4.75204">
        <ele>217</ele>
        <time>2014-05-08T17:22:58Z</time>
      </trkpt>
      <trkpt lat="46.78473" lon="4.7521">
        <ele>218</ele>
        <time>2014-05-08T17:23:01Z</time>
      </trkpt>
      <trkpt lat="46.78471" lon="4.75217">
        <ele>218</ele>
        <time>2014-05-08T17:23:05Z</time>
      </trkpt>
      <trkpt lat="46.7847" lon="4.75224">
        <ele>219</ele>
        <time>2014-05-08T17:23:09Z</time>
      </trkpt>
      <trkpt lat="46.78468" lon="4.75231">
        <ele>219</ele>
        <time>2014-05-08T17:23:13Z</time>
      </trkpt>
      <trkpt lat="46.78465" lon="4.75237">
        <ele>219</ele>
        <time>2014-05-08T17:23:17Z</time>
      </trkpt>
      <trkpt lat="46.78462" lon="4.75244">
        <ele>219</ele>
        <time>2014-05-08T17:23:21Z</time>
      </trkpt>
      <trkpt lat="46.78459" lon="4.75251">
        <ele>219</ele>
        <time>2014-05-08T17:23:24Z</time>
      </trkpt>
      <trkpt lat="46.78457" lon="4.75256">
        <ele>219</ele>
        <time>2014-05-08T17:23:27Z</time>
      </trkpt>
      <trkpt lat="46.78454" lon="4.75262">
        <ele>219</ele>
        <time>2014-05-08T17:23:30Z</time>
      </trkpt>
      <trkpt lat="46.78451" lon="4.75267">
        <ele>219</ele>
        <time>2014-05-08T17:23:33Z</time>
      </trkpt>
      <trkpt lat="46.78449" lon="4.75272">
        <ele>218</ele>
        <time>2014-05-08T17:23:36Z</time>
      </trkpt>
      <trkpt lat="46.78446" lon="4.75278">
        <ele>218</ele>
        <time>2014-05-08T17:23:39Z</time>
      </trkpt>
      <trkpt lat="46.78442" lon="4.75285">
        <ele>218</ele>
        <time>2014-05-08T17:23:43Z</time>
      </trkpt>
      <trkpt lat="46.7844" lon="4.75292">
        <ele>217</ele>
        <time>2014-05-08T17:23:48Z</time>
      </trkpt>
      <trkpt lat="46.78438" lon="4.75299">
        <ele>217</ele>
        <time>2014-05-08T17:23:53Z</time>
      </trkpt>
      <trkpt lat="46.78436" lon="4.75306">
        <ele>217</ele>
        <time>2014-05-08T17:23:57Z</time>
      </trkpt>
      <trkpt lat="46.78434" lon="4.75314">
        <ele>216</ele>
        <time>2014-05-08T17:24:01Z</time>
      </trkpt>
      <trkpt lat="46.78433" lon="4.75321">
        <ele>216</ele>
        <time>2014-05-08T17:24:04Z</time>
      </trkpt>
      <trkpt lat="46.78433" lon="4.75328">
        <ele>216</ele>
        <time>2014-05-08T17:24:07Z</time>
      </trkpt>
      <trkpt lat="46.78435" lon="4.75334">
        <ele>216</ele>
        <time>2014-05-08T17:24:10Z</time>
      </trkpt>
      <trkpt lat="46.7844" lon="4.75337">
        <ele>215</ele>
        <time>2014-05-08T17:24:13Z</time>
      </trkpt>
      <trkpt lat="46.78444" lon="4.75341">
        <ele>215</ele>
        <time>2014-05-08T17:24:16Z</time>
      </trkpt>
      <trkpt lat="46.78449" lon="4.75344">
        <ele>214</ele>
        <time>2014-05-08T17:24:19Z</time>
      </trkpt>
      <trkpt lat="46.78452" lon="4.75348">
        <ele>214</ele>
        <time>2014-05-08T17:24:22Z</time>
      </trkpt>
      <trkpt lat="46.78457" lon="4.75353">
        <ele>214</ele>
        <time>2014-05-08T17:24:26Z</time>
      </trkpt>
      <trkpt lat="46.78462" lon="4.75356">
        <ele>214</ele>
        <time>2014-05-08T17:24:29Z</time>
      </trkpt>
      <trkpt lat="46.78466" lon="4.75359">
        <ele>214</ele>
        <time>2014-05-08T17:24:32Z</time>
      </trkpt>
      <trkpt lat="46.78471" lon="4.75362">
        <ele>213</ele>
        <time>2014-05-08T17:24:35Z</time>
      </trkpt>
      <trkpt lat="46.78476" lon="4.75364">
        <ele>213</ele>
        <time>2014-05-08T17:24:38Z</time>
      </trkpt>
      <trkpt lat="46.78481" lon="4.75366">
        <ele>213</ele>
        <time>2014-05-08T17:24:41Z</time>
      </trkpt>
      <trkpt lat="46.78485" lon="4.75369">
        <ele>213</ele>
        <time>2014-05-08T17:24:44Z</time>
      </trkpt>
      <trkpt lat="46.7849" lon="4.75373">
        <ele>213</ele>
        <time>2014-05-08T17:24:48Z</time>
      </trkpt>
      <trkpt lat="46.78495" lon="4.75376">
        <ele>213</ele>
        <time>2014-05-08T17:24:52Z</time>
      </trkpt>
      <trkpt lat="46.785" lon="4.7538">
        <ele>213</ele>
        <time>2014-05-08T17:24:56Z</time>
      </trkpt>
      <trkpt lat="46.78506" lon="4.75382">
        <ele>213</ele>
        <time>2014-05-08T17:25:00Z</time>
      </trkpt>
      <trkpt lat="46.78511" lon="4.75385">
        <ele>212</ele>
        <time>2014-05-08T17:25:04Z</time>
      </trkpt>
      <trkpt lat="46.78517" lon="4.75389">
        <ele>212</ele>
        <time>2014-05-08T17:25:08Z</time>
      </trkpt>
      <trkpt lat="46.78521" lon="4.75393">
        <ele>212</ele>
        <time>2014-05-08T17:25:12Z</time>
      </trkpt>
      <trkpt lat="46.78527" lon="4.75396">
        <ele>212</ele>
        <time>2014-05-08T17:25:16Z</time>
      </trkpt>
      <trkpt lat="46.78532" lon="4.75399">
        <ele>212</ele>
        <time>2014-05-08T17:25:20Z</time>
      </trkpt>
      <trkpt lat="46.78537" lon="4.75402">
        <ele>212</ele>
        <time>2014-05-08T17:25:24Z</time>
      </trkpt>
      <trkpt lat="46.78541" lon="4.75396">
        <ele>213</ele>
        <time>2014-05-08T17:25:29Z</time>
      </trkpt>
      <trkpt lat="46.78544" lon="4.75391">
        <ele>213</ele>
        <time>2014-05-08T17:25:33Z</time>
      </trkpt>
      <trkpt lat="46.78546" lon="4.75384">
        <ele>213</ele>
        <time>2014-05-08T17:25:37Z</time>
      </trkpt>
      <trkpt lat="46.78549" lon="4.75378">
        <ele>213</ele>
        <time>2014-05-08T17:25:51Z</time>
      </trkpt>
      <trkpt lat="46.78553" lon="4.75373">
        <ele>214</ele>
        <time>2014-05-08T17:25:57Z</time>
      </trkpt>
      <trkpt lat="46.78555" lon="4.75367">
        <ele>213</ele>
        <time>2014-05-08T17:26:04Z</time>
      </trkpt>
      <trkpt lat="46.78557" lon="4.75365">
        <ele>214</ele>
        <time>2014-05-08T17:26:24Z</time>
      </trkpt>
      <trkpt lat="46.78558" lon="4.75363">
        <ele>212</ele>
        <time>2014-05-08T17:26:28Z</time>
      </trkpt>
      <trkpt lat="46.78555" lon="4.75367">
        <ele>212</ele>
        <time>2014-05-08T17:26:46Z</time>
      </trkpt>
      <trkpt lat="46.78553" lon="4.75375">
        <ele>213</ele>
        <time>2014-05-08T17:26:57Z</time>
      </trkpt>
    </trkseg>
  </trk>
</gpx>